[[{"header":{"parameterUnit":"m.s-1","parameterCategory":1,"la1":31.0,"la2":29.5877,"lo1":-88.7671,"lo2":-86.6584,"dy":0.0162,"dx":0.0185,"nx":115,"ny":88,"refTime":"2023-03-14T06:00:00:Z","depth":0,"parameterNumber":2,"parameterNumberName":"U-component_of_WINDS"},"data":[0.0,0.0,0.0,0.0,0.0,0.0,0.0,0.0,0.0,0.0,0.0,0.0,0.0,0.0,0.0,0.0,0.0,0.0,0.0,0.0,0.0,0.0,0.0,0.0,0.0,0.0,0.0,0.0,0.0,0.0,0.0,0.0,0.0,0.0,0.0,0.0,0.0,0.0,0.0,0.0,0.0,0.0,0.0,0.0,0.0,0.0,0.0,0.0,0.0,0.0,0.0,0.0,0.0,0.0,0.0,0.0,0.0,0.0,0.0,0.0,0.0,0.0,0.0,0.0,0.0,0.0,0.0,0.0,0.0,0.0,0.0,0.0,0.0,0.0,0.0,0.0,0.0,0.0,0.0,0.0,0.0,0.0,0.0,0.0,0.0,0.0,0.0,0.0,0.0,0.0,0.0,0.0,0.0,0.0,0.0,0.0,0.0,0.0,0.0,0.0,0.0,0.0,0.0,0.0,0.0,0.0,0.0,0.0,0.0,0.0,0.0,0.0,0.0,0.0,0.0,0.0,0.0,0.0,0.0,0.0,0.0,0.0,0.0,0.0,0.0,0.0,0.0,0.0,0.0,0.0,0.0,0.0,0.0,0.0,0.0,0.0,0.0,0.0,0.0,0.0,0.0,0.0,0.0,0.0,0.0,0.0,0.0,0.0,0.0,0.0,0.0,0.0,0.0,0.0,0.0,0.0,0.0,0.0,0.0,0.0,0.0,0.0,0.0,0.0,0.0,0.0,0.0,0.0,0.0,0.0,0.0,0.0,0.0,0.0,0.0,0.0,0.0,0.0,0.0,0.0,0.0,0.0,0.0,0.0,0.0,0.0,0.0,0.0,0.0,0.0,0.0,0.0,0.0,0.0,0.0,0.0,0.0,0.0,0.0,0.0,0.0,0.0,0.0,0.0,0.0,0.0,0.0,0.0,0.0,0.0,0.0,0.0,0.0,0.0,0.0,0.0,0.0,0.0,0.0,0.0,0.0,0.0,0.0,0.0,0.0,0.0,0.0,0.0,0.0,0.0,0.0,0.0,0.0,0.0,0.0,0.0,0.0,0.0,0.0,0.0,0.0,0.0,0.0,0.0,0.0,0.0,0.0,0.0,0.0,0.0,0.0,0.0,0.0,0.0,0.0,0.0,0.0,0.0,0.0,0.0,0.0,0.0,0.0,0.0,0.0,0.0,0.0,0.0,0.0,0.0,0.0,0.0,0.0,0.0,0.0,0.0,0.0,0.0,0.0,0.0,0.0,0.0,0.0,0.0,0.0,0.0,0.0,0.0,0.0,0.0,0.0,0.0,0.0,0.0,0.0,0.0,0.0,0.0,0.0,0.0,0.0,0.0,0.0,0.0,0.0,0.0,0.0,0.0,0.0,0.0,0.0,0.0,0.0,0.0,0.0,0.0,0.0,0.0,0.0,0.0,0.0,0.0,0.0,0.0,0.0,0.0,0.0,0.0,0.0,0.0,0.0,0.0,0.0,0.0,0.0,0.0,0.0,0.0,0.0,0.0,0.0,0.0,0.0,0.0,0.0,0.0,0.0,0.0,0.0,0.0,0.0,0.0,0.0,0.0,0.0,0.0,0.0,0.0,0.0,0.0,0.0,0.0,0.0,0.0,0.0,0.0,0.0,0.0,0.0,0.0,0.0,0.0,0.0,0.0,0.0,0.0,0.0,0.0,0.0,0.0,0.0,0.0,0.0,0.0,0.0,0.0,0.0,0.0,0.0,0.0,0.0,0.0,0.0,0.0,0.0,0.0,0.0,0.0,0.0,0.0,0.0,0.0,0.0,0.0,0.0,0.0,0.0,0.0,0.0,0.0,0.0,0.0,0.0,0.0,0.0,0.0,0.0,0.0,0.0,0.0,0.0,0.0,0.0,0.0,0.0,0.0,0.0,0.0,0.0,0.0,0.0,0.0,0.0,0.0,0.0,0.0,0.0,0.0,0.0,0.0,0.0,0.0,0.0,0.0,0.0,0.0,0.0,0.0,0.0,0.0,0.0,0.0,0.0,0.0,0.0,0.0,0.0,0.0,0.0,0.0,0.0,0.0,0.0,0.0,0.0,0.0,0.0,0.0,0.0,0.0,0.0,0.0,0.0,0.0,0.0,0.0,0.0,0.0,0.0,0.0,0.0,0.0,0.0,0.0,0.0,0.0,0.0,0.0,0.0,0.0,0.0,0.0,0.0,0.0,0.0,0.0,0.0,0.0,0.0,0.0,0.0,0.0,0.0,0.0,0.0,0.0,0.0,0.0,0.0,0.0,0.0,0.0,0.0,0.0,0.0,0.0,0.0,0.0,0.0,0.0,0.0,0.0,0.0,0.0,0.0,0.0,0.0,0.0,0.0,0.0,0.0,0.0,0.0,0.0,0.0,0.0,0.0,0.0,0.0,0.0,0.0,0.0,0.0,0.0,0.0,0.0,0.0,0.0,0.0,0.0,0.0,0.0,0.0,0.0,0.0,0.0,0.0,0.0,0.0,0.0,0.0,0.0,0.0,0.0,0.0,0.0,0.0,0.0,0.0,0.0,0.0,0.0,0.0,0.0,0.0,0.0,0.0,0.0,0.0,0.0,0.0,0.0,0.0,0.0,0.0,0.0,0.0,0.0,0.0,0.0,0.0,0.0,0.0,0.0,0.0,0.0,0.0,0.0,0.0,0.0,0.0,0.0,0.0,0.0,0.0,0.0,0.0,0.0,0.0,0.0,0.0,0.0,0.0,0.0,0.0,0.0,0.0,0.0,0.0,0.0,0.0,0.0,0.0,0.0,0.0,0.0,0.0,0.0,0.0,0.0,0.0,0.0,0.0,0.0,0.0,0.0,0.0,0.0,0.0,0.0,0.0,0.0,0.0,0.0,0.0,0.0,0.0,0.0,0.0,0.0,0.0,0.0,0.0,0.0,0.0,0.0,0.0,0.0,0.0,0.0,0.0,0.0,0.0,0.0,0.0,0.0,0.0,0.0,0.0,0.0,0.0,0.0,0.0,0.0,0.0,0.0,0.0,0.0,0.0,0.0,0.0,0.0,0.0,0.0,0.0,0.0,0.0,0.0,0.0,0.0,0.0,0.0,0.0,0.0,0.0,0.0,0.0,0.0,0.0,0.0,0.0,0.0,0.0,0.0,0.0,0.0,0.0,0.0,0.0,0.0,0.0,0.0,0.0,0.0,0.0,0.0,0.0,0.0,0.0,0.0,0.0,0.0,0.0,0.0,0.0,0.0,0.0,0.0,0.0,0.0,0.0,0.0,0.0,0.0,0.0,0.0,0.0,0.0,0.0,0.0,0.0,0.0,0.0,0.0,0.0,0.0,0.0,0.0,0.0,0.0,0.0,0.0,0.0,0.0,0.0,0.0,0.0,0.0,0.0,0.0,0.0,0.0,0.0,0.0,0.0,0.0,0.0,0.0,0.0,0.0,0.0,0.0,0.0,0.0,0.0,0.0,0.0,0.0,0.0,0.0,0.0,0.0,0.0,0.0,0.0,0.0,0.0,0.0,0.0,0.0,0.0,0.0,0.0,0.0,0.0,0.0,0.0,0.0,0.0,0.0,0.0,0.0,0.0,0.0,0.0,0.0,0.0,0.0,0.0,0.0,0.0,0.0,0.0,0.0,0.0,0.0,0.0,0.0,0.0,0.0,0.0,0.0,0.0,0.0,0.0,0.0,0.0,0.0,0.0,0.0,0.0,0.0,0.0,0.0,0.0,0.0,0.0,0.0,0.0,0.0,0.0,0.0,0.0,0.0,0.0,0.0,0.0,0.0,0.0,0.0,0.0,0.0,0.0,0.0,0.0,0.0,0.0,0.0,0.0,0.0,0.0,0.0,0.0,0.0,0.0,0.0,0.0,0.0,0.0,0.0,0.0,0.0,0.0,0.0,0.0,0.0,0.0,0.0,0.0,0.0,0.0,0.0,0.0,0.0,0.0,0.0,0.0,0.0,0.0,0.0,0.0,0.0,0.0,0.0,0.0,0.0,0.0,0.0,0.0,0.0,0.0,0.0,0.0,0.0,0.0,0.0,0.0,0.0,0.0,0.0,0.0,0.0,0.0,0.0,0.0,0.0,0.0,0.0,0.0,0.0,0.0,0.0,0.0,0.0,0.0,0.0,0.0,0.0,0.0,0.0,0.0,0.0,0.0,0.0,0.0,0.0,0.0,0.0,0.0,0.0,0.0,0.0,0.0,0.0,0.0,0.0,0.0,0.0,0.0,0.0,0.0,0.0,0.0,0.0,0.0,0.0,0.0,0.0,0.0,0.0,0.0,0.0,0.0,0.0,0.0,0.0,2.7612,0.0,0.0,0.0,0.0,0.0,0.0,0.0,0.0,0.0,0.0,0.0,0.0,0.0,0.0,0.0,0.0,0.0,0.0,0.0,0.0,0.0,0.0,0.0,0.0,0.0,0.0,0.0,0.0,0.0,0.0,0.0,0.0,0.0,0.0,0.0,0.0,0.0,0.0,0.0,0.0,0.0,0.0,0.0,0.0,0.0,0.0,0.0,0.0,0.0,0.0,0.0,0.0,0.0,0.0,0.0,0.0,0.0,0.0,0.0,0.0,0.0,0.0,0.0,0.0,0.0,0.0,0.0,0.0,0.0,0.0,0.0,0.0,0.0,0.0,0.0,0.0,0.0,0.0,0.0,0.0,0.0,0.0,0.0,0.0,0.0,0.0,0.0,0.0,0.0,0.0,0.0,0.0,0.0,0.0,0.0,0.0,0.0,0.0,0.0,0.0,0.0,0.0,0.0,0.0,0.0,0.0,0.0,0.0,0.0,0.0,2.9846,3.0624,2.9015,2.837,2.8837,0.0,0.0,0.0,0.0,0.0,0.0,0.0,0.0,0.0,0.0,0.0,0.0,0.0,0.0,0.0,0.0,0.0,0.0,0.0,0.0,0.0,0.0,0.0,0.0,0.0,0.0,0.0,0.0,0.0,0.0,0.0,0.0,0.0,0.0,0.0,0.0,0.0,0.0,0.0,0.0,0.0,0.0,0.0,0.0,0.0,0.0,0.0,0.0,0.0,0.0,0.0,0.0,0.0,0.0,0.0,0.0,0.0,0.0,0.0,0.0,0.0,0.0,0.0,0.0,0.0,0.0,0.0,0.0,0.0,0.0,0.0,0.0,0.0,0.0,0.0,0.0,0.0,0.0,0.0,0.0,0.0,0.0,0.0,0.0,0.0,0.0,0.0,0.0,0.0,0.0,0.0,0.0,0.0,0.0,0.0,0.0,0.0,0.0,0.0,0.0,0.0,0.0,0.0,0.0,0.0,0.0,0.0,0.0,0.0,0.0,0.0,0.0,2.8878,2.8632,2.976,0.0,0.0,0.0,0.0,0.0,0.0,0.0,0.0,0.0,0.0,0.0,0.0,0.0,0.0,0.0,0.0,0.0,0.0,0.0,0.0,0.0,0.0,0.0,0.0,0.0,0.0,0.0,0.0,0.0,0.0,0.0,0.0,0.0,0.0,0.0,0.0,0.0,0.0,0.0,0.0,0.0,0.0,0.0,0.0,0.0,0.0,0.0,0.0,0.0,0.0,0.0,0.0,0.0,0.0,0.0,0.0,0.0,0.0,0.0,0.0,0.0,0.0,0.0,0.0,0.0,0.0,0.0,0.0,0.0,0.0,0.0,0.0,0.0,0.0,0.0,0.0,0.0,0.0,0.0,0.0,0.0,0.0,0.0,0.0,0.0,0.0,0.0,0.0,0.0,0.0,0.0,0.0,0.0,0.0,0.0,0.0,0.0,0.0,0.0,0.0,0.0,0.0,0.0,0.0,0.0,0.0,0.0,0.0,0.0,0.0,3.0409,3.1136,3.0319,0.0,2.9586,0.0,0.0,0.0,0.0,0.0,0.0,0.0,0.0,0.0,0.0,0.0,0.0,0.0,0.0,0.0,0.0,0.0,0.0,0.0,0.0,0.0,0.0,0.0,0.0,0.0,0.0,0.0,0.0,0.0,0.0,0.0,0.0,0.0,0.0,0.0,0.0,0.0,0.0,0.0,0.0,0.0,0.0,0.0,0.0,0.0,0.0,0.0,0.0,0.0,0.0,0.0,0.0,0.0,0.0,0.0,0.0,0.0,0.0,0.0,0.0,0.0,0.0,0.0,0.0,0.0,0.0,0.0,0.0,0.0,0.0,0.0,0.0,0.0,0.0,0.0,0.0,0.0,0.0,0.0,0.0,0.0,0.0,0.0,0.0,0.0,0.0,0.0,0.0,0.0,0.0,0.0,0.0,0.0,0.0,0.0,0.0,0.0,0.0,0.0,0.0,0.0,0.0,0.0,0.0,0.0,0.0,0.0,0.0,0.0,0.0,3.0137,3.0415,3.0063,2.9781,0.0,0.0,0.0,0.0,0.0,0.0,0.0,0.0,0.0,0.0,0.0,0.0,0.0,0.0,0.0,0.0,0.0,0.0,0.0,0.0,0.0,0.0,0.0,0.0,0.0,0.0,0.0,0.0,0.0,0.0,0.0,0.0,0.0,0.0,0.0,0.0,0.0,0.0,0.0,0.0,0.0,0.0,0.0,0.0,0.0,0.0,0.0,0.0,0.0,0.0,0.0,0.0,0.0,0.0,0.0,0.0,0.0,0.0,0.0,0.0,0.0,0.0,0.0,0.0,0.0,0.0,0.0,0.0,0.0,0.0,0.0,0.0,0.0,0.0,0.0,0.0,0.0,0.0,0.0,0.0,0.0,0.0,0.0,0.0,0.0,0.0,0.0,0.0,0.0,0.0,0.0,0.0,0.0,0.0,0.0,0.0,0.0,0.0,0.0,0.0,0.0,0.0,0.0,0.0,0.0,0.0,0.0,0.0,0.0,0.0,3.0383,3.0217,3.0163,3.0072,2.9917,2.9567,0.0,0.0,0.0,0.0,0.0,0.0,0.0,0.0,0.0,0.0,0.0,0.0,0.0,0.0,0.0,0.0,0.0,0.0,0.0,0.0,0.0,0.0,0.0,0.0,0.0,0.0,0.0,0.0,0.0,0.0,0.0,0.0,0.0,0.0,0.0,0.0,0.0,0.0,0.0,0.0,0.0,0.0,0.0,0.0,0.0,0.0,0.0,0.0,0.0,0.0,0.0,0.0,0.0,0.0,0.0,0.0,0.0,0.0,0.0,0.0,0.0,0.0,0.0,0.0,0.0,0.0,0.0,0.0,0.0,0.0,0.0,0.0,0.0,0.0,0.0,0.0,0.0,0.0,0.0,0.0,0.0,0.0,0.0,0.0,0.0,0.0,0.0,0.0,0.0,0.0,0.0,0.0,0.0,0.0,0.0,0.0,0.0,0.0,0.0,0.0,0.0,0.0,0.0,0.0,0.0,0.0,0.0,0.0,3.2443,3.161,3.1123,3.1031,3.0986,3.0497,0.0,0.0,0.0,0.0,0.0,0.0,0.0,0.0,0.0,0.0,0.0,0.0,0.0,0.0,0.0,0.0,0.0,0.0,0.0,0.0,0.0,0.0,0.0,0.0,0.0,0.0,0.0,0.0,0.0,0.0,0.0,0.0,0.0,0.0,0.0,0.0,0.0,0.0,0.0,0.0,0.0,0.0,0.0,0.0,0.0,0.0,0.0,0.0,0.0,0.0,0.0,0.0,0.0,0.0,0.0,0.0,0.0,0.0,0.0,0.0,0.0,0.0,0.0,0.0,0.0,0.0,0.0,0.0,0.0,0.0,0.0,0.0,0.0,0.0,0.0,0.0,0.0,0.0,0.0,0.0,0.0,0.0,0.0,0.0,0.0,0.0,0.0,0.0,0.0,0.0,0.0,0.0,0.0,0.0,0.0,0.0,0.0,0.0,0.0,0.0,0.0,0.0,0.0,0.0,0.0,0.0,0.0,0.0,0.0,3.1582,3.1762,3.1567,3.1061,3.096,3.0682,0.0,0.0,0.0,0.0,0.0,0.0,0.0,0.0,0.0,0.0,0.0,0.0,0.0,0.0,0.0,0.0,0.0,0.0,0.0,0.0,0.0,0.0,0.0,0.0,0.0,0.0,0.0,0.0,0.0,0.0,0.0,0.0,0.0,0.0,0.0,0.0,0.0,0.0,0.0,0.0,0.0,0.0,0.0,0.0,0.0,0.0,0.0,0.0,0.0,0.0,0.0,0.0,0.0,0.0,0.0,0.0,0.0,0.0,0.0,0.0,0.0,0.0,0.0,0.0,0.0,0.0,0.0,0.0,0.0,0.0,0.0,0.0,0.0,0.0,0.0,0.0,0.0,0.0,0.0,0.0,0.0,0.0,0.0,0.0,0.0,0.0,0.0,0.0,0.0,0.0,0.0,0.0,0.0,0.0,0.0,0.0,0.0,0.0,0.0,0.0,0.0,0.0,0.0,0.0,0.0,0.0,0.0,0.0,0.0,3.1817,0.0,3.2627,3.1791,3.1749,3.1374,0.0,0.0,0.0,0.0,0.0,0.0,0.0,0.0,0.0,0.0,0.0,0.0,0.0,0.0,0.0,0.0,0.0,0.0,0.0,0.0,0.0,0.0,0.0,0.0,0.0,0.0,0.0,0.0,0.0,0.0,0.0,0.0,0.0,0.0,0.0,0.0,0.0,0.0,0.0,0.0,0.0,0.0,0.0,0.0,0.0,0.0,0.0,0.0,0.0,0.0,0.0,0.0,0.0,0.0,0.0,0.0,0.0,0.0,0.0,0.0,0.0,0.0,0.0,0.0,0.0,0.0,0.0,0.0,0.0,0.0,0.0,0.0,0.0,0.0,0.0,0.0,0.0,0.0,0.0,0.0,0.0,0.0,0.0,0.0,0.0,0.0,0.0,0.0,0.0,0.0,0.0,0.0,0.0,0.0,0.0,0.0,0.0,0.0,0.0,0.0,0.0,0.0,0.0,0.0,0.0,0.0,0.0,0.0,3.285,3.3549,3.439,3.4331,3.3371,3.3379,3.2576,0.0,0.0,0.0,0.0,0.0,0.0,0.0,0.0,0.0,0.0,0.0,0.0,0.0,0.0,0.0,0.0,0.0,0.0,0.0,0.0,0.0,0.0,0.0,0.0,0.0,0.0,0.0,0.0,0.0,0.0,0.0,0.0,0.0,0.0,0.0,0.0,0.0,0.0,0.0,0.0,0.0,0.0,0.0,0.0,0.0,0.0,0.0,0.0,0.0,0.0,0.0,0.0,0.0,0.0,0.0,0.0,0.0,0.0,0.0,0.0,0.0,0.0,0.0,0.0,0.0,0.0,0.0,0.0,0.0,0.0,0.0,0.0,0.0,0.0,0.0,0.0,0.0,0.0,0.0,0.0,0.0,0.0,0.0,0.0,0.0,0.0,0.0,0.0,0.0,0.0,0.0,0.0,0.0,0.0,0.0,0.0,0.0,0.0,0.0,0.0,0.0,0.0,0.0,0.0,0.0,0.0,0.0,0.0,0.0,3.5937,3.5414,3.5034,3.4744,3.3591,3.2835,0.0,0.0,0.0,0.0,0.0,0.0,0.0,0.0,0.0,0.0,0.0,0.0,0.0,0.0,0.0,0.0,0.0,0.0,0.0,0.0,0.0,0.0,0.0,0.0,0.0,0.0,0.0,0.0,0.0,0.0,0.0,0.0,0.0,0.0,0.0,0.0,0.0,0.0,0.0,0.0,0.0,0.0,0.0,0.0,0.0,0.0,0.0,0.0,0.0,0.0,0.0,0.0,0.0,0.0,0.0,0.0,0.0,0.0,0.0,0.0,0.0,0.0,0.0,0.0,0.0,0.0,0.0,0.0,0.0,0.0,0.0,0.0,0.0,0.0,0.0,0.0,0.0,0.0,0.0,0.0,0.0,0.0,0.0,0.0,0.0,0.0,0.0,0.0,0.0,0.0,0.0,0.0,0.0,0.0,0.0,0.0,0.0,0.0,0.0,0.0,0.0,0.0,0.0,0.0,0.0,0.0,0.0,0.0,0.0,3.9769,3.8189,3.7398,3.7529,3.6008,3.4797,3.3938,0.0,0.0,0.0,0.0,0.0,0.0,0.0,0.0,0.0,0.0,0.0,0.0,0.0,0.0,0.0,0.0,0.0,0.0,0.0,0.0,0.0,0.0,0.0,0.0,0.0,0.0,0.0,0.0,0.0,0.0,0.0,0.0,0.0,0.0,0.0,0.0,0.0,0.0,0.0,0.0,0.0,0.0,0.0,0.0,0.0,0.0,0.0,0.0,0.0,0.0,0.0,0.0,0.0,0.0,0.0,0.0,0.0,0.0,0.0,0.0,0.0,0.0,0.0,0.0,0.0,0.0,0.0,0.0,0.0,0.0,0.0,0.0,0.0,0.0,0.0,0.0,0.0,0.0,0.0,0.0,0.0,0.0,0.0,0.0,0.0,0.0,0.0,0.0,0.0,0.0,0.0,0.0,0.0,0.0,0.0,0.0,0.0,0.0,0.0,0.0,0.0,0.0,0.0,0.0,0.0,0.0,0.0,0.0,4.4903,4.2668,4.1442,4.1295,4.0087,3.8,0.0,0.0,0.0,0.0,0.0,0.0,0.0,0.0,0.0,0.0,0.0,0.0,0.0,0.0,0.0,0.0,0.0,0.0,0.0,0.0,0.0,0.0,0.0,0.0,0.0,0.0,0.0,0.0,0.0,0.0,0.0,0.0,0.0,0.0,0.0,0.0,0.0,0.0,0.0,0.0,0.0,0.0,0.0,0.0,0.0,0.0,0.0,0.0,0.0,0.0,0.0,0.0,0.0,0.0,0.0,0.0,0.0,0.0,0.0,0.0,0.0,0.0,0.0,0.0,0.0,0.0,0.0,0.0,0.0,0.0,0.0,0.0,0.0,0.0,0.0,0.0,0.0,0.0,0.0,0.0,0.0,0.0,0.0,0.0,0.0,0.0,0.0,0.0,0.0,0.0,0.0,0.0,0.0,0.0,0.0,0.0,0.0,0.0,0.0,0.0,0.0,0.0,0.0,0.0,0.0,0.0,0.0,0.0,0.0,4.9102,4.9524,4.7887,4.4171,4.1777,3.9381,0.0,0.0,0.0,0.0,0.0,0.0,0.0,0.0,0.0,0.0,0.0,0.0,0.0,0.0,0.0,0.0,0.0,0.0,0.0,0.0,0.0,0.0,0.0,0.0,0.0,0.0,0.0,0.0,0.0,0.0,0.0,0.0,0.0,0.0,0.0,0.0,0.0,0.0,0.0,0.0,0.0,0.0,0.0,0.0,0.0,0.0,0.0,0.0,0.0,0.0,0.0,0.0,0.0,0.0,0.0,0.0,0.0,0.0,0.0,0.0,0.0,0.0,0.0,0.0,0.0,0.0,0.0,0.0,0.0,0.0,0.0,0.0,0.0,0.0,0.0,0.0,0.0,0.0,0.0,0.0,0.0,0.0,0.0,0.0,0.0,0.0,0.0,0.0,0.0,0.0,0.0,0.0,0.0,0.0,0.0,0.0,0.0,0.0,0.0,0.0,0.0,0.0,0.0,0.0,0.0,0.0,0.0,0.0,4.9007,5.1742,5.4594,5.4145,5.0264,4.5757,4.2109,0.0,0.0,0.0,0.0,0.0,0.0,0.0,0.0,0.0,0.0,0.0,0.0,0.0,0.0,0.0,0.0,0.0,0.0,0.0,0.0,0.0,0.0,0.0,0.0,0.0,0.0,0.0,0.0,0.0,0.0,0.0,0.0,0.0,0.0,0.0,0.0,0.0,0.0,0.0,0.0,0.0,0.0,0.0,0.0,0.0,0.0,0.0,0.0,0.0,0.0,0.0,0.0,0.0,0.0,0.0,0.0,0.0,0.0,0.0,0.0,0.0,0.0,0.0,0.0,0.0,0.0,0.0,0.0,0.0,0.0,0.0,0.0,0.0,0.0,0.0,0.0,0.0,0.0,0.0,0.0,0.0,0.0,0.0,0.0,0.0,0.0,0.0,0.0,0.0,0.0,0.0,0.0,0.0,0.0,0.0,0.0,0.0,0.0,0.0,0.0,0.0,0.0,0.0,0.0,0.0,0.0,0.0,0.0,5.1474,5.3528,5.8179,5.9615,5.745,5.0641,4.5511,0.0,0.0,0.0,0.0,0.0,0.0,0.0,0.0,0.0,0.0,0.0,0.0,0.0,0.0,0.0,0.0,0.0,0.0,0.0,0.0,0.0,0.0,0.0,0.0,0.0,0.0,0.0,0.0,0.0,0.0,0.0,0.0,0.0,0.0,0.0,0.0,0.0,0.0,0.0,0.0,0.0,0.0,0.0,0.0,0.0,0.0,0.0,0.0,0.0,0.0,0.0,0.0,0.0,0.0,0.0,0.0,0.0,0.0,0.0,0.0,0.0,0.0,0.0,0.0,0.0,0.0,0.0,0.0,0.0,0.0,0.0,0.0,0.0,0.0,0.0,0.0,0.0,0.0,0.0,0.0,0.0,0.0,0.0,0.0,0.0,0.0,0.0,0.0,0.0,0.0,0.0,0.0,0.0,0.0,0.0,0.0,0.0,0.0,0.0,0.0,0.0,0.0,0.0,0.0,0.0,0.0,0.0,0.0,5.4097,5.6984,5.9929,6.1113,6.0386,5.2937,4.7522,0.0,0.0,0.0,0.0,0.0,0.0,0.0,0.0,0.0,0.0,0.0,0.0,0.0,0.0,0.0,0.0,0.0,0.0,0.0,0.0,0.0,0.0,0.0,0.0,0.0,0.0,0.0,0.0,0.0,0.0,0.0,0.0,0.0,0.0,0.0,0.0,0.0,0.0,0.0,0.0,0.0,0.0,0.0,0.0,0.0,0.0,0.0,0.0,3.8257,0.0,0.0,0.0,0.0,0.0,0.0,0.0,0.0,0.0,0.0,0.0,0.0,0.0,0.0,0.0,0.0,0.0,0.0,0.0,0.0,0.0,0.0,0.0,0.0,0.0,0.0,0.0,0.0,0.0,0.0,0.0,0.0,0.0,0.0,0.0,0.0,0.0,0.0,0.0,0.0,0.0,0.0,0.0,0.0,0.0,0.0,0.0,0.0,0.0,0.0,0.0,0.0,0.0,0.0,0.0,0.0,0.0,0.0,0.0,5.5209,5.8502,6.1187,6.2217,6.1242,5.5094,4.9979,0.0,0.0,0.0,0.0,0.0,0.0,0.0,0.0,0.0,0.0,0.0,0.0,0.0,0.0,0.0,0.0,0.0,0.0,0.0,0.0,0.0,0.0,0.0,0.0,0.0,0.0,0.0,0.0,0.0,0.0,0.0,0.0,0.0,0.0,0.0,0.0,0.0,0.0,0.0,0.0,0.0,0.0,0.0,0.0,0.0,0.0,0.0,0.0,0.0,0.0,0.0,0.0,0.0,0.0,0.0,0.0,0.0,0.0,0.0,0.0,0.0,0.0,0.0,0.0,0.0,0.0,0.0,0.0,0.0,0.0,0.0,0.0,0.0,0.0,0.0,0.0,0.0,0.0,0.0,0.0,0.0,0.0,0.0,0.0,0.0,0.0,0.0,0.0,0.0,0.0,0.0,0.0,0.0,0.0,0.0,0.0,0.0,0.0,0.0,0.0,0.0,0.0,0.0,0.0,0.0,0.0,0.0,5.2269,5.617,5.9867,6.2477,6.3188,6.1727,5.698,5.2206,4.756,0.0,0.0,0.0,0.0,0.0,0.0,0.0,0.0,0.0,0.0,0.0,0.0,0.0,0.0,0.0,0.0,0.0,0.0,0.0,0.0,0.0,0.0,0.0,0.0,0.0,0.0,0.0,0.0,0.0,0.0,0.0,0.0,0.0,0.0,0.0,0.0,0.0,0.0,3.5601,3.6782,0.0,0.0,0.0,0.0,0.0,0.0,0.0,0.0,3.8472,0.0,0.0,0.0,0.0,0.0,0.0,0.0,0.0,0.0,0.0,0.0,0.0,0.0,0.0,0.0,0.0,0.0,0.0,0.0,0.0,0.0,0.0,0.0,0.0,0.0,0.0,0.0,0.0,0.0,0.0,0.0,0.0,0.0,0.0,0.0,0.0,0.0,0.0,0.0,0.0,0.0,0.0,0.0,0.0,0.0,0.0,0.0,0.0,0.0,0.0,0.0,0.0,0.0,0.0,0.0,0.0,5.1879,5.5023,5.8941,6.3643,6.4426,6.4045,6.2456,5.7825,5.28,4.7589,0.0,0.0,0.0,0.0,0.0,0.0,0.0,0.0,0.0,0.0,0.0,0.0,0.0,0.0,0.0,0.0,0.0,0.0,0.0,0.0,0.0,0.0,0.0,0.0,0.0,0.0,0.0,0.0,0.0,0.0,0.0,0.0,0.0,0.0,0.0,0.0,0.0,0.0,0.0,3.8855,3.8658,0.0,0.0,0.0,0.0,0.0,0.0,0.0,0.0,3.6897,0.0,0.0,0.0,0.0,0.0,0.0,0.0,0.0,0.0,0.0,0.0,0.0,0.0,0.0,0.0,0.0,0.0,0.0,0.0,0.0,0.0,0.0,0.0,0.0,0.0,0.0,0.0,0.0,0.0,0.0,0.0,0.0,0.0,0.0,0.0,0.0,0.0,0.0,0.0,0.0,0.0,0.0,0.0,0.0,0.0,0.0,0.0,0.0,0.0,0.0,0.0,0.0,0.0,0.0,0.0,5.3339,5.6266,5.9634,6.3511,6.4203,6.343,6.1217,5.7148,5.2603,0.0,0.0,0.0,0.0,0.0,0.0,0.0,0.0,0.0,0.0,0.0,0.0,0.0,0.0,0.0,0.0,0.0,0.0,0.0,0.0,0.0,0.0,0.0,0.0,0.0,0.0,0.0,0.0,0.0,0.0,0.0,0.0,0.0,0.0,0.0,0.0,0.0,0.0,0.0,0.0,4.0194,4.0101,3.8947,0.0,0.0,0.0,0.0,0.0,0.0,3.9814,3.9135,0.0,0.0,0.0,0.0,0.0,0.0,0.0,0.0,0.0,0.0,0.0,0.0,0.0,0.0,0.0,0.0,0.0,0.0,0.0,0.0,0.0,0.0,0.0,0.0,0.0,0.0,0.0,0.0,0.0,0.0,0.0,0.0,0.0,0.0,0.0,0.0,0.0,0.0,0.0,0.0,0.0,0.0,0.0,0.0,0.0,0.0,0.0,0.0,0.0,0.0,0.0,0.0,0.0,0.0,0.0,5.4444,5.7109,5.995,6.3025,6.3734,6.276,6.0069,5.6354,5.2245,0.0,0.0,0.0,0.0,0.0,0.0,0.0,0.0,0.0,0.0,0.0,0.0,0.0,0.0,0.0,0.0,0.0,0.0,0.0,0.0,0.0,0.0,0.0,0.0,0.0,0.0,0.0,0.0,0.0,0.0,0.0,0.0,0.0,0.0,0.0,0.0,0.0,0.0,0.0,0.0,0.0,4.1625,4.063,4.1349,0.0,0.0,0.0,0.0,4.1924,4.244,0.0,0.0,0.0,0.0,0.0,0.0,0.0,0.0,0.0,0.0,0.0,0.0,0.0,0.0,0.0,0.0,0.0,0.0,0.0,0.0,0.0,0.0,0.0,0.0,0.0,0.0,0.0,0.0,0.0,0.0,0.0,0.0,0.0,0.0,0.0,0.0,0.0,0.0,0.0,0.0,0.0,0.0,0.0,0.0,0.0,0.0,0.0,0.0,0.0,0.0,0.0,0.0,0.0,0.0,0.0,0.0,5.596,5.8129,6.0956,6.4514,6.438,6.3107,6.0873,5.6489,5.2101,0.0,0.0,0.0,0.0,0.0,0.0,0.0,0.0,0.0,0.0,0.0,0.0,0.0,0.0,0.0,0.0,0.0,0.0,0.0,0.0,0.0,0.0,0.0,0.0,0.0,0.0,0.0,0.0,0.0,0.0,0.0,0.0,0.0,0.0,0.0,0.0,0.0,0.0,0.0,0.0,0.0,4.3235,4.288,4.3131,4.3396,0.0,0.0,0.0,4.3136,4.425,0.0,0.0,0.0,0.0,0.0,0.0,0.0,0.0,0.0,0.0,0.0,0.0,0.0,0.0,0.0,0.0,0.0,0.0,0.0,0.0,0.0,0.0,0.0,0.0,0.0,0.0,0.0,0.0,0.0,0.0,0.0,0.0,0.0,0.0,0.0,0.0,0.0,0.0,0.0,0.0,0.0,0.0,0.0,0.0,0.0,0.0,0.0,0.0,0.0,0.0,0.0,0.0,0.0,0.0,0.0,5.1413,5.5609,5.853,6.1056,6.3182,6.3124,6.2017,5.9834,5.5701,5.1816,0.0,0.0,0.0,0.0,0.0,0.0,0.0,0.0,0.0,0.0,0.0,0.0,0.0,0.0,0.0,0.0,0.0,0.0,0.0,0.0,0.0,0.0,0.0,0.0,0.0,0.0,0.0,0.0,0.0,0.0,0.0,0.0,0.0,0.0,0.0,0.0,0.0,0.0,0.0,0.0,0.0,0.0,4.3433,4.493,0.0,0.0,0.0,4.5761,4.6068,0.0,0.0,0.0,0.0,0.0,0.0,0.0,0.0,0.0,0.0,0.0,0.0,0.0,0.0,0.0,0.0,0.0,0.0,0.0,0.0,0.0,0.0,0.0,0.0,0.0,0.0,0.0,0.0,0.0,0.0,0.0,0.0,0.0,0.0,0.0,0.0,0.0,0.0,0.0,0.0,0.0,0.0,0.0,0.0,0.0,0.0,0.0,0.0,0.0,0.0,0.0,0.0,0.0,0.0,0.0,0.0,0.0,5.5087,5.866,6.0991,6.1973,6.2114,6.114,5.8909,5.5186,0.0,0.0,0.0,0.0,0.0,0.0,0.0,0.0,0.0,0.0,0.0,0.0,0.0,0.0,0.0,0.0,0.0,0.0,0.0,0.0,0.0,0.0,0.0,0.0,0.0,0.0,0.0,3.4379,0.0,0.0,0.0,0.0,0.0,0.0,0.0,0.0,0.0,0.0,0.0,0.0,0.0,0.0,4.6805,4.4952,4.7246,4.8583,0.0,0.0,4.9,4.8672,4.7961,4.6685,0.0,0.0,0.0,0.0,0.0,0.0,0.0,0.0,0.0,0.0,0.0,0.0,0.0,0.0,0.0,0.0,0.0,0.0,0.0,0.0,0.0,0.0,0.0,0.0,0.0,0.0,0.0,0.0,0.0,0.0,0.0,0.0,0.0,0.0,0.0,0.0,0.0,0.0,0.0,0.0,0.0,0.0,0.0,0.0,0.0,0.0,0.0,0.0,0.0,0.0,0.0,0.0,0.0,0.0,0.0,5.5079,5.8651,6.0991,6.1973,6.2114,6.114,5.8943,5.55,5.2131,0.0,0.0,0.0,0.0,0.0,0.0,0.0,0.0,0.0,0.0,0.0,0.0,0.0,0.0,0.0,0.0,0.0,0.0,0.0,0.0,0.0,0.0,0.0,0.0,0.0,0.0,0.0,0.0,0.0,0.0,0.0,0.0,0.0,0.0,0.0,0.0,0.0,0.0,0.0,0.0,0.0,4.8987,4.8825,5.0274,5.1029,0.0,0.0,5.108,5.0187,5.1748,5.1315,4.6069,0.0,0.0,0.0,0.0,0.0,0.0,0.0,0.0,0.0,0.0,0.0,0.0,0.0,0.0,0.0,0.0,0.0,0.0,0.0,0.0,0.0,0.0,0.0,0.0,0.0,0.0,0.0,0.0,0.0,0.0,0.0,0.0,0.0,0.0,0.0,0.0,0.0,0.0,0.0,0.0,0.0,0.0,0.0,0.0,0.0,0.0,0.0,0.0,0.0,0.0,0.0,0.0,0.0,5.2213,5.5157,5.8717,6.0858,6.1409,6.1486,6.0699,5.8933,5.598,5.2761,0.0,0.0,0.0,0.0,0.0,0.0,0.0,0.0,0.0,0.0,0.0,0.0,0.0,0.0,0.0,0.0,0.0,0.0,0.0,0.0,0.0,0.0,0.0,0.0,0.0,0.0,0.0,0.0,3.624,3.6325,3.7066,0.0,0.0,0.0,0.0,0.0,0.0,0.0,0.0,0.0,0.0,4.9914,4.9819,5.1193,0.0,0.0,5.1656,5.2085,5.1694,5.1103,5.0006,4.7839,4.5956,0.0,0.0,0.0,0.0,0.0,0.0,0.0,0.0,0.0,0.0,0.0,0.0,0.0,0.0,0.0,0.0,0.0,0.0,0.0,0.0,0.0,0.0,0.0,0.0,0.0,0.0,0.0,0.0,0.0,0.0,0.0,0.0,0.0,0.0,0.0,0.0,0.0,0.0,0.0,0.0,0.0,0.0,0.0,0.0,0.0,0.0,0.0,0.0,0.0,0.0,0.0,0.0,5.2614,5.5186,5.8596,6.0603,6.1096,6.1109,6.0423,5.8899,5.6155,5.3055,0.0,0.0,0.0,0.0,0.0,0.0,0.0,0.0,0.0,0.0,0.0,0.0,0.0,0.0,0.0,0.0,0.0,0.0,0.0,0.0,0.0,0.0,0.0,0.0,0.0,0.0,0.0,0.0,3.7509,3.7217,3.6578,0.0,0.0,0.0,0.0,0.0,0.0,0.0,0.0,0.0,0.0,5.0854,5.1246,5.2456,5.3095,5.2491,5.2925,5.3113,5.2546,5.0823,4.9155,4.7967,0.0,0.0,0.0,0.0,0.0,0.0,0.0,0.0,0.0,0.0,0.0,0.0,0.0,0.0,0.0,0.0,0.0,0.0,0.0,0.0,0.0,0.0,0.0,0.0,0.0,0.0,0.0,0.0,0.0,0.0,0.0,0.0,0.0,0.0,0.0,0.0,0.0,0.0,0.0,0.0,0.0,0.0,0.0,0.0,0.0,0.0,0.0,0.0,0.0,0.0,0.0,0.0,0.0,0.0,5.5178,5.8241,6.0183,6.1063,6.1109,6.0413,5.8899,5.6051,5.2954,4.9566,0.0,0.0,0.0,0.0,0.0,0.0,0.0,0.0,0.0,0.0,0.0,0.0,0.0,0.0,0.0,0.0,0.0,0.0,0.0,0.0,0.0,0.0,0.0,0.0,0.0,0.0,3.9616,3.9762,3.9052,0.0,0.0,0.0,0.0,0.0,0.0,0.0,0.0,0.0,0.0,5.0466,5.1961,5.3487,5.4416,5.4832,5.4735,5.4807,5.4298,5.2557,5.1592,4.9717,0.0,0.0,0.0,0.0,0.0,0.0,0.0,0.0,0.0,0.0,0.0,0.0,0.0,0.0,0.0,0.0,0.0,0.0,0.0,0.0,0.0,0.0,0.0,0.0,0.0,0.0,0.0,0.0,0.0,0.0,0.0,0.0,0.0,0.0,0.0,0.0,0.0,0.0,0.0,0.0,4.3567,4.3781,0.0,0.0,0.0,0.0,0.0,0.0,0.0,0.0,0.0,0.0,0.0,0.0,5.3046,5.6499,5.8616,6.0163,6.1063,6.1109,6.039,5.8933,5.7011,5.3524,4.8338,0.0,0.0,0.0,0.0,0.0,0.0,0.0,0.0,0.0,0.0,0.0,0.0,0.0,0.0,0.0,0.0,0.0,0.0,0.0,0.0,0.0,0.0,0.0,0.0,0.0,3.8549,0.0,0.0,0.0,0.0,0.0,0.0,0.0,0.0,0.0,0.0,0.0,4.7472,4.9038,5.1863,5.3938,5.4333,5.5136,5.5275,0.0,0.0,0.0,0.0,0.0,0.0,0.0,0.0,0.0,0.0,0.0,0.0,0.0,0.0,4.6149,4.4691,4.3994,4.3704,4.4079,0.0,0.0,0.0,0.0,0.0,0.0,0.0,0.0,0.0,0.0,0.0,0.0,0.0,0.0,0.0,0.0,3.99,0.0,0.0,0.0,0.0,0.0,0.0,0.0,0.0,4.5325,4.7011,4.7624,4.7978,4.8117,0.0,4.767,4.6253,0.0,0.0,0.0,0.0,0.0,0.0,0.0,0.0,5.3939,5.679,5.8543,5.9978,6.103,6.1109,6.0512,5.9297,5.6846,5.3304,4.858,4.7221,4.543,0.0,0.0,0.0,0.0,0.0,0.0,0.0,0.0,0.0,0.0,0.0,0.0,0.0,0.0,0.0,0.0,0.0,0.0,0.0,0.0,0.0,0.0,0.0,4.0102,0.0,0.0,0.0,0.0,0.0,0.0,0.0,0.0,0.0,4.4113,4.6338,4.8494,5.0086,5.2452,5.4194,5.4542,0.0,0.0,0.0,0.0,0.0,0.0,0.0,5.206,5.1838,5.0989,5.0534,5.1237,5.0755,5.0386,5.0717,0.0,0.0,4.6381,4.5438,4.5173,4.5512,4.6654,4.7688,4.7977,4.9495,5.097,0.0,0.0,0.0,0.0,0.0,0.0,0.0,0.0,4.0675,4.1083,0.0,0.0,0.0,0.0,0.0,0.0,0.0,0.0,0.0,0.0,4.9198,5.0895,5.0304,5.1592,5.1233,4.955,5.1323,5.1026,4.8706,4.4262,0.0,0.0,0.0,0.0,0.0,0.0,5.4664,5.6089,5.794,5.9638,6.1042,6.1109,6.0755,5.9893,5.5809,5.2563,5.0328,4.814,4.669,4.6213,4.5337,0.0,0.0,0.0,0.0,0.0,0.0,0.0,0.0,0.0,0.0,0.0,0.0,0.0,0.0,0.0,0.0,0.0,0.0,0.0,0.0,4.2238,0.0,0.0,0.0,0.0,0.0,0.0,0.0,0.0,0.0,0.0,4.7762,4.8063,4.9061,5.198,0.0,0.0,0.0,0.0,5.5522,5.4551,5.64,5.6999,5.4509,5.4333,5.369,5.1509,0.0,0.0,5.3585,5.443,5.5088,5.5854,5.4683,5.2658,4.9158,4.8291,4.8301,4.9007,4.981,5.0737,5.1564,5.3288,5.5032,4.7311,0.0,0.0,0.0,0.0,4.4519,4.6251,4.7775,4.7775,4.7262,4.6387,4.4015,0.0,0.0,0.0,0.0,0.0,0.0,4.9914,5.0049,5.383,5.5441,5.5219,5.614,5.6062,5.5171,5.5169,5.3962,5.1722,5.014,4.8345,4.6339,0.0,0.0,0.0,0.0,5.5008,5.7017,5.8268,5.9628,6.1075,6.1109,6.0479,5.9241,5.6978,5.4503,5.1861,5.0878,4.9423,4.7327,4.6502,0.0,0.0,0.0,0.0,0.0,0.0,0.0,0.0,0.0,0.0,0.0,0.0,0.0,0.0,0.0,0.0,0.0,0.0,0.0,4.3538,4.3591,4.3273,0.0,0.0,0.0,0.0,0.0,0.0,0.0,0.0,0.0,5.1536,5.1921,5.2341,0.0,0.0,5.6243,5.5998,5.6868,5.6806,5.4913,0.0,0.0,0.0,5.4216,5.4483,5.4469,5.5025,5.5817,5.6899,5.6784,5.6609,5.6832,5.65,5.5806,5.4743,5.2218,5.0439,5.0083,5.1403,5.2753,5.3152,5.4967,5.6648,5.449,5.0284,4.8123,4.7226,4.744,4.9045,5.0734,5.2341,5.2057,5.1613,5.0903,4.8555,4.6258,4.4195,4.4266,0.0,0.0,0.0,5.3408,5.4295,5.7118,5.8703,5.9268,6.0081,5.9862,5.8824,5.8934,5.7884,5.5729,5.5571,5.4384,5.215,0.0,0.0,5.0767,5.3714,5.5977,5.7378,5.8683,5.9926,6.1075,6.1109,6.038,5.8933,5.775,5.606,5.3741,5.2382,5.0802,4.8934,4.7532,4.6583,0.0,0.0,0.0,0.0,0.0,0.0,0.0,0.0,0.0,0.0,0.0,4.0621,0.0,0.0,0.0,0.0,4.2803,4.3961,4.4568,4.4653,0.0,0.0,0.0,0.0,0.0,0.0,0.0,4.8545,4.9823,5.1481,5.4164,5.5007,5.5244,5.4983,5.6292,5.7094,5.6716,0.0,5.7956,5.5899,5.6788,5.716,5.5759,5.5752,5.6084,5.6332,5.6848,5.7623,5.8673,5.8456,5.8383,5.892,5.9101,5.8993,5.8673,5.6621,5.4573,5.3253,5.4333,5.5486,5.5558,5.7188,5.8631,6.1152,6.0069,5.4775,5.2457,5.2446,5.3214,5.4225,5.5295,5.4682,5.4724,5.5181,5.356,5.2084,5.0852,5.1195,0.0,0.0,5.4469,5.648,5.7935,5.9644,6.1119,6.2376,6.3319,6.2743,6.0906,6.2454,6.2201,6.0279,6.0337,5.996,5.9043,5.5292,5.3097,5.2815,5.5687,5.7275,5.7358,5.9093,6.0347,6.1075,6.1109,6.039,5.8933,5.8181,5.7077,5.5502,5.2913,5.1256,5.0734,4.8534,4.7097,4.6773,0.0,0.0,0.0,0.0,0.0,0.0,0.0,0.0,0.0,0.0,0.0,0.0,0.0,0.0,0.0,4.3578,0.0,4.5246,4.5362,0.0,0.0,0.0,4.4988,4.5686,4.6482,4.7906,5.0279,0.0,0.0,0.0,0.0,5.7615,5.6203,5.6208,5.6484,5.6843,5.8356,5.8838,5.6985,5.8617,5.9488,5.7744,5.7718,5.7775,5.7506,5.7333,5.7876,5.9246,5.9651,6.029,6.1376,6.1912,6.1738,6.0978,6.0609,6.0224,5.7876,5.8058,5.8565,5.8703,5.9862,6.0942,6.5105,6.4752,6.2266,6.0021,5.8147,5.9418,6.046,6.1159,6.0506,5.9965,5.9414,5.6264,5.4094,5.2812,5.3962,5.5438,5.7163,5.89,6.0743,6.2648,6.3669,6.4045,6.3934,6.4827,6.45,6.3255,6.4284,6.4031,6.2578,6.2844,6.2099,6.0367,5.8758,5.7127,5.5465,5.6748,5.779,5.8498,5.9503,6.0347,6.1075,6.1109,6.039,5.8933,5.8171,5.6846,5.4839,5.359,5.2129,5.0424,4.9346,4.8224,4.7069,4.6534,0.0,0.0,0.0,0.0,0.0,0.0,0.0,0.0,0.0,4.3487,4.3665,0.0,4.5944,0.0,4.5133,4.5012,4.5263,4.4754,0.0,0.0,4.6323,4.7156,4.7407,4.8602,5.0509,5.3514,5.4869,5.6386,5.8427,5.8096,5.7704,5.7778,5.8138,5.8306,5.7982,5.8801,5.8628,5.6497,5.6818,5.711,5.6501,5.6995,5.7949,5.8878,5.8528,5.8449,5.9427,6.0109,6.0652,6.105,6.163,6.184,6.1738,6.1695,6.1557,6.0942,6.055,6.0435,6.1014,6.189,6.2773,6.8461,6.8362,6.7214,6.5812,6.4332,6.3846,6.4244,6.5127,6.4432,6.3703,6.2831,5.985,5.8071,5.7419,5.8171,5.9728,6.1771,6.2632,6.4023,6.5779,6.6165,6.601,6.537,6.598,6.5612,6.4453,6.5391,6.5475,6.4663,6.4354,6.3587,6.2351,6.0864,5.9511,5.8364,5.8753,5.9264,5.987,6.0931,6.1351,6.1109,6.1109,6.0597,5.9558,5.8574,5.7396,5.5938,5.5156,5.3939,5.2128,5.149,5.039,4.8624,4.8142,4.7546,0.0,0.0,0.0,0.0,0.0,0.0,0.0,0.0,0.0,0.0,0.0,4.6409,0.0,0.0,0.0,4.682,4.6835,4.6825,4.7021,4.7814,4.8358,4.8421,5.0413,5.2444,5.421,5.6227,5.7744,5.846,5.791,5.7625,5.7929,5.8021,5.7982,5.8003,5.8644,5.8416,5.6373,5.659,5.704,5.6859,5.7719,5.8644,5.9348,5.9203,5.921,6.0007,6.0507,6.0905,6.1267,6.1695,6.1992,6.2028,6.2028,6.2028,6.1955,6.1659,6.1521,6.1912,6.2361,6.2875,7.0879,7.0825,7.0009,6.9678,6.9467,6.6905,6.6607,6.7821,6.7092,6.6375,6.558,6.3714,6.2896,6.2896,6.2896,6.3946,6.5779,6.5745,6.6463,6.7854,6.7787,6.739,6.6805,6.7055,6.6568,6.5481,6.6191,6.6539,6.6449,6.5289,6.4646,6.433,6.2149,6.1083,6.1201,6.1159,6.1146,6.1262,6.2619,6.2674,6.1326,6.1391,6.1096,6.0345,5.9067,5.8059,5.7312,5.6483,5.5391,5.4061,5.3551,5.2335,5.0223,4.9934,4.9257,0.0,4.8265,0.0,0.0,0.0,0.0,0.0,0.0,0.0,0.0,4.6147,4.6433,4.6993,4.6949,4.7425,4.8625,4.9365,4.9546,4.8992,4.9095,4.9235,4.9477,5.2101,5.4044,5.4133,5.7268,5.8871,5.7712,5.7406,5.7362,5.7327,5.6838,5.6651,5.7163,5.7881,5.7849,5.656,5.6953,5.7421,5.8267,5.9022,5.9464,5.9667,5.9645,5.9855,6.0435,6.0688,6.1014,6.1623,6.1876,6.1992,6.2028,6.2028,6.2028,6.1992,6.1955,6.2064,6.2354,6.2499,6.2614,7.0879,7.0747,6.9479,6.8915,6.8849,6.8319,6.8584,6.9334,6.8617,6.7865,6.7191,6.6761,6.6562,6.6574,6.6562,6.7115,6.8009,6.7468,6.7998,6.9368,6.8771,6.8418,6.8298,6.8541,6.8336,6.7692,6.7263,6.7175,6.7329,6.6055,6.5309,6.5094,6.3435,6.2848,0.0,0.0,0.0,0.0,6.299,6.3118,6.232,6.3052,6.2531,6.0578,5.9145,0.0,5.567,5.4262,5.3165,5.2344,5.1963,0.0,0.0,0.0,0.0,0.0,0.0,0.0,0.0,0.0,0.0,0.0,4.9114,4.8835,4.8509,4.9477,4.9709,4.8769,4.9023,4.8883,4.8009,4.8056,4.8346,4.8878,5.0053,5.1104,5.1822,5.4043,5.58,5.6493,5.7785,5.8612,5.8396,5.7447,5.6707,5.6662,5.611,5.5777,5.5852,5.6642,5.6306,5.4641,5.5485,5.6809,5.8515,5.8936,5.9558,6.0159,6.0007,5.9753,5.9934,6.0477,6.0797,6.1086,6.1557,6.2028,6.2028,6.2028,6.2028,6.2028,6.2028,6.239,6.3635,6.3925,6.4359,7.1786,0.0,7.0659,7.034,0.0,0.0,6.9997,7.0307,6.9545,6.8837,6.813,6.7754,6.7787,6.813,6.7754,6.8196,6.9214,6.8473,6.8738,6.9777,6.9412,6.9048,6.8728,6.9055,6.8917,6.8316,6.8037,6.7935,6.7827,6.6743,6.586,6.528,6.4177,6.3655,6.3603,6.3766,6.3658,6.3305,6.4087,6.3965,6.2956,6.305,6.2422,6.1023,0.0,0.0,0.0,0.0,0.0,0.0,0.0,0.0,0.0,0.0,0.0,4.8859,4.9768,5.052,5.0814,5.0176,5.0196,5.1127,5.1934,5.1582,4.9747,4.9889,4.9956,4.9669,5.0544,5.1211,5.1268,5.1574,5.1973,5.2371,5.2806,5.3241,5.3784,5.5414,5.6717,5.7121,5.7644,5.8106,5.8559,5.7095,5.6082,5.6005,5.5776,5.5475,5.5235,5.5997,5.6153,5.5339,5.6327,5.7717,5.9115,6.0038,6.051,6.1174,6.105,6.0833,6.0754,6.1086,6.1412,6.1412,6.1731,6.1992,6.2028,6.2028,6.2028,6.2028,6.2028,6.2397,6.3526,6.349,6.3556,7.2535,7.2005,7.215,7.2117,7.1951,7.1223,7.0825,7.0659,0.0,0.0,0.0,6.8263,6.8341,6.8849,6.8263,6.866,6.9744,6.9181,6.9214,6.9798,6.9798,6.9479,6.8939,6.9382,6.9276,6.8673,6.8775,6.8591,6.8139,6.7139,6.6262,6.5507,6.4659,6.406,6.3757,6.442,6.484,6.4973,6.5293,6.4895,6.3756,6.3169,6.2467,6.1678,5.9345,5.7633,5.6673,5.5364,5.3969,5.2514,5.2336,5.1445,4.9749,5.1226,5.1848,5.1188,5.2701,5.3704,5.3746,5.2876,5.2514,5.2909,5.4146,5.3892,5.1483,5.0741,5.0663,5.1296,5.2449,5.3681,5.4973,5.5486,5.5818,5.5782,5.5377,5.5082,5.516,5.6319,5.7152,5.721,5.7233,5.7418,5.7797,5.6555,5.5432,5.5415,5.5707,5.5775,5.538,5.5928,5.6466,5.6673,5.7361,5.8595,5.9835,6.0698,6.1668,6.1835,6.1955,6.2028,6.1985,6.1902,6.1882,6.1906,6.1923,6.1875,6.1964,6.2028,6.2028,6.2028,6.2028,6.2173,6.273,6.2469,6.2426,7.2105,7.2051,7.2668,7.2568,7.1951,7.1223,7.0527,6.9976,6.9864,6.9744,6.9633,6.9533,6.9533,6.9644,6.9533,6.9599,6.981,6.9699,6.9711,0.0,6.9798,6.9732,6.9668,7.0138,7.0199,6.9925,6.9566,6.8908,6.8026,6.7034,6.6444,6.6212,6.5006,6.463,6.5127,6.5845,6.6507,6.7125,6.6212,6.5636,6.5447,6.5499,6.4604,6.2675,6.1602,5.9834,5.7308,5.637,5.525,5.3834,5.3707,5.284,5.1008,5.1733,5.2158,5.1936,5.2208,5.3315,5.5382,5.3682,5.3078,5.443,5.4792,5.5226,5.6102,5.6102,5.6066,5.6174,5.5661,5.5607,5.5818,5.5444,5.5269,5.519,5.5558,5.5854,5.5848,5.6615,5.7188,5.7176,5.6776,5.6297,5.6058,5.5695,5.5331,5.5077,5.5847,5.6765,5.6995,5.6498,5.6185,5.6601,5.6833,5.7798,5.9435,6.0015,6.0762,6.1814,6.2028,6.2028,6.2028,6.1636,6.1487,6.1875,6.1544,6.1415,6.1819,6.2028,6.1944,6.193,6.1944,6.2057,6.2245,6.2064,6.2397,7.2382,7.215,7.321,7.3488,7.3123,7.2415,7.1686,7.0958,7.056,7.0175,6.9798,6.9798,6.9798,6.9798,6.9798,6.9798,6.9798,6.9798,6.9798,6.9798,6.9798,6.9881,7.0023,7.0246,7.0351,7.0341,7.0029,6.9437,6.8622,6.7971,6.7512,6.7103,6.6441,6.6309,6.6595,6.6926,6.7456,6.8142,6.6886,6.6179,6.6179,6.5536,6.4492,6.3084,6.1975,6.0377,5.8247,5.7082,5.5584,5.3753,5.293,5.1846,5.0485,5.1699,5.2533,5.2766,5.4079,5.5382,5.6573,5.5239,5.4913,5.6029,5.6566,5.7297,5.842,5.6928,5.5977,5.6106,5.6354,5.6713,5.6809,5.6794,5.6784,5.6784,5.6754,5.6645,5.6681,5.6941,5.7188,5.7112,5.6386,5.5864,5.5958,5.5739,5.5536,5.532,5.6181,5.707,5.7755,5.6989,5.6387,5.676,5.7353,5.8119,5.921,5.9963,6.0759,6.1856,6.1992,6.2028,6.1985,6.1678,6.153,6.1432,6.1171,6.0964,6.1031,6.1228,6.1387,6.1487,6.1812,6.195,6.1992,6.1695,6.1774,7.3011,7.2626,7.3732,7.4097,7.3898,7.3343,7.2614,7.1707,7.1123,7.0506,6.9876,6.9798,6.9798,6.9798,6.9798,6.9798,6.9798,6.9798,6.9798,6.9798,6.9798,6.9905,7.0082,7.0141,7.0246,7.0318,7.0235,6.9798,6.9063,6.8644,6.8076,6.7456,6.7688,6.7854,6.7821,6.7865,6.8196,6.8816,6.7633,6.7004,6.6938,6.5459,6.4343,6.3747,6.2521,6.1152,5.9705,5.8555,5.6922,5.4782,5.3608,5.2511,5.1522,5.2944,5.4128,5.4845,5.6624,5.7847,5.7991,5.781,5.7738,5.7985,5.8565,5.9029,5.9065,5.7146,5.5762,5.6002,5.6786,5.7333,5.7453,5.7782,5.813,5.8094,5.7587,5.7152,5.7188,5.7188,5.7125,5.6946,5.5906,5.5373,5.5788,5.5691,5.5575,5.5962,5.6316,5.6824,5.7399,5.7036,5.6586,5.6711,5.743,5.8081,5.8453,5.9073,5.9889,6.0815,6.0978,6.105,6.1204,6.1389,6.1565,6.121,6.1116,6.0901,6.0395,6.0471,6.0729,6.0775,6.1056,6.148,6.1609,6.1261,6.0933,7.403,7.403,7.4143,7.3819,7.3276,7.3132,7.2349,7.1156,7.0924,7.0461,6.9864,6.9798,6.9798,6.9798,6.9798,6.9798,6.9798,6.9798,6.9798,6.9798,6.9798,6.9822,6.9881,7.007,7.0082,6.9941,7.0082,6.9693,6.8754,6.8054,6.7357,6.6827,6.7943,6.8572,6.8584,6.8584,6.8949,6.9644,6.8915,6.8518,6.8374,6.6419,6.5271,6.5204,6.4476,6.3393,6.1979,6.1736,6.0643,5.8634,5.8181,5.7559,5.6532,5.715,5.8049,5.8938,5.9252,5.9674,6.0435,6.1759,6.1759,6.0659,6.0471,5.9964,5.8739,5.8249,5.8149,5.8056,5.7708,5.7469,5.7494,5.7444,5.7472,5.755,5.7412,5.7188,5.7261,5.7188,5.7004,5.6427,5.5356,5.4404,5.4775,5.4741,5.521,5.6114,5.5944,5.6012,5.6544,5.6259,5.5875,5.5812,5.5892,5.64,5.7285,5.707,5.7608,5.7916,5.8394,5.9151,5.9804,6.0114,6.0267,6.0762,6.1067,6.0603,6.0446,6.0483,5.9871,5.9873,6.0079,6.0339,6.075,6.079,6.0598,7.3964,7.3641,7.4494,7.4428,7.3786,7.3753,7.3177,7.2204,7.172,7.1123,7.0428,6.9997,6.9798,6.9798,6.9798,6.9798,6.9798,6.9798,6.9798,6.9798,6.9798,6.9881,7.0023,6.9964,6.9976,7.0023,6.9988,6.9552,6.8695,6.7965,6.7423,6.7302,6.8208,6.8684,6.8705,6.9147,6.9512,6.9777,6.9081,6.8915,6.9103,6.7645,6.6695,6.6628,6.601,6.516,6.4167,6.3725,6.2664,6.0984,6.0169,5.9305,5.8362,5.8372,5.8817,5.9652,6.0561,6.1159,6.1485,6.2143,6.2216,6.1521,6.1521,6.0833,5.9243,5.8432,5.7661,5.6908,5.7078,5.7061,5.6475,5.7245,5.7913,5.7949,5.8311,5.842,5.7955,5.787,5.7657,5.6959,5.578,5.4905,5.4903,5.4402,5.4271,5.4837,5.4862,5.5243,5.5471,5.5244,5.529,5.5421,5.4583,5.4669,5.6315,5.7097,5.7209,5.7821,5.834,5.8807,5.8832,5.915,5.9347,5.9566,5.9433,5.9106,5.8397,5.836,5.8106,5.8484,5.9479,5.9889,5.9635,5.9858,5.9747,7.4647,7.4125,7.476,7.4693,7.4196,7.4196,7.3653,7.2767,7.2237,7.1488,7.056,7.0042,6.9798,6.9798,6.9798,6.9798,6.9798,6.9798,6.9798,6.9798,6.9798,6.9905,7.0047,6.9893,6.9905,7.0023,6.9893,6.9412,6.8738,6.8428,6.8119,6.8031,6.8452,6.8828,6.9015,6.9379,6.9611,6.9744,6.9247,6.9247,6.9599,6.876,6.813,6.7865,6.7203,6.6529,6.6044,6.5326,6.4442,6.3235,6.2131,6.1122,6.0328,5.9806,5.9788,6.0448,6.2046,6.3012,6.2976,6.2976,6.2969,6.2933,6.265,6.1561,5.9907,5.8616,5.712,5.5477,5.6083,5.6263,5.5815,5.7002,5.8019,5.8087,5.8637,5.8673,5.813,5.7961,5.7507,5.6858,5.5237,5.4454,5.4251,5.3622,5.3281,5.3611,5.4025,5.4439,5.449,5.4486,5.4499,5.4962,5.345,5.3354,5.5162,5.5197,5.6098,5.6396,5.6374,5.6858,5.7505,5.7718,5.8589,5.8723,5.8083,5.7753,5.7754,5.7305,5.6552,5.7256,5.8246,5.9054,5.8664,5.8872,5.8942,7.6841,7.596,7.478,7.4296,7.4196,7.4196,7.3388,7.2183,7.2018,7.1223,7.0075,6.9831,6.9798,6.9798,6.9798,6.9798,6.9798,6.9798,6.9798,6.9798,6.9798,6.981,6.9822,6.9798,6.981,6.9858,6.9834,6.9401,6.8783,6.9268,6.9346,6.865,6.8617,6.9015,6.9412,6.9036,6.9114,6.9644,6.9678,6.9732,6.9777,6.9699,6.9268,6.865,6.7931,6.7523,6.739,6.6761,6.6112,6.5625,6.4769,6.395,6.303,6.2248,6.191,6.224,6.4136,6.5337,6.5265,6.5156,6.5171,6.5091,6.3811,6.2167,6.0089,5.8993,5.7315,5.4741,5.5197,5.5534,5.5549,5.6606,5.7366,5.7416,5.7399,5.7478,5.735,5.7035,5.6196,5.5513,5.4059,5.2803,5.1801,5.1978,5.263,5.3145,5.3484,5.3721,5.4126,5.3898,5.366,5.3455,5.2901,5.2538,5.31,5.3252,5.2201,5.253,5.3943,5.39,5.4638,5.553,5.6904,5.7864,5.7447,5.7249,5.7353,5.691,5.5989,5.6218,5.7123,5.7641,5.7753,5.7761,5.7962,7.6974,7.6212,7.5277,7.4627,7.4196,7.4196,7.362,7.268,7.2183,7.1455,7.0527,7.0009,6.9798,6.9798,6.9798,6.9798,6.9798,6.9798,6.9798,6.9798,6.9798,6.9798,6.9798,6.9798,6.9798,6.9798,6.9798,6.9412,6.8717,6.8528,6.8263,6.8064,6.7986,6.8163,6.8362,6.8606,6.8849,6.9114,6.9545,6.9798,6.9798,6.9798,6.9644,6.9379,6.8672,6.8307,6.8307,6.7137,6.6488,6.6501,6.5488,6.4599,6.3984,6.3761,6.3449,6.3189,6.4617,6.5381,6.4903,6.4837,6.486,6.4833,6.3919,6.2275,6.0303,5.8808,5.7069,5.5145,5.4994,5.5352,5.5634,5.6615,5.7469,5.7749,5.8273,5.8336,5.7795,5.7306,5.6795,5.5891,5.4492,5.3185,5.2128,5.2122,5.2232,5.2089,5.2435,5.2875,5.3027,5.2876,5.2842,5.2522,5.1721,5.0969,5.1122,5.1805,5.1842,5.1891,5.2433,5.3009,5.3669,5.4027,5.5183,5.5846,5.5918,5.5912,5.5714,5.5714,5.4962,5.5173,5.6097,5.6758,5.7057,5.7045,5.7382,7.6742,7.6179,7.5323,7.466,7.4229,7.4196,7.3786,7.3032,7.2303,7.1587,7.0858,7.0129,6.9798,6.9798,6.9798,6.9798,6.9798,6.9798,6.9798,6.9798,6.9798,6.9798,6.9798,6.9798,6.9798,6.9798,6.9798,6.9545,6.9081,6.8572,6.8329,6.8362,6.8085,6.8085,6.8329,6.8572,6.8783,6.9081,6.9578,6.9798,6.9798,6.9798,6.9798,6.9732,6.9313,6.9083,6.9165,6.776,6.7144,6.7235,6.6218,6.5058,6.4218,6.4659,6.439,6.3419,6.4826,6.5337,6.4332,6.3827,6.366,6.3902,6.3073,6.1659,5.9566,5.8398,5.6669,5.4942,5.4688,5.5114,5.5561,5.6447,5.7227,5.7599,5.8244,5.8382,5.7568,5.6922,5.5983,5.4798,5.3819,5.2927,5.2184,5.2141,5.2031,5.1599,5.2198,5.263,5.2681,5.2707,5.2564,5.2252,5.1377,5.0803,5.0641,5.09,5.1093,5.1139,5.1607,5.2168,5.2613,5.2935,5.3397,5.3855,5.4069,5.4067,5.4126,5.4236,5.4313,5.4406,5.4949,5.5736,5.6022,5.6253,5.6613,7.6344,7.6125,7.478,7.4296,7.4196,7.4196,7.3753,7.3032,7.2303,7.1587,7.0858,7.0141,6.9798,6.9798,6.9798,6.9798,6.9798,6.9798,6.9798,6.9798,6.9798,6.9798,6.9798,6.9798,6.9798,6.9798,6.9798,6.9798,6.9699,6.9599,6.9599,6.9566,6.8915,6.8837,6.9666,6.9015,6.9048,6.9512,6.9711,6.9798,6.9798,6.9798,6.9798,6.981,6.9756,6.9853,7.0098,6.8699,6.8081,6.8371,6.7204,6.5558,6.4237,6.4936,6.4724,6.3213,6.4753,6.5215,6.3849,6.247,6.2061,6.244,6.1736,6.0315,5.8585,5.791,5.6686,5.4421,5.434,5.4819,5.5395,5.6099,5.6604,5.6753,5.7084,5.6955,5.6337,5.5323,5.3965,5.2631,5.2209,5.1699,5.1387,5.1832,5.2227,5.2453,5.29,5.334,5.3264,5.3188,5.3018,5.2422,5.1591,5.0985,5.0539,5.0168,5.0098,5.018,5.0767,5.1358,5.1795,5.2173,5.2959,5.3471,5.3487,5.3484,5.3746,5.389,5.4084,5.422,5.4635,5.506,5.54,5.5763,5.5782,7.6775,7.6212,7.5343,7.466,7.4229,7.4196,7.3786,7.3032,7.2303,7.1587,7.0825,7.0129,6.9798,6.9798,6.9798,6.9798,6.9798,6.9798,6.9798,6.9798,6.9798,6.9798,6.9798,6.9798,6.9798,6.9798,6.9798,6.9798,6.9798,6.9798,6.9798,6.9666,6.9048,6.8816,6.9081,6.8816,6.8849,6.9048,6.9545,6.9798,6.9798,6.9798,6.9798,6.9822,6.9976,7.0176,7.0331,6.8858,6.8282,6.8661,6.7304,6.603,6.5298,6.5304,6.4668,6.3212,6.3363,6.3181,6.1731,6.0768,6.036,6.0616,6.0393,5.9503,5.818,5.7878,5.6777,5.4754,5.5176,5.5811,5.5625,5.6317,5.6724,5.6559,5.6687,5.6408,5.5513,5.4568,5.3613,5.2781,5.2446,5.2374,5.2488,5.2783,5.2834,5.3028,5.334,5.3509,5.3458,5.3104,5.2665,5.2277,5.167,5.1404,5.1201,5.0964,5.0769,5.071,5.1014,5.1243,5.1514,5.1818,5.2562,5.2976,5.301,5.3137,5.3408,5.3611,5.3805,5.4253,5.4753,5.5024,5.5243,5.5256,5.5158,7.6742,7.6225,7.5277,7.4627,7.4196,7.4196,7.3786,7.3065,7.2303,7.1587,7.0858,7.0141,6.9798,6.9798,6.9798,6.9798,6.9798,6.9798,6.9798,6.9798,6.9798,6.9798,6.9798,6.9798,6.9798,6.9798,6.9798,6.9798,6.9798,6.9798,6.9798,6.9699,6.9346,6.9147,6.9114,6.9114,6.9114,6.9181,6.9566,6.9798,6.9798,6.9798,6.9798,6.9834,7.0059,7.0293,7.0369,6.9063,6.8439,6.8469,6.7174,6.6036,6.5644,6.5667,6.5079,6.3791,6.3494,6.2984,6.1017,6.0221,5.9503,5.9332,5.9378,5.89,5.7896,5.7688,5.6909,5.523,5.5713,5.6105,5.5401,5.6069,5.6378,5.5801,5.609,5.573,5.4622,5.3811,5.3247,5.2781,5.2578,5.2745,5.2964,5.3093,5.3196,5.3399,5.3509,5.3509,5.3416,5.3104,5.2842,5.2573,5.2134,5.2005,5.2046,5.1844,5.1573,5.1514,5.1589,5.1691,5.1818,5.2021,5.2528,5.2807,5.2909,5.3239,5.3509,5.3509,5.3678,5.4253,5.4659,5.4456,5.4355,5.4321,5.4409,7.6278,7.6046,7.4793,7.4229,7.4163,7.413,7.362,7.2945,7.2204,7.1455,7.0726,7.0075,6.9798,6.9798,6.9798,6.9798,6.9798,6.9798,6.9798,6.9798,6.9798,6.9798,6.9798,6.9798,6.9864,6.9964,6.9831,6.9831,6.9964,6.9864,6.9798,6.9765,6.9732,6.9765,6.9699,6.9765,6.9699,6.9699,6.9711,6.9666,6.9765,6.9699,6.9689,6.9746,7.0061,7.0273,7.0203,6.9189,6.8614,6.8562,6.6656,6.5491,6.547,6.5996,6.5313,6.381,6.4756,6.3392,6.1538,6.0136,5.9396,5.8396,5.8539,5.8404,5.7356,5.7552,5.7112,5.5321,5.5987,5.6098,5.5162,5.5546,5.5642,5.4868,5.5049,5.4637,5.3407,5.312,5.2852,5.256,5.2418,5.2525,5.2834,5.2877,5.3084,5.3306,5.3442,5.3458,5.3433,5.3332,5.345,5.3137,5.2665,5.2656,5.2697,5.2528,5.2291,5.2359,5.23,5.2198,5.2224,5.2359,5.2596,5.2841,5.301,5.334,5.3509,5.3509,5.3644,5.405,5.405,5.3644,5.3678,5.3957,5.4453,7.6026,7.5476,7.4561,7.4196,7.4097,7.3653,7.2978,7.225,7.1521,7.0825,7.0129,6.9876,6.9798,6.9798,6.9798,6.9798,6.9798,6.9798,6.9798,6.9798,6.9798,6.9798,6.9798,6.9798,7.0075,7.044,7.0042,7.0096,7.0527,7.003,6.9798,6.9798,6.9798,6.9798,6.9798,6.9798,6.9798,6.9699,6.9235,6.9313,6.9678,6.928,6.9097,6.9339,7.0004,7.0192,6.9906,6.8782,6.755,6.6609,6.5561,6.4802,6.4674,6.4669,6.4391,6.3792,6.2786,6.187,6.05,5.9297,5.8313,5.7672,5.7863,5.7722,5.766,5.7755,5.7315,5.6543,5.6951,5.6753,5.5692,5.5842,5.5552,5.4375,5.4,5.3681,5.3179,5.2774,5.2533,5.2418,5.24,5.2507,5.2648,5.2712,5.279,5.3058,5.3221,5.3306,5.334,5.3458,5.3509,5.3509,5.3256,5.3332,5.3315,5.3137,5.3069,5.3137,5.3036,5.2807,5.2765,5.2799,5.3036,5.3306,5.3239,5.3475,5.3509,5.3509,5.3746,5.3957,5.3788,5.3577,5.4093,5.4474,5.5035,7.6357,7.5641,7.4958,7.4461,7.413,7.3409,7.268,7.1951,7.1223,7.0494,6.9898,6.9798,6.9798,6.9798,6.9798,6.9798,6.9798,6.9798,6.9798,6.9798,6.9798,6.9798,6.9798,6.9798,7.0042,7.034,7.0009,7.003,7.0295,6.9964,6.9831,6.9798,6.9798,6.9798,6.9798,6.9798,6.9798,6.9732,6.9379,6.9401,6.9711,6.9519,6.9458,6.959,7.0022,6.9872,6.8995,6.7989,6.7015,6.6115,6.514,6.4355,6.4138,6.3909,6.3677,6.3454,6.2508,6.1647,6.061,5.9676,5.8846,5.8045,5.7824,5.7848,5.7885,5.79,5.762,5.6938,5.7406,5.6934,5.5917,5.5541,5.4883,5.3881,5.315,5.2842,5.2809,5.2553,5.2427,5.24,5.2409,5.2454,5.2571,5.2597,5.2703,5.2886,5.3102,5.317,5.3213,5.3374,5.3509,5.3509,5.3509,5.3475,5.3475,5.334,5.3272,5.3408,5.3408,5.3205,5.3171,5.3137,5.3272,5.3441,5.3475,5.3509,5.3509,5.3509,5.3611,5.3678,5.3585,5.3822,5.4304,5.4753,5.5394,7.6775,7.5914,7.5297,7.466,7.3852,7.3177,7.237,7.1819,7.1024,7.0394,6.9898,6.9798,6.9798,6.9798,6.9798,6.9798,6.9798,6.9798,6.9798,6.9798,6.9798,6.9798,6.9798,6.9798,6.9931,7.0075,6.9898,6.9943,7.0042,6.9931,6.9798,6.9798,6.9798,6.9798,6.9798,6.9798,6.9798,6.9765,6.9545,6.9578,6.9713,6.9791,6.9776,6.9849,6.9726,6.9299,6.8305,6.7345,6.6715,6.676,6.5117,6.4112,6.3762,6.351,6.3297,6.3104,6.2774,6.2123,6.1349,6.0907,6.0378,5.8901,5.8599,5.8538,5.8174,5.7992,5.7654,5.7103,5.744,5.7046,5.5983,5.4863,5.4054,5.3492,5.2888,5.2451,5.24,5.24,5.24,5.24,5.24,5.2471,5.2518,5.2589,5.2624,5.2676,5.2886,5.2998,5.3102,5.328,5.3391,5.3509,5.3509,5.3509,5.3509,5.3475,5.3441,5.3475,5.3475,5.3408,5.3408,5.3408,5.3441,5.3509,5.3509,5.3509,5.3509,5.3509,5.3602,5.3543,5.3543,5.3923,5.4397,5.4871,5.5409,7.545,7.3761,7.3641,7.3144,7.2415,7.1686,7.1289,7.1123,7.0373,6.9997,6.9843,6.9798,6.981,6.9798,6.981,6.9798,6.9798,6.9798,6.9798,6.9798,6.9798,6.9798,6.9798,6.9798,7.0108,7.034,7.0042,7.0108,7.0373,7.003,6.9798,6.9798,6.9798,6.9798,6.9798,6.9798,6.9798,6.9699,6.928,6.9346,6.9659,6.9572,6.9537,6.9632,6.9424,6.9161,6.8608,6.7375,6.6605,6.6078,6.4723,6.3451,6.2916,6.2314,6.2145,6.2297,6.1925,6.1473,6.1117,6.0795,6.0208,5.947,5.9046,5.8731,5.8758,5.8263,5.7924,5.7706,5.7755,5.7432,5.6408,5.493,5.4169,5.3702,5.3051,5.2533,5.2433,5.24,5.24,5.24,5.24,5.2409,5.2454,5.2471,5.2507,5.2542,5.2633,5.279,5.2981,5.3179,5.3331,5.3458,5.3509,5.3509,5.3509,5.3543,5.3611,5.3712,5.3746,5.3915,5.3915,5.3771,5.3898,5.3746,5.3509,5.3543,5.3737,5.3763,5.3889,5.3695,5.3644,5.4262,5.4803,5.5133,5.5867,7.5231,7.362,7.3231,7.2668,7.1939,7.1223,7.0879,7.0759,7.0108,6.9798,6.9834,6.9917,6.9917,6.9822,6.9917,6.9929,6.9822,6.9798,6.9798,6.9798,6.9798,6.9798,6.9798,6.9798,7.0042,7.0307,7.0009,7.0075,7.0175,7.003,6.9798,6.9798,6.9798,6.9798,6.9798,6.9798,6.9798,6.9777,6.9446,6.9446,6.968,6.981,6.9723,6.9659,6.9353,6.8977,6.8381,6.7275,6.6531,6.5954,6.4774,6.3421,6.2514,6.1723,6.1476,6.1525,6.1384,6.1109,6.0995,6.0894,6.0618,6.0082,5.9818,5.9693,5.9541,5.9099,5.8761,5.8524,5.8337,5.8017,5.6957,5.5898,5.5004,5.4531,5.3862,5.3428,5.3274,5.2825,5.24,5.24,5.24,5.24,5.24,5.24,5.2463,5.2551,5.2595,5.272,5.3034,5.3205,5.3323,5.345,5.3467,5.3509,5.3509,5.3577,5.3754,5.3966,5.4203,5.4532,5.4794,5.4599,5.4403,5.4201,5.3999,5.4042,5.4177,5.4194,5.4236,5.4253,5.4431,5.4871,5.5378,5.5911,5.6813,7.5078,7.3653,7.3011,7.2349,7.162,7.0958,7.0693,7.0593,7.0075,6.9834,6.9905,7.0106,7.0047,6.9952,7.007,7.0023,6.9858,6.9798,6.9798,6.9798,6.9798,6.9798,6.9798,6.9798,6.9798,6.9798,6.9798,6.9876,6.9876,6.9798,6.9798,6.9798,6.9798,6.9798,6.9798,6.9798,6.9798,6.9765,6.9732,6.9746,6.9907,7.0205,7.0297,7.0062,6.9689,6.8968,6.825,6.7246,6.6537,6.6186,6.5245,6.407,6.2964,6.1841,6.1175,6.1175,6.1109,6.1109,6.1161,6.1224,6.1169,6.0772,6.0808,6.0724,6.0371,6.0013,5.953,5.909,5.869,5.8275,5.7398,5.6452,5.5948,5.5492,5.4872,5.4573,5.4306,5.3374,5.2973,5.2586,5.2493,5.24,5.24,5.24,5.248,5.2518,5.2587,5.2694,5.2999,5.3213,5.3298,5.3433,5.3467,5.3822,5.389,5.3983,5.4126,5.4515,5.4761,5.5013,5.5392,5.5049,5.4752,5.4765,5.4648,5.4665,5.4732,5.4864,5.4891,5.4911,5.5108,5.5437,5.6012,5.6689,5.7728,7.3335,7.1434,7.1322,7.0825,7.0229,7.003,7.003,6.9964,6.9876,6.9929,7.0106,7.0176,7.02,7.0141,7.0141,7.0047,6.9858,6.9798,6.9798,6.9798,6.9798,6.9798,6.9798,6.9798,6.9798,6.9798,6.9798,6.9798,6.9798,6.9798,6.9798,6.9798,6.9798,6.9798,6.9798,6.9798,6.9798,6.9798,6.9798,6.9881,7.007,7.0308,7.0465,7.0275,7.0015,6.9443,6.857,6.7656,6.6978,6.6646,6.5271,6.4475,6.38,6.2719,6.1891,6.1307,6.1208,6.1208,6.115,6.1414,6.1585,6.1478,6.1367,6.1279,6.0975,6.052,6.0003,5.9158,5.8497,5.787,5.7346,5.672,5.6105,5.5601,5.5137,5.4692,5.4569,5.428,5.3868,5.3467,5.2967,5.2467,5.2557,5.2533,5.2463,5.2507,5.2542,5.2685,5.2998,5.3094,5.3153,5.3323,5.3501,5.3923,5.4338,5.4499,5.4659,5.5224,5.546,5.5412,5.5568,5.5273,5.5112,5.538,5.5357,5.5205,5.5338,5.5548,5.5588,5.563,5.5792,5.6028,5.6844,5.7679,5.8475,7.256,7.0891,7.0494,7.0129,6.9843,6.9798,6.9798,6.9822,6.9941,7.007,7.0235,7.0421,7.041,7.0281,7.0328,7.0164,6.9881,6.9798,6.9798,6.9798,6.9798,6.9798,6.9798,6.9798,6.9798,6.9798,6.9798,6.9798,6.9798,6.9798,6.9798,6.9798,6.9798,6.9798,6.9798,6.9798,6.9798,6.9798,6.981,6.9858,7.0023,7.034,7.0522,7.0648,7.0253,6.976,6.9244,6.8171,6.7402,6.6823,6.6024,6.5161,6.4454,6.3758,6.283,6.1958,6.1659,6.1461,6.1248,6.1468,6.1679,6.1706,6.1763,6.1844,6.1806,6.1477,6.068,5.9674,5.8447,5.7735,5.7312,5.6955,5.6624,5.6222,5.5809,5.561,5.5554,5.5279,5.4877,5.4393,5.3684,5.3159,5.2913,5.2798,5.2544,5.2471,5.2498,5.2694,5.2972,5.3168,5.3287,5.3643,5.3932,5.438,5.4871,5.5108,5.5412,5.5943,5.6147,5.6107,5.6157,5.602,5.6169,5.6444,5.6243,5.6047,5.621,5.652,5.6439,5.6466,5.7034,5.7552,5.8009,5.8685,5.9552,7.1873,7.0626,7.003,6.9798,6.9798,6.9798,6.9798,6.9858,7.007,7.0211,7.0305,7.0606,7.0595,7.0363,7.0248,7.0119,6.9798,6.9798,6.9798,6.9798,6.9798,6.9798,6.9798,6.9798,6.9798,6.9798,6.9798,6.9798,6.9798,6.9798,6.9798,6.9798,6.9798,6.9798,6.9798,6.9798,6.9798,6.9798,6.9798,6.9834,7.0035,7.0386,7.0779,7.1176,7.0434,7.0007,6.9748,6.8839,6.8045,6.7387,6.672,6.5977,6.5028,6.4675,6.3979,6.2863,6.241,6.1813,6.1451,6.1488,6.1729,6.181,6.2183,6.2341,6.2226,6.1868,6.1424,6.0294,5.8901,5.7909,5.7581,5.7309,5.703,5.6748,5.6623,5.6623,5.6391,5.614,5.5861,5.5241,5.4405,5.3794,5.3424,5.278,5.246,5.248,5.2507,5.2676,5.3005,5.3471,5.3734,5.4158,5.4523,5.4929,5.5352,5.5784,5.6224,5.6824,5.6837,5.6722,5.6889,5.7046,5.7174,5.7145,5.7357,5.719,5.7382,5.7405,5.7335,5.7597,5.8386,5.9019,5.9441,6.0066,6.0886,7.0659,6.9943,6.9831,6.9798,6.9798,6.9798,6.9798,6.9846,7.0094,7.0305,7.0433,7.0549,7.0538,7.0398,7.008,6.9926,6.9822,6.9798,6.9798,6.9798,6.9798,6.9798,6.9798,6.9798,6.9798,6.9798,6.9798,6.9798,6.9798,6.9798,6.9798,6.9798,6.9798,6.9798,6.9798,6.9798,6.9798,6.9798,6.981,7.0011,7.0341,7.0631,7.0836,7.0882,7.0769,7.0464,7.0064,6.9333,6.8718,6.8322,6.7171,6.6496,6.6165,6.5613,6.4962,6.4012,6.3006,6.1986,6.1654,6.1724,6.1894,6.2045,6.2257,6.2385,6.2157,6.16,6.105,6.0872,5.9343,5.8399,5.7997,5.7487,5.7077,5.6971,5.7031,5.6951,5.6795,5.6855,5.6608,5.6197,5.5407,5.4484,5.3822,5.3045,5.2409,5.2463,5.256,5.2863,5.3231,5.3867,5.43,5.475,5.5233,5.5639,5.5961,5.635,5.6833,5.7552,5.7383,5.7271,5.7527,5.7638,5.7561,5.7627,5.795,5.8179,5.8131,5.8143,5.8159,5.8567,5.924,6.0018,6.0775,6.1484,6.2292,7.0108,6.9798,6.9798,6.9798,6.9798,6.9798,6.9798,6.9893,7.0223,7.0363,7.041,7.0653,7.0606,7.036,7.0351,7.0175,6.9898,6.9798,6.9798,6.9798,6.9798,6.9798,6.9798,6.9798,6.9798,6.9798,6.9798,6.9798,6.9798,6.9798,6.9798,6.9798,6.9798,6.9798,6.9798,6.9798,6.9798,6.9846,6.9952,7.02,7.0434,7.0608,7.0767,7.087,7.0641,7.0398,7.0156,6.9791,6.921,6.875,6.791,6.7534,6.7059,6.6441,6.5712,6.4951,6.4045,6.3258,6.2761,6.2469,6.2366,6.2297,6.23,6.211,6.1886,6.1316,6.0733,6.0709,5.9716,5.8981,5.8758,5.8419,5.8192,5.7994,5.7727,5.7774,5.7684,5.7391,5.7229,5.6837,5.6392,5.5483,5.4725,5.4332,5.379,5.3591,5.3792,5.4107,5.4435,5.4864,5.5197,5.5436,5.5918,5.6382,5.6671,5.7002,5.7306,5.7768,5.7536,5.7555,5.8019,5.8125,5.814,5.8456,5.9006,5.9092,5.8931,5.903,5.9154,5.9554,6.0003,6.0955,6.1932,6.3014,6.3886,6.9798,6.9798,6.9798,6.9798,6.981,6.9869,6.9905,6.9964,7.0388,7.0491,7.0386,7.0594,7.0556,7.0395,7.0457,7.0196,6.9798,6.9798,6.9798,6.9798,6.9798,6.9798,6.9798,6.9798,6.9798,6.9798,6.9798,6.9798,6.9798,6.9798,6.9798,6.9798,6.9798,6.9798,6.9798,6.9798,6.9798,6.9822,7.0047,7.0246,7.041,7.0433,7.0549,7.0549,7.0398,7.0153,7.007,6.9896,6.9424,6.9147,6.8717,6.8274,6.7832,6.6938,6.6264,6.5613,6.4929,6.4475,6.3972,6.3542,6.3066,6.2667,6.228,6.19,6.1703,6.111,6.0802,6.0903,6.0091,5.9625,5.9412,5.9219,5.884,5.8717,5.8711,5.8863,5.8782,5.8219,5.7693,5.7282,5.6894,5.65,5.5928,5.5719,5.5339,5.4904,5.5029,5.5389,5.5636,5.5949,5.6162,5.6384,5.6713,5.711,5.7288,5.7611,5.7958,5.8146,5.7921,5.8124,5.878,5.8968,5.8935,5.9415,6.0001,6.0146,6.0072,6.0139,6.0267,6.0752,6.1331,6.2148,6.3152,6.4303,6.5199,6.9798,6.9798,6.9798,6.9798,6.9822,7.0059,7.0153,7.0164,7.0653,7.0676,7.0434,7.0395,7.0538,7.059,7.0277,7.0042,6.9798,6.9798,6.9798,6.9798,6.9798,6.9798,6.9798,6.9798,6.9798,6.9798,6.9798,6.9798,6.9798,6.9798,6.9798,6.9798,6.9798,6.9798,6.9798,6.9798,6.9798,6.9858,7.0059,7.0176,7.0235,7.0235,7.027,7.0258,7.0211,7.0082,6.9858,6.981,6.9765,6.9545,6.9147,6.8882,6.8473,6.7368,6.6628,6.633,6.558,6.5227,6.496,6.4225,6.3364,6.2788,6.2248,6.1826,6.1755,6.1509,6.1324,6.1237,6.0569,6.0115,5.9789,5.945,5.9371,5.9394,5.9496,5.9457,5.9259,5.8621,5.8124,5.7736,5.7461,5.7263,5.7298,5.7156,5.6873,5.6439,5.6441,5.6795,5.6779,5.6991,5.7178,5.7408,5.7611,5.7848,5.7915,5.8254,5.8761,5.8976,5.889,5.9264,5.9841,5.9881,5.9775,6.0309,6.083,6.1057,6.1153,6.1003,6.1165,6.1901,6.2613,6.3211,6.4476,6.5884,6.6447,6.9798,6.9798,6.9798,6.9798,6.9822,7.007,7.0188,7.027,7.0687,7.0756,7.0502,7.0562,7.0457,7.0319,7.0539,7.0208,6.9843,6.9798,6.9798,6.9798,6.9798,6.9798,6.9798,6.9798,6.9798,6.9798,6.9798,6.9798,6.9798,6.9798,6.9798,6.9798,6.9798,6.9798,6.9798,6.981,6.981,6.9869,7.0047,7.0176,7.0188,7.0188,7.0188,7.0188,7.0,6.9929,6.9822,6.9798,6.9798,6.9732,6.9467,6.9368,6.9081,6.7865,6.7224,6.696,6.6065,6.5569,6.5437,6.4705,6.3847,6.2757,6.226,6.202,6.2029,6.1594,6.1596,6.1422,6.1192,6.0721,6.0589,6.0423,6.0357,6.0291,6.0191,6.0125,5.9794,5.9198,5.8886,5.8664,5.8519,5.833,5.8485,5.8617,5.8311,5.8012,5.8105,5.8112,5.8045,5.7974,5.8143,5.822,5.8423,5.8558,5.8626,5.909,5.9665,5.9768,5.9861,6.029,6.0719,6.0642,6.068,6.1235,6.1579,6.1738,6.1772,6.167,6.1916,6.2404,6.3174,6.3989,6.5507,6.7266,6.7663,6.9798,6.9798,6.9798,6.9846,6.9952,7.0176,7.034,7.0456,7.0756,7.0844,7.0699,7.0652,7.0461,7.0295,7.0295,7.0295,6.9864,6.9798,6.9798,6.9798,6.9798,6.9798,6.9798,6.9798,6.9798,6.9798,6.9798,6.9798,6.9798,6.9798,6.9798,6.9798,6.9798,6.9798,6.9822,6.9881,6.9881,6.9881,7.0035,7.0117,7.0094,7.0059,7.0059,7.0047,6.9905,6.9834,6.981,6.9798,6.9798,6.9798,6.9732,6.9765,6.9268,6.8594,6.7754,6.7125,6.6363,6.5481,6.5293,6.4818,6.4173,6.3354,6.2792,6.2618,6.2366,6.2057,6.2265,6.2398,6.1902,6.1417,6.1384,6.1152,6.091,6.0711,6.0744,6.0678,6.0479,6.0059,5.9881,5.9692,5.9411,5.9036,5.9685,5.9847,5.9724,5.9348,5.9078,5.9089,5.9111,5.9056,5.9056,5.909,5.9133,5.9225,5.9361,5.9969,6.0477,6.0636,6.0782,6.1129,6.139,6.1384,6.1475,6.1815,6.212,6.2357,6.2391,6.2313,6.2508,6.2745,6.3864,6.5207,6.6399,6.7952,6.8534,6.981,6.9798,6.9822,6.9964,7.0211,7.0388,7.0641,7.079,7.0836,7.0965,7.0944,7.0315,7.0229,7.0461,7.0175,6.9931,6.9864,6.9798,6.9798,6.9798,6.9798,6.9798,6.9831,6.9864,7.003,6.9843,7.0175,7.0361,6.9898,7.0163,7.0063,6.9798,6.9798,6.9798,6.9834,7.0047,7.0035,6.9881,7.0059,7.0,6.9905,6.9869,6.9869,6.9858,6.9834,6.9798,6.9798,6.9798,6.9798,6.9798,6.9798,6.9798,6.9633,6.8495,6.7787,6.7489,6.6231,6.5547,6.5359,6.4785,6.4376,6.4066,6.347,6.3305,6.3261,6.3161,6.3095,6.3172,6.2631,6.22,6.1935,6.1693,6.1483,6.1307,6.134,6.1351,6.1185,6.0997,6.0775,6.0738,6.004,5.9561,6.0455,6.1016,6.099,6.0675,6.0203,6.0076,6.0139,6.0047,5.9936,5.9776,5.9776,6.0003,6.024,6.0849,6.1289,6.1424,6.1661,6.1955,6.2226,6.2389,6.2467,6.256,6.2797,6.3125,6.3091,6.299,6.3363,6.3867,6.5371,6.6685,6.7752,6.853,6.9099,6.9905,7.0059,7.0059,7.0293,7.0618,7.0527,7.0642,7.0836,7.0722,7.0647,7.0476,6.9983,6.9898,7.003,6.9997,6.9798,6.9798,6.9798,6.9798,6.9798,6.9831,6.9798,6.9898,7.0262,7.0494,7.0825,7.1189,7.1156,7.056,7.0759,7.0428,7.0096,6.9798,6.9798,6.9822,6.9905,6.9858,6.9834,6.9881,6.9881,6.981,6.9798,6.9798,6.9798,6.9798,6.9798,6.9798,6.9798,6.9798,6.9798,6.9798,6.9798,6.9666,6.8672,6.8097,6.7589,6.6529,6.5911,6.558,6.5127,6.4829,6.4542,6.4211,6.4056,6.4023,6.3526,6.3625,6.3758,6.3327,6.283,6.2211,6.2565,6.2498,6.2123,6.2101,6.2167,6.2068,6.1836,6.1668,6.1785,6.1401,6.1686,6.2351,6.2539,6.2491,6.2368,6.196,6.1235,6.1119,6.0892,6.0723,6.0419,6.0385,6.0689,6.1086,6.1694,6.2303,6.2642,6.2642,6.2709,6.2956,6.3226,6.3429,6.3531,6.37,6.3869,6.3903,6.4027,6.4478,6.5223,6.6263,6.7332,6.823,6.8959,6.9595,7.0035,7.0188,7.0281,7.0526,7.0848,7.0733,7.0688,7.0711,7.0561,7.033,7.0059,6.9869,6.9798,6.9798,6.9798,6.9798,6.9798,6.9798,6.9798,6.9831,7.0129,7.003,7.0163,7.0726,7.0991,7.1376,7.1852,7.1985,7.0891,7.1355,7.0858,7.003,6.9798,6.9798,6.981,6.981,6.981,6.981,6.9834,6.9822,6.9798,6.9798,6.9798,6.9798,6.9798,6.9798,6.9798,6.9798,6.9798,6.9798,6.9798,6.9798,6.9566,6.9103,6.8374,6.7633,6.6628,6.6209,6.6176,6.5878,6.5712,6.5712,6.5127,6.4763,6.4708,6.4409,6.4443,6.4409,6.4012,6.3559,6.3139,6.3526,6.3161,6.2797,6.2861,6.2927,6.2839,6.2574,6.2647,6.2765,6.3066,6.3557,6.3946,6.4104,6.4056,6.3917,6.3734,6.2956,6.2144,6.1849,6.168,6.1443,6.1342,6.1714,6.2076,6.2506,6.3115,6.3758,6.37,6.3497,6.3734,6.4005,6.4275,6.4478,6.441,6.4478,6.4816,6.5115,6.5473,6.5852,6.6429,6.749,6.8585,6.9088,6.9493,7.0176,7.0223,7.0411,7.0654,7.0893,7.0882,7.0756,7.0504,7.0504,7.0236,6.9822,6.9822,6.9798,6.9798,6.9798,6.9798,6.9798,6.9798,6.9798,6.9997,7.0394,7.0229,7.0494,7.1223,7.1521,7.1488,7.1819,7.2316,7.109,7.0825,7.0428,6.9964,6.9798,6.9798,6.9798,6.9798,6.9798,6.9798,6.9798,6.9798,6.9798,6.9798,6.9798,6.9798,6.9798,6.9798,6.9798,6.9798,6.9798,6.9798,6.9798,6.9798,6.9566,6.9114,6.8407,6.7534,6.6375,6.664,6.6993,6.6695,6.6794,6.6772,6.6176,6.5712,6.5481,6.5447,6.5348,6.5149,6.4785,6.4498,6.4277,6.3912,6.3592,6.3557,6.3643,6.3599,6.3501,6.3488,6.3594,6.3798,6.4099,6.4478,6.4777,6.4981,6.5134,6.5053,6.4783,6.4309,6.3541,6.2928,6.2759,6.2695,6.2671,6.284,6.3169,6.3429,6.3903,6.4512,6.441,6.4275,6.4546,6.4806,6.4986,6.5087,6.4918,6.5222,6.6136,6.6406,6.6391,6.6787,6.7306,6.7432,6.8448,6.8437,6.8752,7.0281,7.0456,7.0654,7.0927,7.1143,7.0973,7.0767,7.0515,7.0492,7.0225,6.9798,6.9798,6.9798,6.9798,6.9798,6.9798,6.9798,6.9798,6.9798,7.0096,7.0593,7.0328,7.0726,7.1587,7.2018,7.225,7.2494,7.2581,7.1587,7.0837,7.0129,6.9831,6.9798,6.9798,6.9798,6.9798,6.9798,6.9798,6.9798,6.9798,6.9798,6.9798,6.9798,6.9798,6.9798,6.9798,6.9798,6.9798,6.9798,6.9798,6.9798,6.9798,6.9732,6.9578,6.9181,6.844,6.76,6.7224,6.7489,6.7423,6.7456,6.7688,6.7191,6.7092,6.686,6.6529,6.6231,6.5834,6.5481,6.5116,6.4862,6.4564,6.4277,6.4232,6.4408,6.4573,6.4463,6.4327,6.4477,6.4832,6.5112,6.543,6.5707,6.5829,6.5972,6.5946,6.5753,6.5371,6.4793,6.4089,6.3679,6.3581,6.3632,6.3734,6.4015,6.4241,6.4715,6.5121,6.5087,6.5256,6.573,6.5933,6.5831,6.5933,6.6203,6.7015,6.8064,6.7996,6.7557,6.803,6.8495,6.8289,6.8137,6.827,6.8458,7.0398,7.0538,7.0905,7.1075,7.1109,7.0859,7.0618,7.0421,7.0398,7.0164,6.9822,6.9798,6.9798,6.9798,6.9798,6.9798,6.9798,6.9798,6.9798,7.003,7.0792,7.0473,7.0903,7.1786,7.215,7.2415,7.2428,7.2428,7.1533,7.056,6.9798,6.9798,6.9798,6.9798,6.9798,6.9798,6.9798,6.9798,6.9798,6.9798,6.9798,6.9798,6.9798,6.9798,6.9798,6.9798,6.9798,6.9798,6.9798,6.9798,6.9798,6.9798,6.9699,6.9545,6.9545,6.8804,6.8064,6.8052,6.8362,6.8196,6.823,6.8362,6.8417,6.8461,6.8064,6.7633,6.6993,6.6397,6.5999,6.5668,6.5481,6.5249,6.5061,6.4873,6.5249,6.5625,6.547,6.5235,6.5461,6.5793,6.612,6.6441,6.6639,6.6696,6.6698,6.6475,6.643,6.6363,6.5647,6.4823,6.44,6.4217,6.4339,6.4492,6.485,6.5311,6.5764,6.6102,6.6024,6.6294,6.6869,6.6869,6.6609,6.7117,6.7749,6.8459,6.9,6.8977,6.8774,6.918,6.9282,6.8948,6.8635,6.8538,6.8751,7.0504,7.0538,7.1041,7.112,7.0882,7.063,7.0386,7.0221,7.0176,7.0023,6.9822,6.9798,6.9798,6.9798,6.9798,6.9798,6.9798,6.9798,6.9798,6.9876,7.0991,7.0891,7.0726,7.174,7.1972,7.1587,7.1388,7.1686,7.0903,7.0163,6.9798,6.9798,6.9798,6.9798,6.9798,6.9798,6.9798,6.9798,6.9798,6.9798,6.9798,6.9798,6.9798,6.9798,6.9798,6.9798,6.9798,6.9798,6.9798,6.9798,6.9798,6.9798,6.9599,6.9368,6.9401,6.9268,6.8627,6.8771,6.9069,6.9003,6.9136,6.9401,6.9765,6.9533,6.9003,6.8329,6.76,6.7191,6.6838,6.6496,6.6231,6.6264,6.6176,6.6099,6.6288,6.6466,6.6379,6.6179,6.6171,6.6363,6.6282,6.6569,6.6612,6.6624,6.6677,6.6677,6.6845,6.6912,6.6748,6.5837,6.5531,6.5267,6.5506,6.586,6.6289,6.6706,6.6958,6.7117,6.7072,6.7275,6.7817,6.7681,6.7343,6.8053,6.8876,6.9147,6.9474,6.962,6.9755,6.9722,6.9722,6.9451,6.9259,6.9213,6.9002,7.0504,7.0527,7.0859,7.095,7.0848,7.0444,7.0235,7.0164,6.9976,6.9869,6.981,6.9798,6.9798,6.9798,6.9798,6.9798,6.9798,6.9798,6.9798,7.003,7.0858,7.0825,7.0229,7.1388,7.1575,7.1244,7.0991,7.0825,7.0262,6.9898,6.9798,6.9798,6.9798,6.9798,6.9798,6.9798,6.9798,6.9798,6.9798,6.9798,6.9798,6.9798,6.9798,6.9798,6.9798,6.9798,6.9798,6.9798,6.9798,6.9798,6.9798,6.9798,6.9765,6.9599,6.9644,6.9666,6.9368,6.9434,6.95,6.9566,6.9599,6.9666,6.9798,6.9798,6.9467,6.8837,6.8341,6.8031,6.77,6.7324,6.7081,6.7191,6.7224,6.7226,6.7271,6.7252,6.7276,6.709,6.6884,6.6725,6.6533,6.6531,6.6641,6.6634,6.6605,6.6775,6.7009,6.7254,6.772,6.7389,6.7252,6.7047,6.7137,6.742,6.7738,6.7912,6.8052,6.8267,6.829,6.8527,6.8741,6.8605,6.8504,6.9214,6.9891,7.006,7.0286,7.0725,7.0759,7.0489,7.0421,7.0252,7.0387,7.0432,6.9857,7.0399,7.0515,7.0642,7.0676,7.0526,7.0176,7.0023,6.9988,6.9858,6.9798,6.9798,6.9798,6.9798,6.9798,6.9798,6.9798,6.9798,6.9798,6.9798,7.003,7.0361,7.0361,7.0626,7.0924,7.0759,7.056,7.0428,7.0163,6.9831,6.9798,6.9798,6.9798,6.9798,6.9798,6.9798,6.9798,6.9798,6.9798,6.9798,6.9798,6.9798,6.9798,6.9798,6.9798,6.9798,6.9798,6.9798,6.9798,6.9798,6.9798,6.9798,6.9798,6.9798,6.9732,6.9765,6.9798,6.9732,6.9798,6.9798,6.9798,6.9798,6.9798,6.9798,6.9798,6.981,6.9214,6.8871,6.8572,6.8341,6.7965,6.7688,6.7655,6.7622,6.7579,6.7802,6.7982,6.7832,6.7591,6.758,6.759,6.7466,6.7478,6.7512,6.7413,6.7402,6.7502,6.7669,6.7703,6.8149,6.8596,6.857,6.8565,6.8458,6.8449,6.8526,6.8745,6.8954,6.918,6.9406,6.918,6.9079,6.9417,6.9733,7.0105,7.0432,7.0793,7.1097,7.1255,7.1289,7.0996,7.1064,7.1131,7.1289,7.1289,7.0759,7.0328,7.0481,7.0469,7.0375,7.0164,6.9917,6.981,6.981,6.9798,6.9798,6.9798,6.9798,6.9798,6.9798,6.9798,6.9798,6.9798,6.9798,6.9798,6.9964,7.0394,7.0196,7.0196,7.0394,7.0262,7.0096,6.9931,6.9898,6.9798,6.9798,6.9798,6.9798,6.9798,6.9798,6.9798,6.9798,6.9798,6.9798,6.9798,6.9798,6.9798,6.9798,6.9798,6.9798,6.9798,6.9798,6.9798,6.9798,6.9798,6.9798,6.9798,6.9798,6.9798,6.9798,6.9798,6.9798,6.9798,6.9798,6.9798,6.9798,6.9798,6.9798,6.9798,6.9798,6.981,6.9644,6.9346,6.9147,6.8904,6.8705,6.8407,6.8263,6.8163,6.8163,6.8465,6.8633,6.8396,6.8123,6.8181,6.8283,6.8205,6.8171,6.8148,6.8057,6.8111,6.821,6.8332,6.842,6.8588,6.8991,6.9207,6.9255,6.9267,6.9278,6.9413,6.9591,6.9846,7.0015,7.0117,6.9688,6.9519,7.0026,7.0364,7.0432,7.0804,7.1097,7.1199,7.1289,7.1289,7.1289,7.1289,7.1289,7.1289,7.1289,7.1289,7.0328,7.0481,7.034,7.0223,7.0141,6.9884,6.9798,6.9798,6.9765,6.9798,6.9798,6.9798,6.9798,6.9798,6.9798,6.9798,6.9798,6.9798,6.9798,6.9898,7.0063,6.9931,6.9898,7.0063,6.9931,6.9831,6.9798,6.9798,6.9798,6.9798,6.9798,6.9798,6.9798,6.9798,6.9798,6.9798,6.9798,6.9798,6.9798,6.9798,6.9798,6.9798,6.9798,6.9798,6.9798,6.9798,6.9798,6.9798,6.9798,6.9798,6.9798,6.9798,6.9798,6.9798,6.9798,6.9798,6.9798,6.9798,6.9798,6.9798,6.9798,6.9798,6.9798,6.9798,6.9798,6.9798,6.9599,6.9599,6.9434,6.9434,6.9268,6.9268,6.9202,6.9202,6.9403,6.9223,6.896,6.8734,6.8617,6.8431,6.8198,6.8243,6.8267,6.8241,6.8302,6.8457,6.8712,6.8833,6.921,6.9521,6.9789,6.9855,6.993,7.0308,7.0513,7.0546,7.0759,7.0894,7.0894,7.0522,7.0455,7.0861,7.1097,7.0939,7.0962,7.1233,7.1289,7.1289,7.1289,7.1289,7.1289,7.1289,7.1289,7.1289,7.1289]},{"header":{"parameterUnit":"m.s-1","parameterCategory":1,"la1":31.0,"la2":29.5877,"lo1":-88.7671,"lo2":-86.6584,"dy":0.0162,"dx":0.0185,"nx":115,"ny":88,"refTime":"2023-03-14T06:00:00:Z","depth":0,"parameterNumber":3,"parameterNumberName":"V-component_of_WINDS"},"data":[0.0,0.0,0.0,0.0,0.0,0.0,0.0,0.0,0.0,0.0,0.0,0.0,0.0,0.0,0.0,0.0,0.0,0.0,0.0,0.0,0.0,0.0,0.0,0.0,0.0,0.0,0.0,0.0,0.0,0.0,0.0,0.0,0.0,0.0,0.0,0.0,0.0,0.0,0.0,0.0,0.0,0.0,0.0,0.0,0.0,0.0,0.0,0.0,0.0,0.0,0.0,0.0,0.0,0.0,0.0,0.0,0.0,0.0,0.0,0.0,0.0,0.0,0.0,0.0,0.0,0.0,0.0,0.0,0.0,0.0,0.0,0.0,0.0,0.0,0.0,0.0,0.0,0.0,0.0,0.0,0.0,0.0,0.0,0.0,0.0,0.0,0.0,0.0,0.0,0.0,0.0,0.0,0.0,0.0,0.0,0.0,0.0,0.0,0.0,0.0,0.0,0.0,0.0,0.0,0.0,0.0,0.0,0.0,0.0,0.0,0.0,0.0,0.0,0.0,0.0,0.0,0.0,0.0,0.0,0.0,0.0,0.0,0.0,0.0,0.0,0.0,0.0,0.0,0.0,0.0,0.0,0.0,0.0,0.0,0.0,0.0,0.0,0.0,0.0,0.0,0.0,0.0,0.0,0.0,0.0,0.0,0.0,0.0,0.0,0.0,0.0,0.0,0.0,0.0,0.0,0.0,0.0,0.0,0.0,0.0,0.0,0.0,0.0,0.0,0.0,0.0,0.0,0.0,0.0,0.0,0.0,0.0,0.0,0.0,0.0,0.0,0.0,0.0,0.0,0.0,0.0,0.0,0.0,0.0,0.0,0.0,0.0,0.0,0.0,0.0,0.0,0.0,0.0,0.0,0.0,0.0,0.0,0.0,0.0,0.0,0.0,0.0,0.0,0.0,0.0,0.0,0.0,0.0,0.0,0.0,0.0,0.0,0.0,0.0,0.0,0.0,0.0,0.0,0.0,0.0,0.0,0.0,0.0,0.0,0.0,0.0,0.0,0.0,0.0,0.0,0.0,0.0,0.0,0.0,0.0,0.0,0.0,0.0,0.0,0.0,0.0,0.0,0.0,0.0,0.0,0.0,0.0,0.0,0.0,0.0,0.0,0.0,0.0,0.0,0.0,0.0,0.0,0.0,0.0,0.0,0.0,0.0,0.0,0.0,0.0,0.0,0.0,0.0,0.0,0.0,0.0,0.0,0.0,0.0,0.0,0.0,0.0,0.0,0.0,0.0,0.0,0.0,0.0,0.0,0.0,0.0,0.0,0.0,0.0,0.0,0.0,0.0,0.0,0.0,0.0,0.0,0.0,0.0,0.0,0.0,0.0,0.0,0.0,0.0,0.0,0.0,0.0,0.0,0.0,0.0,0.0,0.0,0.0,0.0,0.0,0.0,0.0,0.0,0.0,0.0,0.0,0.0,0.0,0.0,0.0,0.0,0.0,0.0,0.0,0.0,0.0,0.0,0.0,0.0,0.0,0.0,0.0,0.0,0.0,0.0,0.0,0.0,0.0,0.0,0.0,0.0,0.0,0.0,0.0,0.0,0.0,0.0,0.0,0.0,0.0,0.0,0.0,0.0,0.0,0.0,0.0,0.0,0.0,0.0,0.0,0.0,0.0,0.0,0.0,0.0,0.0,0.0,0.0,0.0,0.0,0.0,0.0,0.0,0.0,0.0,0.0,0.0,0.0,0.0,0.0,0.0,0.0,0.0,0.0,0.0,0.0,0.0,0.0,0.0,0.0,0.0,0.0,0.0,0.0,0.0,0.0,0.0,0.0,0.0,0.0,0.0,0.0,0.0,0.0,0.0,0.0,0.0,0.0,0.0,0.0,0.0,0.0,0.0,0.0,0.0,0.0,0.0,0.0,0.0,0.0,0.0,0.0,0.0,0.0,0.0,0.0,0.0,0.0,0.0,0.0,0.0,0.0,0.0,0.0,0.0,0.0,0.0,0.0,0.0,0.0,0.0,0.0,0.0,0.0,0.0,0.0,0.0,0.0,0.0,0.0,0.0,0.0,0.0,0.0,0.0,0.0,0.0,0.0,0.0,0.0,0.0,0.0,0.0,0.0,0.0,0.0,0.0,0.0,0.0,0.0,0.0,0.0,0.0,0.0,0.0,0.0,0.0,0.0,0.0,0.0,0.0,0.0,0.0,0.0,0.0,0.0,0.0,0.0,0.0,0.0,0.0,0.0,0.0,0.0,0.0,0.0,0.0,0.0,0.0,0.0,0.0,0.0,0.0,0.0,0.0,0.0,0.0,0.0,0.0,0.0,0.0,0.0,0.0,0.0,0.0,0.0,0.0,0.0,0.0,0.0,0.0,0.0,0.0,0.0,0.0,0.0,0.0,0.0,0.0,0.0,0.0,0.0,0.0,0.0,0.0,0.0,0.0,0.0,0.0,0.0,0.0,0.0,0.0,0.0,0.0,0.0,0.0,0.0,0.0,0.0,0.0,0.0,0.0,0.0,0.0,0.0,0.0,0.0,0.0,0.0,0.0,0.0,0.0,0.0,0.0,0.0,0.0,0.0,0.0,0.0,0.0,0.0,0.0,0.0,0.0,0.0,0.0,0.0,0.0,0.0,0.0,0.0,0.0,0.0,0.0,0.0,0.0,0.0,0.0,0.0,0.0,0.0,0.0,0.0,0.0,0.0,0.0,0.0,0.0,0.0,0.0,0.0,0.0,0.0,0.0,0.0,0.0,0.0,0.0,0.0,0.0,0.0,0.0,0.0,0.0,0.0,0.0,0.0,0.0,0.0,0.0,0.0,0.0,0.0,0.0,0.0,0.0,0.0,0.0,0.0,0.0,0.0,0.0,0.0,0.0,0.0,0.0,0.0,0.0,0.0,0.0,0.0,0.0,0.0,0.0,0.0,0.0,0.0,0.0,0.0,0.0,0.0,0.0,0.0,0.0,0.0,0.0,0.0,0.0,0.0,0.0,0.0,0.0,0.0,0.0,0.0,0.0,0.0,0.0,0.0,0.0,0.0,0.0,0.0,0.0,0.0,0.0,0.0,0.0,0.0,0.0,0.0,0.0,0.0,0.0,0.0,0.0,0.0,0.0,0.0,0.0,0.0,0.0,0.0,0.0,0.0,0.0,0.0,0.0,0.0,0.0,0.0,0.0,0.0,0.0,0.0,0.0,0.0,0.0,0.0,0.0,0.0,0.0,0.0,0.0,0.0,0.0,0.0,0.0,0.0,0.0,0.0,0.0,0.0,0.0,0.0,0.0,0.0,0.0,0.0,0.0,0.0,0.0,0.0,0.0,0.0,0.0,0.0,0.0,0.0,0.0,0.0,0.0,0.0,0.0,0.0,0.0,0.0,0.0,0.0,0.0,0.0,0.0,0.0,0.0,0.0,0.0,0.0,0.0,0.0,0.0,0.0,0.0,0.0,0.0,0.0,0.0,0.0,0.0,0.0,0.0,0.0,0.0,0.0,0.0,0.0,0.0,0.0,0.0,0.0,0.0,0.0,0.0,0.0,0.0,0.0,0.0,0.0,0.0,0.0,0.0,0.0,0.0,0.0,0.0,0.0,0.0,0.0,0.0,0.0,0.0,0.0,0.0,0.0,0.0,0.0,0.0,0.0,0.0,0.0,0.0,0.0,0.0,0.0,0.0,0.0,0.0,0.0,0.0,0.0,0.0,0.0,0.0,0.0,0.0,0.0,0.0,0.0,0.0,0.0,0.0,0.0,0.0,0.0,0.0,0.0,0.0,0.0,0.0,0.0,0.0,0.0,0.0,0.0,0.0,0.0,0.0,0.0,0.0,0.0,0.0,0.0,0.0,0.0,0.0,0.0,0.0,0.0,0.0,0.0,0.0,0.0,0.0,0.0,0.0,0.0,0.0,0.0,0.0,0.0,0.0,0.0,0.0,0.0,0.0,0.0,0.0,0.0,0.0,0.0,0.0,0.0,0.0,0.0,0.0,0.0,0.0,0.0,0.0,0.0,0.0,0.0,0.0,0.0,0.0,0.0,0.0,0.0,0.0,0.0,0.0,0.0,0.0,0.0,0.0,0.0,0.0,0.0,0.0,0.0,0.0,0.0,0.0,0.0,0.0,0.0,0.0,0.0,0.0,0.0,0.0,0.0,0.0,0.0,0.0,0.0,0.0,0.0,0.0,0.0,0.0,0.0,0.0,0.0,0.0,0.0,0.0,0.0,0.0,0.0,0.0,0.0,0.0,0.0,0.0,0.0,0.0,0.0,0.0,0.0,0.0,0.0,0.0,0.0,0.0,0.0,0.0,0.0,0.0,0.0,0.0,0.6295,0.0,0.0,0.0,0.0,0.0,0.0,0.0,0.0,0.0,0.0,0.0,0.0,0.0,0.0,0.0,0.0,0.0,0.0,0.0,0.0,0.0,0.0,0.0,0.0,0.0,0.0,0.0,0.0,0.0,0.0,0.0,0.0,0.0,0.0,0.0,0.0,0.0,0.0,0.0,0.0,0.0,0.0,0.0,0.0,0.0,0.0,0.0,0.0,0.0,0.0,0.0,0.0,0.0,0.0,0.0,0.0,0.0,0.0,0.0,0.0,0.0,0.0,0.0,0.0,0.0,0.0,0.0,0.0,0.0,0.0,0.0,0.0,0.0,0.0,0.0,0.0,0.0,0.0,0.0,0.0,0.0,0.0,0.0,0.0,0.0,0.0,0.0,0.0,0.0,0.0,0.0,0.0,0.0,0.0,0.0,0.0,0.0,0.0,0.0,0.0,0.0,0.0,0.0,0.0,0.0,0.0,0.0,0.0,0.0,0.0,0.6685,0.6965,0.664,0.6656,0.7056,0.0,0.0,0.0,0.0,0.0,0.0,0.0,0.0,0.0,0.0,0.0,0.0,0.0,0.0,0.0,0.0,0.0,0.0,0.0,0.0,0.0,0.0,0.0,0.0,0.0,0.0,0.0,0.0,0.0,0.0,0.0,0.0,0.0,0.0,0.0,0.0,0.0,0.0,0.0,0.0,0.0,0.0,0.0,0.0,0.0,0.0,0.0,0.0,0.0,0.0,0.0,0.0,0.0,0.0,0.0,0.0,0.0,0.0,0.0,0.0,0.0,0.0,0.0,0.0,0.0,0.0,0.0,0.0,0.0,0.0,0.0,0.0,0.0,0.0,0.0,0.0,0.0,0.0,0.0,0.0,0.0,0.0,0.0,0.0,0.0,0.0,0.0,0.0,0.0,0.0,0.0,0.0,0.0,0.0,0.0,0.0,0.0,0.0,0.0,0.0,0.0,0.0,0.0,0.0,0.0,0.0,0.0,0.0,0.0,0.0,0.0,0.0,0.6883,0.7072,0.7861,0.0,0.0,0.0,0.0,0.0,0.0,0.0,0.0,0.0,0.0,0.0,0.0,0.0,0.0,0.0,0.0,0.0,0.0,0.0,0.0,0.0,0.0,0.0,0.0,0.0,0.0,0.0,0.0,0.0,0.0,0.0,0.0,0.0,0.0,0.0,0.0,0.0,0.0,0.0,0.0,0.0,0.0,0.0,0.0,0.0,0.0,0.0,0.0,0.0,0.0,0.0,0.0,0.0,0.0,0.0,0.0,0.0,0.0,0.0,0.0,0.0,0.0,0.0,0.0,0.0,0.0,0.0,0.0,0.0,0.0,0.0,0.0,0.0,0.0,0.0,0.0,0.0,0.0,0.0,0.0,0.0,0.0,0.0,0.0,0.0,0.0,0.0,0.0,0.0,0.0,0.0,0.0,0.0,0.0,0.0,0.0,0.0,0.0,0.0,0.0,0.0,0.0,0.0,0.0,0.0,0.0,0.0,0.0,0.0,0.0,0.6672,0.7179,0.6895,0.0,0.8353,0.0,0.0,0.0,0.0,0.0,0.0,0.0,0.0,0.0,0.0,0.0,0.0,0.0,0.0,0.0,0.0,0.0,0.0,0.0,0.0,0.0,0.0,0.0,0.0,0.0,0.0,0.0,0.0,0.0,0.0,0.0,0.0,0.0,0.0,0.0,0.0,0.0,0.0,0.0,0.0,0.0,0.0,0.0,0.0,0.0,0.0,0.0,0.0,0.0,0.0,0.0,0.0,0.0,0.0,0.0,0.0,0.0,0.0,0.0,0.0,0.0,0.0,0.0,0.0,0.0,0.0,0.0,0.0,0.0,0.0,0.0,0.0,0.0,0.0,0.0,0.0,0.0,0.0,0.0,0.0,0.0,0.0,0.0,0.0,0.0,0.0,0.0,0.0,0.0,0.0,0.0,0.0,0.0,0.0,0.0,0.0,0.0,0.0,0.0,0.0,0.0,0.0,0.0,0.0,0.0,0.0,0.0,0.0,0.0,0.0,0.7331,0.7671,0.7626,0.7936,0.0,0.0,0.0,0.0,0.0,0.0,0.0,0.0,0.0,0.0,0.0,0.0,0.0,0.0,0.0,0.0,0.0,0.0,0.0,0.0,0.0,0.0,0.0,0.0,0.0,0.0,0.0,0.0,0.0,0.0,0.0,0.0,0.0,0.0,0.0,0.0,0.0,0.0,0.0,0.0,0.0,0.0,0.0,0.0,0.0,0.0,0.0,0.0,0.0,0.0,0.0,0.0,0.0,0.0,0.0,0.0,0.0,0.0,0.0,0.0,0.0,0.0,0.0,0.0,0.0,0.0,0.0,0.0,0.0,0.0,0.0,0.0,0.0,0.0,0.0,0.0,0.0,0.0,0.0,0.0,0.0,0.0,0.0,0.0,0.0,0.0,0.0,0.0,0.0,0.0,0.0,0.0,0.0,0.0,0.0,0.0,0.0,0.0,0.0,0.0,0.0,0.0,0.0,0.0,0.0,0.0,0.0,0.0,0.0,0.0,0.7637,0.7815,0.802,0.8207,0.8473,0.8837,0.0,0.0,0.0,0.0,0.0,0.0,0.0,0.0,0.0,0.0,0.0,0.0,0.0,0.0,0.0,0.0,0.0,0.0,0.0,0.0,0.0,0.0,0.0,0.0,0.0,0.0,0.0,0.0,0.0,0.0,0.0,0.0,0.0,0.0,0.0,0.0,0.0,0.0,0.0,0.0,0.0,0.0,0.0,0.0,0.0,0.0,0.0,0.0,0.0,0.0,0.0,0.0,0.0,0.0,0.0,0.0,0.0,0.0,0.0,0.0,0.0,0.0,0.0,0.0,0.0,0.0,0.0,0.0,0.0,0.0,0.0,0.0,0.0,0.0,0.0,0.0,0.0,0.0,0.0,0.0,0.0,0.0,0.0,0.0,0.0,0.0,0.0,0.0,0.0,0.0,0.0,0.0,0.0,0.0,0.0,0.0,0.0,0.0,0.0,0.0,0.0,0.0,0.0,0.0,0.0,0.0,0.0,0.0,0.7063,0.7552,0.7895,0.8097,0.842,0.8718,0.0,0.0,0.0,0.0,0.0,0.0,0.0,0.0,0.0,0.0,0.0,0.0,0.0,0.0,0.0,0.0,0.0,0.0,0.0,0.0,0.0,0.0,0.0,0.0,0.0,0.0,0.0,0.0,0.0,0.0,0.0,0.0,0.0,0.0,0.0,0.0,0.0,0.0,0.0,0.0,0.0,0.0,0.0,0.0,0.0,0.0,0.0,0.0,0.0,0.0,0.0,0.0,0.0,0.0,0.0,0.0,0.0,0.0,0.0,0.0,0.0,0.0,0.0,0.0,0.0,0.0,0.0,0.0,0.0,0.0,0.0,0.0,0.0,0.0,0.0,0.0,0.0,0.0,0.0,0.0,0.0,0.0,0.0,0.0,0.0,0.0,0.0,0.0,0.0,0.0,0.0,0.0,0.0,0.0,0.0,0.0,0.0,0.0,0.0,0.0,0.0,0.0,0.0,0.0,0.0,0.0,0.0,0.0,0.0,0.7993,0.839,0.8514,0.8441,0.8659,0.9061,0.0,0.0,0.0,0.0,0.0,0.0,0.0,0.0,0.0,0.0,0.0,0.0,0.0,0.0,0.0,0.0,0.0,0.0,0.0,0.0,0.0,0.0,0.0,0.0,0.0,0.0,0.0,0.0,0.0,0.0,0.0,0.0,0.0,0.0,0.0,0.0,0.0,0.0,0.0,0.0,0.0,0.0,0.0,0.0,0.0,0.0,0.0,0.0,0.0,0.0,0.0,0.0,0.0,0.0,0.0,0.0,0.0,0.0,0.0,0.0,0.0,0.0,0.0,0.0,0.0,0.0,0.0,0.0,0.0,0.0,0.0,0.0,0.0,0.0,0.0,0.0,0.0,0.0,0.0,0.0,0.0,0.0,0.0,0.0,0.0,0.0,0.0,0.0,0.0,0.0,0.0,0.0,0.0,0.0,0.0,0.0,0.0,0.0,0.0,0.0,0.0,0.0,0.0,0.0,0.0,0.0,0.0,0.0,0.0,0.8786,0.0,0.8933,0.9022,0.9029,0.934,0.0,0.0,0.0,0.0,0.0,0.0,0.0,0.0,0.0,0.0,0.0,0.0,0.0,0.0,0.0,0.0,0.0,0.0,0.0,0.0,0.0,0.0,0.0,0.0,0.0,0.0,0.0,0.0,0.0,0.0,0.0,0.0,0.0,0.0,0.0,0.0,0.0,0.0,0.0,0.0,0.0,0.0,0.0,0.0,0.0,0.0,0.0,0.0,0.0,0.0,0.0,0.0,0.0,0.0,0.0,0.0,0.0,0.0,0.0,0.0,0.0,0.0,0.0,0.0,0.0,0.0,0.0,0.0,0.0,0.0,0.0,0.0,0.0,0.0,0.0,0.0,0.0,0.0,0.0,0.0,0.0,0.0,0.0,0.0,0.0,0.0,0.0,0.0,0.0,0.0,0.0,0.0,0.0,0.0,0.0,0.0,0.0,0.0,0.0,0.0,0.0,0.0,0.0,0.0,0.0,0.0,0.0,0.0,0.8553,0.9265,0.8994,0.9219,0.9885,0.9581,0.9543,0.0,0.0,0.0,0.0,0.0,0.0,0.0,0.0,0.0,0.0,0.0,0.0,0.0,0.0,0.0,0.0,0.0,0.0,0.0,0.0,0.0,0.0,0.0,0.0,0.0,0.0,0.0,0.0,0.0,0.0,0.0,0.0,0.0,0.0,0.0,0.0,0.0,0.0,0.0,0.0,0.0,0.0,0.0,0.0,0.0,0.0,0.0,0.0,0.0,0.0,0.0,0.0,0.0,0.0,0.0,0.0,0.0,0.0,0.0,0.0,0.0,0.0,0.0,0.0,0.0,0.0,0.0,0.0,0.0,0.0,0.0,0.0,0.0,0.0,0.0,0.0,0.0,0.0,0.0,0.0,0.0,0.0,0.0,0.0,0.0,0.0,0.0,0.0,0.0,0.0,0.0,0.0,0.0,0.0,0.0,0.0,0.0,0.0,0.0,0.0,0.0,0.0,0.0,0.0,0.0,0.0,0.0,0.0,0.0,1.0294,1.069,1.0994,1.1132,1.1016,1.1306,0.0,0.0,0.0,0.0,0.0,0.0,0.0,0.0,0.0,0.0,0.0,0.0,0.0,0.0,0.0,0.0,0.0,0.0,0.0,0.0,0.0,0.0,0.0,0.0,0.0,0.0,0.0,0.0,0.0,0.0,0.0,0.0,0.0,0.0,0.0,0.0,0.0,0.0,0.0,0.0,0.0,0.0,0.0,0.0,0.0,0.0,0.0,0.0,0.0,0.0,0.0,0.0,0.0,0.0,0.0,0.0,0.0,0.0,0.0,0.0,0.0,0.0,0.0,0.0,0.0,0.0,0.0,0.0,0.0,0.0,0.0,0.0,0.0,0.0,0.0,0.0,0.0,0.0,0.0,0.0,0.0,0.0,0.0,0.0,0.0,0.0,0.0,0.0,0.0,0.0,0.0,0.0,0.0,0.0,0.0,0.0,0.0,0.0,0.0,0.0,0.0,0.0,0.0,0.0,0.0,0.0,0.0,0.0,0.0,1.2862,1.3033,1.3049,1.2911,1.2995,1.3118,1.3283,0.0,0.0,0.0,0.0,0.0,0.0,0.0,0.0,0.0,0.0,0.0,0.0,0.0,0.0,0.0,0.0,0.0,0.0,0.0,0.0,0.0,0.0,0.0,0.0,0.0,0.0,0.0,0.0,0.0,0.0,0.0,0.0,0.0,0.0,0.0,0.0,0.0,0.0,0.0,0.0,0.0,0.0,0.0,0.0,0.0,0.0,0.0,0.0,0.0,0.0,0.0,0.0,0.0,0.0,0.0,0.0,0.0,0.0,0.0,0.0,0.0,0.0,0.0,0.0,0.0,0.0,0.0,0.0,0.0,0.0,0.0,0.0,0.0,0.0,0.0,0.0,0.0,0.0,0.0,0.0,0.0,0.0,0.0,0.0,0.0,0.0,0.0,0.0,0.0,0.0,0.0,0.0,0.0,0.0,0.0,0.0,0.0,0.0,0.0,0.0,0.0,0.0,0.0,0.0,0.0,0.0,0.0,0.0,1.6761,1.6046,1.5533,1.5145,1.5363,1.5016,0.0,0.0,0.0,0.0,0.0,0.0,0.0,0.0,0.0,0.0,0.0,0.0,0.0,0.0,0.0,0.0,0.0,0.0,0.0,0.0,0.0,0.0,0.0,0.0,0.0,0.0,0.0,0.0,0.0,0.0,0.0,0.0,0.0,0.0,0.0,0.0,0.0,0.0,0.0,0.0,0.0,0.0,0.0,0.0,0.0,0.0,0.0,0.0,0.0,0.0,0.0,0.0,0.0,0.0,0.0,0.0,0.0,0.0,0.0,0.0,0.0,0.0,0.0,0.0,0.0,0.0,0.0,0.0,0.0,0.0,0.0,0.0,0.0,0.0,0.0,0.0,0.0,0.0,0.0,0.0,0.0,0.0,0.0,0.0,0.0,0.0,0.0,0.0,0.0,0.0,0.0,0.0,0.0,0.0,0.0,0.0,0.0,0.0,0.0,0.0,0.0,0.0,0.0,0.0,0.0,0.0,0.0,0.0,0.0,2.0073,2.099,2.025,1.7888,1.7747,1.7187,0.0,0.0,0.0,0.0,0.0,0.0,0.0,0.0,0.0,0.0,0.0,0.0,0.0,0.0,0.0,0.0,0.0,0.0,0.0,0.0,0.0,0.0,0.0,0.0,0.0,0.0,0.0,0.0,0.0,0.0,0.0,0.0,0.0,0.0,0.0,0.0,0.0,0.0,0.0,0.0,0.0,0.0,0.0,0.0,0.0,0.0,0.0,0.0,0.0,0.0,0.0,0.0,0.0,0.0,0.0,0.0,0.0,0.0,0.0,0.0,0.0,0.0,0.0,0.0,0.0,0.0,0.0,0.0,0.0,0.0,0.0,0.0,0.0,0.0,0.0,0.0,0.0,0.0,0.0,0.0,0.0,0.0,0.0,0.0,0.0,0.0,0.0,0.0,0.0,0.0,0.0,0.0,0.0,0.0,0.0,0.0,0.0,0.0,0.0,0.0,0.0,0.0,0.0,0.0,0.0,0.0,0.0,0.0,1.9366,2.2163,2.4414,2.4461,2.2133,2.0732,1.9315,0.0,0.0,0.0,0.0,0.0,0.0,0.0,0.0,0.0,0.0,0.0,0.0,0.0,0.0,0.0,0.0,0.0,0.0,0.0,0.0,0.0,0.0,0.0,0.0,0.0,0.0,0.0,0.0,0.0,0.0,0.0,0.0,0.0,0.0,0.0,0.0,0.0,0.0,0.0,0.0,0.0,0.0,0.0,0.0,0.0,0.0,0.0,0.0,0.0,0.0,0.0,0.0,0.0,0.0,0.0,0.0,0.0,0.0,0.0,0.0,0.0,0.0,0.0,0.0,0.0,0.0,0.0,0.0,0.0,0.0,0.0,0.0,0.0,0.0,0.0,0.0,0.0,0.0,0.0,0.0,0.0,0.0,0.0,0.0,0.0,0.0,0.0,0.0,0.0,0.0,0.0,0.0,0.0,0.0,0.0,0.0,0.0,0.0,0.0,0.0,0.0,0.0,0.0,0.0,0.0,0.0,0.0,0.0,2.1289,2.364,2.6725,2.7898,2.6904,2.385,2.1358,0.0,0.0,0.0,0.0,0.0,0.0,0.0,0.0,0.0,0.0,0.0,0.0,0.0,0.0,0.0,0.0,0.0,0.0,0.0,0.0,0.0,0.0,0.0,0.0,0.0,0.0,0.0,0.0,0.0,0.0,0.0,0.0,0.0,0.0,0.0,0.0,0.0,0.0,0.0,0.0,0.0,0.0,0.0,0.0,0.0,0.0,0.0,0.0,0.0,0.0,0.0,0.0,0.0,0.0,0.0,0.0,0.0,0.0,0.0,0.0,0.0,0.0,0.0,0.0,0.0,0.0,0.0,0.0,0.0,0.0,0.0,0.0,0.0,0.0,0.0,0.0,0.0,0.0,0.0,0.0,0.0,0.0,0.0,0.0,0.0,0.0,0.0,0.0,0.0,0.0,0.0,0.0,0.0,0.0,0.0,0.0,0.0,0.0,0.0,0.0,0.0,0.0,0.0,0.0,0.0,0.0,0.0,0.0,2.3312,2.6516,2.7965,2.8843,2.9188,2.5837,2.313,0.0,0.0,0.0,0.0,0.0,0.0,0.0,0.0,0.0,0.0,0.0,0.0,0.0,0.0,0.0,0.0,0.0,0.0,0.0,0.0,0.0,0.0,0.0,0.0,0.0,0.0,0.0,0.0,0.0,0.0,0.0,0.0,0.0,0.0,0.0,0.0,0.0,0.0,0.0,0.0,0.0,0.0,0.0,0.0,0.0,0.0,0.0,0.0,1.0993,0.0,0.0,0.0,0.0,0.0,0.0,0.0,0.0,0.0,0.0,0.0,0.0,0.0,0.0,0.0,0.0,0.0,0.0,0.0,0.0,0.0,0.0,0.0,0.0,0.0,0.0,0.0,0.0,0.0,0.0,0.0,0.0,0.0,0.0,0.0,0.0,0.0,0.0,0.0,0.0,0.0,0.0,0.0,0.0,0.0,0.0,0.0,0.0,0.0,0.0,0.0,0.0,0.0,0.0,0.0,0.0,0.0,0.0,0.0,2.4761,2.7787,2.9144,3.0157,3.0722,2.7469,2.4596,0.0,0.0,0.0,0.0,0.0,0.0,0.0,0.0,0.0,0.0,0.0,0.0,0.0,0.0,0.0,0.0,0.0,0.0,0.0,0.0,0.0,0.0,0.0,0.0,0.0,0.0,0.0,0.0,0.0,0.0,0.0,0.0,0.0,0.0,0.0,0.0,0.0,0.0,0.0,0.0,0.0,0.0,0.0,0.0,0.0,0.0,0.0,0.0,0.0,0.0,0.0,0.0,0.0,0.0,0.0,0.0,0.0,0.0,0.0,0.0,0.0,0.0,0.0,0.0,0.0,0.0,0.0,0.0,0.0,0.0,0.0,0.0,0.0,0.0,0.0,0.0,0.0,0.0,0.0,0.0,0.0,0.0,0.0,0.0,0.0,0.0,0.0,0.0,0.0,0.0,0.0,0.0,0.0,0.0,0.0,0.0,0.0,0.0,0.0,0.0,0.0,0.0,0.0,0.0,0.0,0.0,0.0,2.3203,2.6043,2.8736,3.0515,3.1634,3.2005,2.8935,2.6082,2.3583,0.0,0.0,0.0,0.0,0.0,0.0,0.0,0.0,0.0,0.0,0.0,0.0,0.0,0.0,0.0,0.0,0.0,0.0,0.0,0.0,0.0,0.0,0.0,0.0,0.0,0.0,0.0,0.0,0.0,0.0,0.0,0.0,0.0,0.0,0.0,0.0,0.0,0.0,0.899,0.9727,0.0,0.0,0.0,0.0,0.0,0.0,0.0,0.0,1.1911,0.0,0.0,0.0,0.0,0.0,0.0,0.0,0.0,0.0,0.0,0.0,0.0,0.0,0.0,0.0,0.0,0.0,0.0,0.0,0.0,0.0,0.0,0.0,0.0,0.0,0.0,0.0,0.0,0.0,0.0,0.0,0.0,0.0,0.0,0.0,0.0,0.0,0.0,0.0,0.0,0.0,0.0,0.0,0.0,0.0,0.0,0.0,0.0,0.0,0.0,0.0,0.0,0.0,0.0,0.0,0.0,2.2828,2.4985,2.768,3.0976,3.2562,3.3051,3.2383,3.0363,2.8001,2.5404,0.0,0.0,0.0,0.0,0.0,0.0,0.0,0.0,0.0,0.0,0.0,0.0,0.0,0.0,0.0,0.0,0.0,0.0,0.0,0.0,0.0,0.0,0.0,0.0,0.0,0.0,0.0,0.0,0.0,0.0,0.0,0.0,0.0,0.0,0.0,0.0,0.0,0.0,0.0,1.1452,1.1704,0.0,0.0,0.0,0.0,0.0,0.0,0.0,0.0,1.2705,0.0,0.0,0.0,0.0,0.0,0.0,0.0,0.0,0.0,0.0,0.0,0.0,0.0,0.0,0.0,0.0,0.0,0.0,0.0,0.0,0.0,0.0,0.0,0.0,0.0,0.0,0.0,0.0,0.0,0.0,0.0,0.0,0.0,0.0,0.0,0.0,0.0,0.0,0.0,0.0,0.0,0.0,0.0,0.0,0.0,0.0,0.0,0.0,0.0,0.0,0.0,0.0,0.0,0.0,0.0,2.3487,2.6668,2.957,3.2121,3.3846,3.4462,3.3868,3.0969,2.8617,0.0,0.0,0.0,0.0,0.0,0.0,0.0,0.0,0.0,0.0,0.0,0.0,0.0,0.0,0.0,0.0,0.0,0.0,0.0,0.0,0.0,0.0,0.0,0.0,0.0,0.0,0.0,0.0,0.0,0.0,0.0,0.0,0.0,0.0,0.0,0.0,0.0,0.0,0.0,0.0,1.2685,1.2849,1.3589,0.0,0.0,0.0,0.0,0.0,0.0,1.4185,1.4111,0.0,0.0,0.0,0.0,0.0,0.0,0.0,0.0,0.0,0.0,0.0,0.0,0.0,0.0,0.0,0.0,0.0,0.0,0.0,0.0,0.0,0.0,0.0,0.0,0.0,0.0,0.0,0.0,0.0,0.0,0.0,0.0,0.0,0.0,0.0,0.0,0.0,0.0,0.0,0.0,0.0,0.0,0.0,0.0,0.0,0.0,0.0,0.0,0.0,0.0,0.0,0.0,0.0,0.0,0.0,2.3885,2.8066,3.1104,3.2896,3.4966,3.5825,3.5251,3.1681,2.9184,0.0,0.0,0.0,0.0,0.0,0.0,0.0,0.0,0.0,0.0,0.0,0.0,0.0,0.0,0.0,0.0,0.0,0.0,0.0,0.0,0.0,0.0,0.0,0.0,0.0,0.0,0.0,0.0,0.0,0.0,0.0,0.0,0.0,0.0,0.0,0.0,0.0,0.0,0.0,0.0,0.0,1.4092,1.4801,1.356,0.0,0.0,0.0,0.0,1.513,1.5539,0.0,0.0,0.0,0.0,0.0,0.0,0.0,0.0,0.0,0.0,0.0,0.0,0.0,0.0,0.0,0.0,0.0,0.0,0.0,0.0,0.0,0.0,0.0,0.0,0.0,0.0,0.0,0.0,0.0,0.0,0.0,0.0,0.0,0.0,0.0,0.0,0.0,0.0,0.0,0.0,0.0,0.0,0.0,0.0,0.0,0.0,0.0,0.0,0.0,0.0,0.0,0.0,0.0,0.0,0.0,0.0,2.4805,2.8646,3.1626,3.3673,3.6216,3.6942,3.5656,3.3171,3.0613,0.0,0.0,0.0,0.0,0.0,0.0,0.0,0.0,0.0,0.0,0.0,0.0,0.0,0.0,0.0,0.0,0.0,0.0,0.0,0.0,0.0,0.0,0.0,0.0,0.0,0.0,0.0,0.0,0.0,0.0,0.0,0.0,0.0,0.0,0.0,0.0,0.0,0.0,0.0,0.0,0.0,1.5523,1.6259,1.5234,1.4087,0.0,0.0,0.0,1.7005,1.7375,0.0,0.0,0.0,0.0,0.0,0.0,0.0,0.0,0.0,0.0,0.0,0.0,0.0,0.0,0.0,0.0,0.0,0.0,0.0,0.0,0.0,0.0,0.0,0.0,0.0,0.0,0.0,0.0,0.0,0.0,0.0,0.0,0.0,0.0,0.0,0.0,0.0,0.0,0.0,0.0,0.0,0.0,0.0,0.0,0.0,0.0,0.0,0.0,0.0,0.0,0.0,0.0,0.0,0.0,0.0,2.2723,2.6412,3.0449,3.3431,3.5316,3.7299,3.7702,3.633,3.3427,3.0789,0.0,0.0,0.0,0.0,0.0,0.0,0.0,0.0,0.0,0.0,0.0,0.0,0.0,0.0,0.0,0.0,0.0,0.0,0.0,0.0,0.0,0.0,0.0,0.0,0.0,0.0,0.0,0.0,0.0,0.0,0.0,0.0,0.0,0.0,0.0,0.0,0.0,0.0,0.0,0.0,0.0,0.0,1.6564,1.6576,0.0,0.0,0.0,1.8852,1.9436,0.0,0.0,0.0,0.0,0.0,0.0,0.0,0.0,0.0,0.0,0.0,0.0,0.0,0.0,0.0,0.0,0.0,0.0,0.0,0.0,0.0,0.0,0.0,0.0,0.0,0.0,0.0,0.0,0.0,0.0,0.0,0.0,0.0,0.0,0.0,0.0,0.0,0.0,0.0,0.0,0.0,0.0,0.0,0.0,0.0,0.0,0.0,0.0,0.0,0.0,0.0,0.0,0.0,0.0,0.0,0.0,0.0,2.7484,3.1705,3.4749,3.6482,3.7994,3.8158,3.6788,3.3673,0.0,0.0,0.0,0.0,0.0,0.0,0.0,0.0,0.0,0.0,0.0,0.0,0.0,0.0,0.0,0.0,0.0,0.0,0.0,0.0,0.0,0.0,0.0,0.0,0.0,0.0,0.0,1.1119,0.0,0.0,0.0,0.0,0.0,0.0,0.0,0.0,0.0,0.0,0.0,0.0,0.0,0.0,1.7806,1.7185,1.7856,1.7848,0.0,0.0,2.0218,2.129,2.0173,1.8862,0.0,0.0,0.0,0.0,0.0,0.0,0.0,0.0,0.0,0.0,0.0,0.0,0.0,0.0,0.0,0.0,0.0,0.0,0.0,0.0,0.0,0.0,0.0,0.0,0.0,0.0,0.0,0.0,0.0,0.0,0.0,0.0,0.0,0.0,0.0,0.0,0.0,0.0,0.0,0.0,0.0,0.0,0.0,0.0,0.0,0.0,0.0,0.0,0.0,0.0,0.0,0.0,0.0,0.0,0.0,2.7499,3.1721,3.4749,3.6482,3.7994,3.8158,3.6809,3.4282,3.1556,0.0,0.0,0.0,0.0,0.0,0.0,0.0,0.0,0.0,0.0,0.0,0.0,0.0,0.0,0.0,0.0,0.0,0.0,0.0,0.0,0.0,0.0,0.0,0.0,0.0,0.0,0.0,0.0,0.0,0.0,0.0,0.0,0.0,0.0,0.0,0.0,0.0,0.0,0.0,0.0,0.0,1.8881,1.8758,1.9016,1.8778,0.0,0.0,2.1321,2.2018,2.1749,2.0749,1.8613,0.0,0.0,0.0,0.0,0.0,0.0,0.0,0.0,0.0,0.0,0.0,0.0,0.0,0.0,0.0,0.0,0.0,0.0,0.0,0.0,0.0,0.0,0.0,0.0,0.0,0.0,0.0,0.0,0.0,0.0,0.0,0.0,0.0,0.0,0.0,0.0,0.0,0.0,0.0,0.0,0.0,0.0,0.0,0.0,0.0,0.0,0.0,0.0,0.0,0.0,0.0,0.0,0.0,2.473,2.9058,3.2172,3.4981,3.7424,3.8119,3.7906,3.6825,3.462,3.2174,0.0,0.0,0.0,0.0,0.0,0.0,0.0,0.0,0.0,0.0,0.0,0.0,0.0,0.0,0.0,0.0,0.0,0.0,0.0,0.0,0.0,0.0,0.0,0.0,0.0,0.0,0.0,0.0,1.2335,1.2685,1.3514,0.0,0.0,0.0,0.0,0.0,0.0,0.0,0.0,0.0,0.0,1.9301,1.9436,1.9892,0.0,0.0,1.9667,2.1242,2.2076,2.1266,2.0236,1.9343,1.8582,0.0,0.0,0.0,0.0,0.0,0.0,0.0,0.0,0.0,0.0,0.0,0.0,0.0,0.0,0.0,0.0,0.0,0.0,0.0,0.0,0.0,0.0,0.0,0.0,0.0,0.0,0.0,0.0,0.0,0.0,0.0,0.0,0.0,0.0,0.0,0.0,0.0,0.0,0.0,0.0,0.0,0.0,0.0,0.0,0.0,0.0,0.0,0.0,0.0,0.0,0.0,0.0,2.5786,3.008,3.2794,3.5498,3.8154,3.8208,3.7757,3.6804,3.4856,3.2592,0.0,0.0,0.0,0.0,0.0,0.0,0.0,0.0,0.0,0.0,0.0,0.0,0.0,0.0,0.0,0.0,0.0,0.0,0.0,0.0,0.0,0.0,0.0,0.0,0.0,0.0,0.0,0.0,1.3087,1.3328,1.3596,0.0,0.0,0.0,0.0,0.0,0.0,0.0,0.0,0.0,0.0,1.9792,2.0186,2.063,2.0498,1.9332,2.0068,2.0989,2.1765,2.0922,2.0047,1.9547,0.0,0.0,0.0,0.0,0.0,0.0,0.0,0.0,0.0,0.0,0.0,0.0,0.0,0.0,0.0,0.0,0.0,0.0,0.0,0.0,0.0,0.0,0.0,0.0,0.0,0.0,0.0,0.0,0.0,0.0,0.0,0.0,0.0,0.0,0.0,0.0,0.0,0.0,0.0,0.0,0.0,0.0,0.0,0.0,0.0,0.0,0.0,0.0,0.0,0.0,0.0,0.0,0.0,0.0,3.0095,3.3498,3.6206,3.8133,3.8208,3.7773,3.6804,3.5024,3.2829,3.0059,0.0,0.0,0.0,0.0,0.0,0.0,0.0,0.0,0.0,0.0,0.0,0.0,0.0,0.0,0.0,0.0,0.0,0.0,0.0,0.0,0.0,0.0,0.0,0.0,0.0,0.0,1.4041,1.4558,1.4565,0.0,0.0,0.0,0.0,0.0,0.0,0.0,0.0,0.0,0.0,1.9498,2.0501,2.1103,2.1195,2.1203,2.1131,2.0833,2.0741,2.1118,2.1107,2.053,0.0,0.0,0.0,0.0,0.0,0.0,0.0,0.0,0.0,0.0,0.0,0.0,0.0,0.0,0.0,0.0,0.0,0.0,0.0,0.0,0.0,0.0,0.0,0.0,0.0,0.0,0.0,0.0,0.0,0.0,0.0,0.0,0.0,0.0,0.0,0.0,0.0,0.0,0.0,0.0,2.2983,2.308,0.0,0.0,0.0,0.0,0.0,0.0,0.0,0.0,0.0,0.0,0.0,0.0,2.7448,3.1017,3.3864,3.6239,3.8133,3.8208,3.7736,3.6825,3.5625,3.3021,2.8919,0.0,0.0,0.0,0.0,0.0,0.0,0.0,0.0,0.0,0.0,0.0,0.0,0.0,0.0,0.0,0.0,0.0,0.0,0.0,0.0,0.0,0.0,0.0,0.0,0.0,1.3545,0.0,0.0,0.0,0.0,0.0,0.0,0.0,0.0,0.0,0.0,0.0,1.803,1.8747,2.0217,2.1451,2.2038,2.2137,2.221,0.0,0.0,0.0,0.0,0.0,0.0,0.0,0.0,0.0,0.0,0.0,0.0,0.0,0.0,1.7111,1.5977,1.5606,1.5369,1.5124,0.0,0.0,0.0,0.0,0.0,0.0,0.0,0.0,0.0,0.0,0.0,0.0,0.0,0.0,0.0,0.0,2.2046,0.0,0.0,0.0,0.0,0.0,0.0,0.0,0.0,2.3752,2.5243,2.6483,2.6407,2.6398,0.0,2.4061,2.1891,0.0,0.0,0.0,0.0,0.0,0.0,0.0,0.0,2.8605,3.154,3.4377,3.662,3.8113,3.8208,3.7835,3.7053,3.5521,3.3006,2.9425,2.6801,2.4554,0.0,0.0,0.0,0.0,0.0,0.0,0.0,0.0,0.0,0.0,0.0,0.0,0.0,0.0,0.0,0.0,0.0,0.0,0.0,0.0,0.0,0.0,0.0,1.4423,0.0,0.0,0.0,0.0,0.0,0.0,0.0,0.0,0.0,1.6864,1.7933,1.8965,1.9824,2.0959,2.1965,2.2662,0.0,0.0,0.0,0.0,0.0,0.0,0.0,2.2014,2.1737,2.1235,2.0803,2.0734,2.0362,2.0022,1.993,0.0,0.0,1.7269,1.7003,1.6932,1.6579,1.6866,1.7224,1.7344,1.7969,1.8599,0.0,0.0,0.0,0.0,0.0,0.0,0.0,0.0,2.3219,2.3451,0.0,0.0,0.0,0.0,0.0,0.0,0.0,0.0,0.0,0.0,2.6039,2.7832,2.9355,2.8671,2.8271,2.8159,2.6186,2.4406,2.2825,1.9188,0.0,0.0,0.0,0.0,0.0,0.0,3.0301,3.1673,3.5008,3.7244,3.8167,3.8208,3.7964,3.7425,3.4895,3.2865,3.1429,2.864,2.655,2.5321,2.3476,0.0,0.0,0.0,0.0,0.0,0.0,0.0,0.0,0.0,0.0,0.0,0.0,0.0,0.0,0.0,0.0,0.0,0.0,0.0,0.0,1.5858,0.0,0.0,0.0,0.0,0.0,0.0,0.0,0.0,0.0,0.0,1.8904,1.9099,1.976,2.1498,0.0,0.0,0.0,0.0,2.3657,2.3243,2.4286,2.5062,2.5075,2.3943,2.2773,2.1914,0.0,0.0,2.1701,2.2008,2.2257,2.2549,2.2111,2.1075,1.8762,1.8946,1.924,1.872,1.9027,1.9555,1.9907,2.0539,2.1228,2.8956,0.0,0.0,0.0,0.0,2.5703,2.6922,2.8107,2.8107,2.7822,2.7307,2.6024,0.0,0.0,0.0,0.0,0.0,0.0,2.7508,2.8624,3.0903,3.2332,3.3015,3.3069,3.2817,3.2175,2.87,2.641,2.5122,2.1736,1.9655,1.8884,0.0,0.0,0.0,0.0,3.0885,3.3272,3.5597,3.726,3.8187,3.8208,3.7815,3.6995,3.5604,3.4037,3.2367,3.0684,2.9003,2.7324,2.5117,0.0,0.0,0.0,0.0,0.0,0.0,0.0,0.0,0.0,0.0,0.0,0.0,0.0,0.0,0.0,0.0,0.0,0.0,0.0,1.6944,1.713,1.6978,0.0,0.0,0.0,0.0,0.0,0.0,0.0,0.0,0.0,2.0724,2.1126,2.1647,0.0,0.0,2.3856,2.4131,2.4084,2.4131,2.4467,0.0,0.0,0.0,2.4015,2.3004,2.2736,2.2617,2.264,2.2988,2.296,2.2871,2.2944,2.2828,2.2459,2.1858,2.133,2.0828,2.0044,2.0426,2.1046,2.1206,2.1929,2.2564,3.3761,3.0607,2.8897,2.8114,2.8136,2.9106,3.0315,3.1586,3.1376,3.1128,3.0718,2.9391,2.7829,2.6179,2.6059,0.0,0.0,0.0,3.0932,3.2122,3.4405,3.5709,3.6208,3.6525,3.6058,3.4823,3.1192,2.8702,2.7331,2.4524,2.2735,2.1902,0.0,0.0,2.5554,2.8861,3.1791,3.42,3.6115,3.7446,3.8187,3.8208,3.7752,3.6825,3.6064,3.5009,3.3561,3.2119,3.0582,2.8986,2.6568,2.4801,0.0,0.0,0.0,0.0,0.0,0.0,0.0,0.0,0.0,0.0,0.0,1.6142,0.0,0.0,0.0,0.0,1.6243,1.704,1.7739,1.7843,0.0,0.0,0.0,0.0,0.0,0.0,0.0,1.8286,1.9641,2.0963,2.2142,2.2662,2.3007,2.3127,2.4239,2.4844,2.444,0.0,2.462,2.5511,2.4766,2.4595,2.6001,2.4695,2.3428,2.3136,2.3113,2.3281,2.3706,2.3618,2.3588,2.3824,2.3897,2.3853,2.3706,2.3255,2.2587,2.1583,2.1935,2.2418,2.2447,2.3106,2.3707,3.8212,3.7513,3.3895,3.2146,3.1864,3.2331,3.3148,3.4093,3.3674,3.3679,3.3981,3.2962,3.1858,3.0801,3.0382,0.0,0.0,3.2365,3.3874,3.494,3.6864,3.8191,3.8906,3.9016,3.8237,3.6596,3.3558,3.1161,2.9319,2.7358,2.6188,2.5749,2.4672,2.5326,2.7806,3.063,3.2984,3.4763,3.6568,3.7732,3.8187,3.8208,3.7736,3.6825,3.6333,3.5666,3.4723,3.3043,3.1564,3.0315,2.781,2.5821,2.4608,0.0,0.0,0.0,0.0,0.0,0.0,0.0,0.0,0.0,0.0,0.0,0.0,0.0,0.0,0.0,1.7056,0.0,1.8252,1.8069,0.0,0.0,0.0,1.7199,1.701,1.7886,1.8645,1.9002,0.0,0.0,0.0,0.0,2.4123,2.3244,2.4531,2.5259,2.444,2.4677,2.5241,2.6421,2.6136,2.6292,2.7562,2.5849,2.4042,2.3362,2.3164,2.3384,2.3956,2.4101,2.4397,2.4836,2.5073,2.4983,2.4675,2.4545,2.4351,2.3384,2.3457,2.3662,2.3736,2.4205,2.4661,4.0732,4.0486,3.8861,3.7369,3.6092,3.6859,3.7551,3.8054,3.7625,3.7311,3.7013,3.5051,3.3658,3.2761,3.3352,3.416,3.5158,3.636,3.7612,3.8839,3.9712,3.9995,3.9878,3.9994,3.9332,3.7843,3.5748,3.3332,3.0754,2.966,2.8484,2.7292,2.8066,2.899,3.0057,3.2332,3.4424,3.6266,3.7091,3.7732,3.8187,3.8208,3.7736,3.6825,3.6349,3.5521,3.4309,3.3507,3.2455,3.1127,2.867,2.6851,2.5873,2.371,0.0,0.0,0.0,0.0,0.0,0.0,0.0,0.0,0.0,1.6966,1.6502,0.0,1.7435,0.0,1.822,1.8415,1.8316,1.8011,0.0,0.0,1.8189,1.8309,1.7872,1.8794,2.0135,2.1876,2.2587,2.3212,2.3792,2.5961,2.6449,2.3933,2.4491,2.5485,2.6214,2.6488,2.6776,2.727,2.7234,2.7528,2.8324,2.6862,2.4934,2.4031,2.3647,2.3634,2.4029,2.4324,2.4543,2.4705,2.4939,2.5044,2.4983,2.4985,2.491,2.4661,2.4483,2.4456,2.469,2.5025,2.5342,4.2805,4.2743,4.2,4.1149,4.0199,3.9871,4.012,4.0696,4.0261,3.9806,3.9285,3.7421,3.6287,3.5857,3.6349,3.7322,3.8622,3.9161,4.003,4.1128,4.1395,4.1273,4.0823,4.073,3.9986,3.8656,3.6808,3.4699,3.2438,3.1301,3.0372,2.9698,3.0949,3.2102,3.3126,3.4328,3.5763,3.7388,3.8051,3.8336,3.8208,3.8208,3.7773,3.6855,3.607,3.5151,3.409,3.3573,3.2792,3.171,2.9878,2.8419,2.7335,2.5362,2.3786,0.0,0.0,0.0,0.0,0.0,0.0,0.0,0.0,0.0,0.0,0.0,1.7858,0.0,0.0,0.0,1.8946,1.8908,1.8829,1.8759,1.9091,1.9201,1.8936,1.9954,2.1189,2.2645,2.329,2.3605,2.3712,2.5707,2.6527,2.4683,2.5454,2.6214,2.6357,2.6552,2.7143,2.8491,2.8234,2.7762,2.7866,2.6228,2.4799,2.4223,2.3957,2.3941,2.4263,2.4485,2.4646,2.4793,2.4985,2.5086,2.51,2.51,2.51,2.5071,2.4971,2.4895,2.5073,2.5215,2.5403,4.4317,4.4256,4.372,4.3513,4.3408,4.1832,4.1646,4.243,4.1975,4.1501,4.1004,3.9789,3.9254,3.9254,3.9254,3.9933,4.1128,4.1107,4.1581,4.2451,4.241,4.2161,4.177,4.1368,4.0519,3.9296,3.7616,3.594,3.4269,3.302,3.2474,3.2579,3.3547,3.4824,3.6253,3.6476,3.7104,3.8257,3.9034,3.902,3.8228,3.8198,3.7784,3.6844,3.5711,3.4735,3.3928,3.3334,3.2648,3.1904,3.0918,2.9741,2.8397,2.6901,2.5505,0.0,2.3476,0.0,0.0,0.0,0.0,0.0,0.0,0.0,0.0,1.8207,1.8334,1.8511,1.8835,1.9221,1.9692,1.9945,2.0018,1.9825,1.9883,1.9955,2.0084,2.11,2.2024,2.2526,2.3429,2.3841,2.3684,2.4812,2.5783,2.5862,2.692,2.7401,2.6409,2.6531,2.7612,2.9915,2.9332,2.8492,2.7093,2.5702,2.4764,2.4372,2.4117,2.4221,2.4456,2.4558,2.469,2.4956,2.5058,2.5086,2.51,2.51,2.51,2.5086,2.5071,2.5115,2.5232,2.5291,2.5318,4.4317,4.4234,4.3389,4.3037,4.2996,4.2665,4.283,4.3325,4.2851,4.2433,4.2037,4.1767,4.1643,4.1625,4.1643,4.1938,4.2497,4.2184,4.2515,4.3346,4.2973,4.2727,4.2625,4.2233,4.1595,4.0698,3.9968,3.8491,3.6367,3.6662,3.6155,3.4999,3.5981,3.6997,0.0,0.0,0.0,0.0,3.8955,3.8821,3.833,3.8331,3.7758,3.6534,3.5582,0.0,3.3326,3.2483,3.1807,3.1277,3.0152,0.0,0.0,0.0,0.0,0.0,0.0,0.0,0.0,0.0,0.0,0.0,2.025,1.9901,1.9139,1.9771,1.9926,1.9226,1.9853,2.0092,1.9443,1.9431,1.9548,1.9795,2.0223,2.0647,2.0954,2.1818,2.258,2.295,2.3402,2.4166,2.5278,2.6446,2.7105,2.7197,2.832,2.9055,2.8824,2.8997,2.9644,3.0581,3.0914,3.0445,2.848,2.7875,2.6614,2.5227,2.4263,2.4161,2.4234,2.4454,2.4602,2.4719,2.491,2.51,2.51,2.51,2.51,2.51,2.51,2.5247,2.571,2.5827,2.6003,4.4857,0.0,4.4153,4.3927,0.0,0.0,4.3739,4.3906,4.343,4.3014,4.2598,4.2389,4.241,4.2598,4.2389,4.264,4.3223,4.2787,4.2952,4.3575,4.3347,4.312,4.2894,4.2291,4.1692,4.1099,4.0654,3.9519,3.7815,3.8147,3.788,3.7004,3.7357,3.8012,3.8928,3.9556,3.973,3.9485,3.9779,3.9607,3.8935,3.8708,3.8089,3.7007,0.0,0.0,0.0,0.0,0.0,0.0,0.0,0.0,0.0,0.0,0.0,2.3141,2.2763,2.2328,2.1651,2.1153,2.0904,2.09,2.1197,2.0922,1.9831,2.0109,2.0152,1.9816,2.0469,2.0902,2.0762,2.0837,2.0998,2.1159,2.1335,2.1511,2.173,2.2389,2.2915,2.3169,2.3951,2.4964,2.5977,2.7559,2.846,2.8613,2.9891,3.077,3.0558,3.0305,3.0509,3.1569,3.0842,3.0065,2.9032,2.7638,2.6684,2.5124,2.4705,2.4617,2.4604,2.4719,2.4851,2.4851,2.5,2.5086,2.51,2.51,2.51,2.51,2.51,2.523,2.5666,2.5652,2.5698,4.5353,4.5021,4.5084,4.5064,4.496,4.4505,4.4256,4.4153,0.0,0.0,0.0,4.2681,4.2704,4.2996,4.2681,4.293,4.3554,4.3203,4.3223,4.3615,4.3615,4.3389,4.2999,4.2206,4.1702,4.1416,4.0942,4.0177,3.9167,3.9179,3.9129,3.8948,3.854,3.8777,3.9719,4.0206,4.0492,4.0575,4.0725,4.0404,3.9646,3.9185,3.8538,3.7658,3.5856,3.4458,3.355,3.2693,3.183,3.0991,3.1137,3.0342,2.8362,2.7795,2.6703,2.488,2.4052,2.3334,2.2641,2.1987,2.1534,2.1393,2.1876,2.1774,2.0751,2.0501,2.0485,2.0692,2.1174,2.1672,2.2228,2.2418,2.2534,2.252,2.2374,2.2272,2.2286,2.2754,2.3091,2.326,2.4423,2.5658,2.6339,2.8216,2.9707,3.0068,3.1237,3.2222,3.1813,3.1161,3.1159,3.2227,3.0821,2.9115,2.8801,2.7223,2.5465,2.516,2.5071,2.51,2.5102,2.5305,2.5356,2.509,2.5255,2.5373,2.5153,2.51,2.51,2.51,2.51,2.5159,2.5344,2.5259,2.5261,4.5083,4.5022,4.5435,4.5373,4.496,4.4505,4.407,4.3699,4.3656,4.3554,4.3511,4.3449,4.3449,4.3492,4.3449,4.3491,4.3596,4.3553,4.3534,0.0,4.3615,4.3573,4.3454,4.2692,4.2441,4.2666,4.1903,4.1404,4.1203,4.1179,4.1167,4.1023,4.03,4.0165,4.0696,4.1169,4.1584,4.1995,4.0948,4.032,4.018,3.9795,3.901,3.7822,3.7106,3.5952,3.4392,3.3829,3.3115,3.2287,3.227,3.1436,2.9542,2.8089,2.6612,2.4947,2.3244,2.2357,2.2569,2.1774,2.1495,2.2008,2.2155,2.233,2.2667,2.2667,2.2652,2.2696,2.2506,2.2431,2.2534,2.2418,2.233,2.2316,2.2447,2.2549,2.2564,2.2856,2.3106,2.3137,2.4301,2.5674,2.6832,2.8531,3.014,3.1082,3.202,3.2773,3.2844,3.2455,3.2214,3.2432,3.122,2.9908,2.9089,2.7687,2.6105,2.521,2.51,2.51,2.51,2.5846,2.6199,2.5373,2.6064,2.6267,2.5508,2.51,2.5204,2.5238,2.5204,2.5132,2.5188,2.5115,2.523,4.5229,4.5084,4.5747,4.5892,4.5665,4.525,4.4795,4.4339,4.4091,4.3823,4.3615,4.3615,4.3615,4.3615,4.3615,4.3615,4.3615,4.3615,4.3615,4.3615,4.3615,4.3481,4.3253,4.2889,4.2717,4.2658,4.2495,4.2265,4.2026,4.219,4.2186,4.1956,4.1542,4.1459,4.1664,4.1871,4.2203,4.258,4.1567,4.1003,4.1003,4.0333,3.9569,3.8729,3.8071,3.709,3.5781,3.5066,3.4145,3.3021,3.2495,3.1422,2.9664,2.7906,2.6389,2.5204,2.3549,2.2675,2.2857,2.23,2.2169,2.2637,2.2872,2.3149,2.3603,2.3019,2.2972,2.378,2.3289,2.3238,2.4023,2.3452,2.296,2.296,2.293,2.2886,2.2901,2.2988,2.3106,2.3293,2.4902,2.6422,2.7217,2.9462,3.1142,3.1839,3.2457,3.2949,3.3324,3.3089,3.2802,3.2626,3.0918,2.9454,2.8838,2.6952,2.5615,2.5109,2.5086,2.51,2.5102,2.5745,2.6296,2.7111,2.7315,2.7203,2.7053,2.6702,2.6334,2.61,2.5524,2.5187,2.5086,2.4985,2.4998,4.5623,4.5354,4.6017,4.6245,4.6121,4.583,4.5374,4.4835,4.4443,4.403,4.3637,4.3615,4.3615,4.3615,4.3615,4.3615,4.3615,4.3615,4.3615,4.3615,4.3615,4.3443,4.3157,4.3061,4.2889,4.2696,4.2908,4.2799,4.2503,4.266,4.2538,4.2203,4.2348,4.2451,4.243,4.2433,4.264,4.2975,4.2288,4.1894,4.1853,4.0903,4.0182,3.9809,3.9044,3.8212,3.7285,3.6545,3.5547,3.4253,3.3478,3.2356,3.0748,2.856,2.7043,2.6289,2.4456,2.3353,2.3412,2.3339,2.3309,2.3427,2.3662,2.3868,2.3883,2.3107,2.3186,2.4514,2.4177,2.4189,2.5,2.423,2.3486,2.3471,2.3267,2.3091,2.3106,2.3106,2.3261,2.3697,2.5496,2.7082,2.8177,3.0297,3.1945,3.2289,3.2535,3.2828,3.316,3.3241,3.3082,3.2475,3.0858,2.9355,2.8608,2.6456,2.496,2.4764,2.4675,2.4705,2.4845,2.5115,2.5915,2.7513,2.7531,2.7534,2.8444,2.7818,2.7058,2.6761,2.6114,2.5407,2.4989,2.4809,2.4889,4.6203,4.6203,4.6245,4.6099,4.5788,4.5725,4.5209,4.4463,4.4319,4.4029,4.3656,4.3615,4.3615,4.3615,4.3615,4.3615,4.3615,4.3615,4.3615,4.3615,4.3615,4.3577,4.3481,4.3176,4.3157,4.3386,4.3157,4.297,4.278,4.2499,4.214,4.1809,4.2456,4.2849,4.283,4.283,4.3058,4.3492,4.3037,4.2789,4.2725,4.1503,4.0835,4.0794,4.0264,3.9564,3.8658,3.853,3.7848,3.6639,3.6333,3.5705,3.4241,3.1293,2.9418,2.9125,2.5956,2.4148,2.4456,2.4932,2.4932,2.4527,2.447,2.4265,2.3751,2.3608,2.416,2.5375,2.5486,2.5156,2.5392,2.4125,2.3238,2.3252,2.3178,2.3106,2.3135,2.3106,2.3557,2.481,2.5849,2.7014,2.8609,3.0402,3.1795,3.2418,3.232,3.2359,3.2687,3.2789,3.2749,3.2548,3.1783,3.0464,2.8678,2.6517,2.4937,2.3805,2.3667,2.4086,2.4657,2.5633,2.6557,2.6499,2.697,2.7718,2.7966,2.7226,2.6872,2.7246,2.6788,2.6002,2.5028,2.4619,2.4985,4.6162,4.6016,4.6493,4.6451,4.6079,4.6058,4.5726,4.5146,4.4815,4.4443,4.4008,4.3739,4.3615,4.3615,4.3615,4.3615,4.3615,4.3615,4.3615,4.3615,4.3615,4.3481,4.3253,4.3348,4.3329,4.3253,4.331,4.3198,4.2873,4.2495,4.2182,4.2081,4.2621,4.2892,4.2932,4.3182,4.3409,4.3575,4.3141,4.3037,4.318,4.2269,4.1726,4.1685,4.1273,4.0717,4.0096,3.9771,3.9109,3.8038,3.7279,3.6521,3.5742,3.2794,3.0659,2.962,2.6569,2.4749,2.488,2.5127,2.5157,2.4895,2.4895,2.4617,2.4067,2.5293,2.6354,2.631,2.5078,2.4626,2.5942,2.4594,2.3398,2.3413,2.3559,2.3603,2.3397,2.3399,2.3919,2.5248,2.6233,2.7412,2.9039,3.0369,3.1235,3.166,3.1695,3.1894,3.2046,3.2359,3.2589,3.2442,3.1553,3.0129,2.852,2.6644,2.5359,2.4935,2.4914,2.5114,2.5352,2.6665,2.7457,2.6404,2.7734,2.9228,3.0704,2.9496,2.8694,2.8544,2.7263,2.6254,2.5563,2.4832,2.4997,4.6617,4.6347,4.6658,4.6617,4.6307,4.6307,4.5996,4.5498,4.5166,4.467,4.4091,4.3741,4.3615,4.3615,4.3615,4.3615,4.3615,4.3615,4.3615,4.3615,4.3615,4.3443,4.3214,4.3462,4.3443,4.3253,4.3462,4.3347,4.2952,4.2785,4.2617,4.2536,4.2747,4.2956,4.3099,4.3327,4.3472,4.3554,4.3244,4.3244,4.3491,4.2992,4.2598,4.2433,4.2018,4.1622,4.1294,4.082,4.017,3.9227,3.819,3.7295,3.6495,3.3988,3.1498,2.9238,2.6878,2.5479,2.5464,2.5464,2.5481,2.5467,2.5332,2.5107,2.5121,2.6424,2.7417,2.749,2.5485,2.5179,2.6342,2.4859,2.3552,2.3487,2.3691,2.3706,2.3486,2.3694,2.4577,2.5856,2.6736,2.7783,2.9264,3.0242,3.0762,3.0972,3.1191,3.1411,3.148,3.1875,3.2162,3.2375,3.1015,2.9842,2.8965,2.7351,2.629,2.5645,2.5598,2.5856,2.6131,2.7434,2.8418,2.75,2.9177,3.0165,3.0749,3.0429,2.9931,2.9766,2.8586,2.6971,2.6696,2.5751,2.5591,4.8045,4.7465,4.6699,4.6369,4.6307,4.6307,4.583,4.5105,4.5002,4.4505,4.3761,4.3635,4.3615,4.3615,4.3615,4.3615,4.3615,4.3615,4.3615,4.3615,4.3615,4.3596,4.3577,4.3615,4.3596,4.352,4.3558,4.3366,4.2954,4.3284,4.3306,4.2872,4.2851,4.3099,4.3347,4.3139,4.3161,4.3492,4.3513,4.3573,4.3575,4.3553,4.3284,4.2872,4.2474,4.2244,4.2161,4.1767,4.1111,4.0264,3.9642,3.8734,3.7151,3.4905,3.1822,2.8364,2.6956,2.6398,2.6369,2.6325,2.6393,2.6381,2.6004,2.579,2.6381,2.6633,2.728,2.8591,2.7351,2.6749,2.6719,2.4889,2.3396,2.3271,2.3209,2.3223,2.3226,2.4191,2.5518,2.6702,2.7526,2.8409,2.9494,2.9972,3.0405,3.0684,3.0879,3.1016,3.125,3.1177,3.1431,3.1625,3.0871,2.9857,3.0292,2.8482,2.6526,2.5958,2.6092,2.618,2.6538,2.7027,2.7773,2.83,2.8877,2.9525,3.0255,3.0339,2.9907,2.9558,2.9086,2.8133,2.7993,2.7977,2.7375,4.8128,4.7651,4.701,4.6576,4.6307,4.6307,4.5975,4.5416,4.5105,4.465,4.407,4.372,4.3615,4.3615,4.3615,4.3615,4.3615,4.3615,4.3615,4.3615,4.3615,4.3615,4.3615,4.3615,4.3615,4.3615,4.3615,4.3347,4.2913,4.2847,4.2681,4.2557,4.2534,4.2619,4.2743,4.287,4.2996,4.3161,4.343,4.3615,4.3615,4.3615,4.3492,4.3327,4.2911,4.2683,4.2683,4.1977,4.132,4.0777,3.9813,3.8791,3.7455,3.426,3.1635,2.9844,2.772,2.6395,2.6222,2.6175,2.6741,2.7813,2.7565,2.7523,2.818,2.8682,2.9019,2.8745,2.7757,2.7034,2.6722,2.554,2.4468,2.4105,2.3859,2.381,2.3995,2.4251,2.5138,2.7355,2.9146,3.0379,2.9945,3.0112,3.0156,3.0092,3.0273,3.0527,3.0654,3.0759,3.1049,3.1054,3.0258,2.9297,2.9108,2.8366,2.7221,2.6959,2.6932,2.7265,2.7604,2.8689,2.9593,2.9091,2.9206,2.9886,3.0903,3.0903,3.0407,3.0347,2.9788,2.9369,2.9386,2.9066,2.7774,4.7983,4.7631,4.701,4.6596,4.6327,4.6307,4.6079,4.5663,4.5208,4.4733,4.4277,4.3822,4.3615,4.3615,4.3615,4.3615,4.3615,4.3615,4.3615,4.3615,4.3615,4.3615,4.3615,4.3615,4.3615,4.3615,4.3615,4.343,4.3141,4.2849,4.2723,4.2743,4.2596,4.2596,4.2723,4.2849,4.2954,4.3141,4.3451,4.3615,4.3615,4.3615,4.3615,4.3573,4.3285,4.3063,4.2931,4.2085,4.1373,4.0774,3.9738,3.8633,3.7287,3.3817,3.1405,3.0632,2.8418,2.6813,2.6483,2.6683,2.7474,2.8765,2.889,2.906,2.9618,3.0279,3.0211,2.9464,2.8355,2.7516,2.6874,2.6004,2.5125,2.4561,2.4237,2.4313,2.4733,2.5139,2.6534,2.8735,3.0449,3.0982,3.0395,3.0313,3.0192,2.9847,3.0137,3.0405,3.0473,3.0661,3.0751,3.0434,2.9606,2.9036,2.8926,2.8469,2.8121,2.7874,2.7911,2.827,2.8678,2.9949,3.048,2.9987,3.0164,3.0882,3.125,3.1294,3.1318,3.1312,3.099,3.0459,3.0259,2.991,2.8535,4.7734,4.7568,4.6699,4.6369,4.6307,4.6307,4.6058,4.5663,4.5208,4.4733,4.4277,4.3803,4.3615,4.3615,4.3615,4.3615,4.3615,4.3615,4.3615,4.3615,4.3615,4.3615,4.3615,4.3615,4.3615,4.3615,4.3615,4.3615,4.3553,4.3491,4.3491,4.347,4.3037,4.3014,4.3532,4.3099,4.312,4.3409,4.3534,4.3615,4.3615,4.3615,4.3615,4.3596,4.3535,4.3305,4.2982,4.2125,4.1338,4.0551,3.9685,3.84,3.6784,3.3961,3.1699,3.0788,2.9063,2.7913,2.7432,2.8141,2.8754,2.9511,2.9716,3.0216,3.0681,3.0872,3.0918,3.0575,2.9428,2.8271,2.7037,2.5732,2.4796,2.4255,2.4176,2.4378,2.5396,2.7095,2.9053,3.0559,3.1274,3.0834,3.0364,3.0455,3.0553,3.0398,3.0561,3.0815,3.0791,3.0844,3.0514,2.9904,2.9468,2.9269,2.9105,2.8965,2.8852,2.8789,2.8942,2.9168,2.9267,3.0103,3.0537,3.0272,3.0242,3.0879,3.105,3.1113,3.1245,3.1245,3.1227,3.135,3.1145,3.0652,2.9465,4.8003,4.7651,4.7051,4.6596,4.6327,4.6307,4.6079,4.5663,4.5208,4.4733,4.4256,4.3822,4.3615,4.3615,4.3615,4.3615,4.3615,4.3615,4.3615,4.3615,4.3615,4.3615,4.3615,4.3615,4.3615,4.3615,4.3615,4.3615,4.3615,4.3615,4.3615,4.3532,4.312,4.2975,4.3141,4.2975,4.2996,4.312,4.343,4.3615,4.3615,4.3615,4.3615,4.3577,4.3329,4.3004,4.2599,4.2015,4.1307,4.052,3.967,3.8677,3.7368,3.5596,3.4136,3.3213,3.1721,3.0496,2.9817,2.9741,3.03,3.1177,3.1606,3.1951,3.2416,3.2476,3.2123,3.1255,2.9357,2.7694,2.683,2.4963,2.4224,2.4703,2.4409,2.4949,2.6702,2.8501,3.0179,3.146,3.1864,3.1606,3.1111,3.1072,3.0986,3.0731,3.0815,3.0913,3.0923,3.0911,3.0887,3.0468,3.0114,2.9715,2.9598,2.9461,2.933,2.9277,2.9453,2.9604,2.976,2.9936,3.0366,3.0586,3.0605,3.0698,3.0854,3.0972,3.1103,3.1343,3.1492,3.1648,3.1894,3.1163,2.9968,4.7983,4.7631,4.701,4.6576,4.6307,4.6307,4.6079,4.5684,4.5208,4.4733,4.4277,4.3803,4.3615,4.3615,4.3615,4.3615,4.3615,4.3615,4.3615,4.3615,4.3615,4.3615,4.3615,4.3615,4.3615,4.3615,4.3615,4.3615,4.3615,4.3615,4.3615,4.3553,4.3306,4.3182,4.3161,4.3161,4.3161,4.3203,4.347,4.3615,4.3615,4.3615,4.3615,4.3558,4.3195,4.2812,4.2386,4.1677,4.097,4.0231,3.9273,3.8511,3.8019,3.6635,3.5519,3.4861,3.3849,3.2722,3.1763,3.1684,3.1868,3.2593,3.2914,3.3049,3.3237,3.3285,3.2836,3.1446,2.9176,2.763,2.7377,2.5515,2.4825,2.6187,2.5562,2.6247,2.8397,2.9905,3.1053,3.1989,3.2397,3.2125,3.1686,3.1469,3.1296,3.1025,3.0913,3.0913,3.0918,3.0911,3.0894,3.0813,3.0403,3.0158,3.0087,2.997,2.9813,2.976,2.9785,2.9844,2.9936,3.0053,3.0346,3.0488,3.0547,3.0757,3.0913,3.0913,3.1011,3.1343,3.1577,3.146,3.1401,3.1382,3.0276,4.7693,4.7548,4.6679,4.6327,4.6286,4.6265,4.5975,4.5581,4.5146,4.465,4.4194,4.3761,4.3615,4.3615,4.3615,4.3615,4.3615,4.3615,4.3615,4.3615,4.3615,4.3615,4.3615,4.3615,4.3656,4.3718,4.3635,4.3635,4.3718,4.3656,4.3615,4.3594,4.3573,4.3594,4.3553,4.3594,4.3553,4.3553,4.3534,4.3532,4.3594,4.3553,4.3494,4.3477,4.3117,4.2695,4.213,4.1086,4.0215,3.9684,3.8532,3.805,3.8085,3.7007,3.6227,3.6033,3.5457,3.4531,3.3608,3.3721,3.384,3.3228,3.3606,3.3762,3.3156,3.3207,3.2953,3.1759,2.9495,2.8256,2.8372,2.6904,2.6614,2.7919,2.7559,2.8367,3.0699,3.127,3.1796,3.2426,3.2655,3.2483,3.1903,3.1831,3.1562,3.1185,3.103,3.1,3.0966,3.0985,3.0937,3.0776,3.0578,3.0516,3.0444,3.0346,3.021,3.0249,3.0195,3.0137,3.017,3.0249,3.0385,3.0508,3.0605,3.0815,3.0913,3.0913,3.0991,3.1226,3.1226,3.0991,3.1011,3.1152,3.0359,4.7506,4.7134,4.6534,4.6307,4.6245,4.5996,4.5602,4.5147,4.4691,4.4256,4.3822,4.3637,4.3615,4.3615,4.3615,4.3615,4.3615,4.3615,4.3615,4.3615,4.3615,4.3615,4.3615,4.3615,4.3761,4.3989,4.3741,4.3801,4.407,4.376,4.3615,4.3615,4.3615,4.3615,4.3615,4.3615,4.3615,4.3553,4.3263,4.3285,4.3513,4.3265,4.2967,4.2725,4.261,4.215,4.1409,4.0238,3.9172,3.8457,3.7851,3.7602,3.7977,3.7832,3.7764,3.7858,3.7562,3.7038,3.6285,3.5784,3.5146,3.4163,3.4148,3.4001,3.3332,3.3324,3.307,3.2297,3.0922,2.98,2.9301,2.807,2.8038,2.9198,2.9644,3.0217,3.1169,3.1926,3.2469,3.2655,3.2684,3.2512,3.2283,3.2104,3.1975,3.1605,3.133,3.1185,3.1126,3.1,3.0913,3.0913,3.0805,3.083,3.0781,3.0698,3.0659,3.0698,3.0639,3.0488,3.0483,3.0503,3.0639,3.0796,3.0757,3.0893,3.0913,3.0913,3.105,3.1152,3.1055,3.0952,3.123,3.1351,3.0193,4.7713,4.7237,4.6782,4.6472,4.6265,4.5871,4.5416,4.496,4.4505,4.4049,4.3677,4.3615,4.3615,4.3615,4.3615,4.3615,4.3615,4.3615,4.3615,4.3615,4.3615,4.3615,4.3615,4.3615,4.3741,4.3927,4.372,4.376,4.3925,4.3718,4.3635,4.3615,4.3615,4.3615,4.3615,4.3615,4.3615,4.3573,4.3327,4.3366,4.3534,4.3177,4.2904,4.254,4.2204,4.1389,4.0338,3.9427,3.8691,3.822,3.7798,3.7672,3.804,3.8424,3.8807,3.9171,3.8917,3.8451,3.7827,3.7109,3.6149,3.4985,3.4594,3.4096,3.3568,3.3386,3.3246,3.2708,3.1637,3.0953,3.0697,2.9999,3.0227,3.1206,3.168,3.1888,3.1868,3.2363,3.2641,3.2684,3.2669,3.2598,3.2334,3.2291,3.2119,3.1816,3.1455,3.1339,3.1267,3.1068,3.0913,3.0913,3.0913,3.0893,3.0893,3.0815,3.0776,3.0854,3.0854,3.0737,3.0718,3.0698,3.0776,3.0874,3.0893,3.0913,3.0913,3.0913,3.0972,3.1011,3.0937,3.1074,3.1333,3.1572,3.0351,4.8003,4.7465,4.7051,4.6596,4.612,4.5726,4.5249,4.4877,4.4381,4.3987,4.3677,4.3615,4.3615,4.3615,4.3615,4.3615,4.3615,4.3615,4.3615,4.3615,4.3615,4.3615,4.3615,4.3615,4.3698,4.3761,4.3677,4.3678,4.3741,4.3698,4.3615,4.3615,4.3615,4.3615,4.3615,4.3615,4.3615,4.3594,4.343,4.3451,4.3456,4.3109,4.2759,4.249,4.1483,4.0592,3.966,3.898,3.8664,3.8665,3.807,3.793,3.8288,3.8705,3.8979,3.9216,3.9154,3.8795,3.8265,3.7644,3.6864,3.5457,3.482,3.431,3.3693,3.3461,3.3265,3.2969,3.1819,3.1723,3.2017,3.2236,3.2299,3.27,3.2788,3.2676,3.2684,3.2684,3.2684,3.2684,3.2684,3.2569,3.242,3.2305,3.2248,3.2162,3.1816,3.1629,3.1455,3.1228,3.1039,3.0913,3.0913,3.0913,3.0913,3.0893,3.0874,3.0893,3.0893,3.0854,3.0854,3.0854,3.0874,3.0913,3.0913,3.0913,3.0913,3.0913,3.0986,3.0932,3.0932,3.1133,3.1406,3.168,3.105,4.7175,4.6119,4.6016,4.5705,4.525,4.4795,4.4546,4.4443,4.3947,4.3739,4.3616,4.3615,4.3596,4.3615,4.3596,4.3615,4.3615,4.3615,4.3615,4.3615,4.3615,4.3615,4.3615,4.3615,4.3782,4.3927,4.3741,4.3782,4.3947,4.376,4.3615,4.3615,4.3615,4.3615,4.3615,4.3615,4.3615,4.3553,4.3265,4.3306,4.3396,4.2869,4.2326,4.1943,4.0843,4.0131,3.9761,3.9317,3.9086,3.8826,3.8125,3.782,3.8178,3.8116,3.8316,3.8739,3.8671,3.8436,3.8121,3.7529,3.6692,3.5799,3.5063,3.4444,3.4009,3.3617,3.3422,3.3254,3.301,3.2867,3.2999,3.266,3.279,3.303,3.2969,3.2766,3.2704,3.2684,3.2684,3.2684,3.2684,3.2669,3.2598,3.2569,3.2512,3.2455,3.2234,3.1975,3.1657,3.1325,3.1141,3.0923,3.0913,3.0913,3.0913,3.0932,3.0972,3.103,3.105,3.1147,3.1147,3.1162,3.1255,3.1128,3.0913,3.0932,3.1064,3.1099,3.1192,3.1059,3.0991,3.1328,3.1641,3.1851,3.1749,4.701,4.5975,4.5788,4.5435,4.498,4.4505,4.4317,4.4215,4.3782,4.3615,4.3558,4.3424,4.3424,4.3577,4.3424,4.3405,4.3577,4.3615,4.3615,4.3615,4.3615,4.3615,4.3615,4.3615,4.3741,4.3906,4.372,4.3761,4.3823,4.376,4.3615,4.3615,4.3615,4.3615,4.3615,4.3615,4.3615,4.3575,4.3368,4.3368,4.3435,4.2779,4.1868,4.1212,4.0344,3.9824,3.9529,3.9332,3.9288,3.919,3.8728,3.8249,3.8238,3.8033,3.8135,3.8352,3.8357,3.8208,3.8021,3.7591,3.692,3.6146,3.5522,3.4965,3.4528,3.4121,3.3926,3.3789,3.3723,3.3729,3.376,3.3401,3.3295,3.3621,3.3514,3.3325,3.3128,3.2889,3.2684,3.2684,3.2684,3.2684,3.2684,3.2684,3.2584,3.244,3.2369,3.209,3.1493,3.1203,3.1078,3.0937,3.0908,3.0913,3.0913,3.0952,3.1035,3.1138,3.1274,3.1484,3.1655,3.1682,3.1707,3.151,3.1314,3.124,3.1319,3.1368,3.1451,3.1343,3.1426,3.168,3.1973,3.23,3.198,4.6886,4.5996,4.5623,4.5209,4.4753,4.4339,4.4174,4.4112,4.3761,4.3558,4.3443,4.3119,4.3214,4.3367,4.3176,4.3253,4.352,4.3615,4.3615,4.3615,4.3615,4.3615,4.3615,4.3615,4.3615,4.3615,4.3615,4.3637,4.3637,4.3615,4.3615,4.3615,4.3615,4.3615,4.3615,4.3615,4.3615,4.3594,4.3573,4.3477,4.3365,4.2732,4.1822,4.0757,4.0311,3.9919,3.9677,3.9537,3.9585,3.9867,3.9762,3.9286,3.8774,3.8362,3.8249,3.8249,3.8208,3.8208,3.8125,3.7725,3.7141,3.6515,3.5997,3.5524,3.4965,3.4648,3.4391,3.4137,3.397,3.3985,3.4318,3.392,3.4075,3.4444,3.433,3.3998,3.3688,3.319,3.3021,3.268,3.2682,3.2684,3.2684,3.2684,3.2555,3.242,3.2383,3.2133,3.1551,3.1189,3.1121,3.0966,3.0908,3.1074,3.1113,3.1187,3.125,3.1514,3.1636,3.1902,3.2182,3.2305,3.2271,3.2018,3.183,3.18,3.1919,3.2157,3.2112,3.1843,3.1816,3.2027,3.2359,3.275,3.2185,4.5769,4.461,4.4567,4.4256,4.3884,4.376,4.376,4.3718,4.3637,4.3405,4.3119,4.3004,4.2966,4.3061,4.3061,4.3214,4.352,4.3615,4.3615,4.3615,4.3615,4.3615,4.3615,4.3615,4.3615,4.3615,4.3615,4.3615,4.3615,4.3615,4.3615,4.3615,4.3615,4.3615,4.3615,4.3615,4.3615,4.3615,4.3615,4.3481,4.3176,4.2638,4.1844,4.0701,4.0449,4.0346,4.029,4.0226,4.0369,4.0691,4.0317,4.0044,3.9649,3.9096,3.8651,3.8332,3.827,3.827,3.8141,3.7565,3.721,3.678,3.6125,3.558,3.5248,3.4941,3.4665,3.4176,3.3837,3.3749,3.4329,3.4081,3.4192,3.4491,3.4495,3.4176,3.4078,3.3877,3.3579,3.3187,3.2957,3.2725,3.2801,3.2766,3.2584,3.2512,3.2455,3.2147,3.1629,3.1392,3.1368,3.1156,3.0928,3.1133,3.1352,3.1465,3.1577,3.2004,3.2222,3.2457,3.2732,3.2925,3.289,3.2744,3.2628,3.2579,3.2739,3.2843,3.2621,3.2239,3.2272,3.2409,3.2715,3.2987,3.2288,4.5313,4.4298,4.4049,4.3822,4.3616,4.3615,4.3615,4.3577,4.3386,4.3176,4.2908,4.2601,4.2621,4.2832,4.2755,4.3023,4.3481,4.3615,4.3615,4.3615,4.3615,4.3615,4.3615,4.3615,4.3615,4.3615,4.3615,4.3615,4.3615,4.3615,4.3615,4.3615,4.3615,4.3615,4.3615,4.3615,4.3615,4.3615,4.3596,4.352,4.3253,4.2736,4.1826,4.1149,4.0817,4.081,4.0839,4.1037,4.1026,4.0999,4.0956,4.0643,4.0226,3.9792,3.9213,3.8692,3.8506,3.8382,3.8133,3.7552,3.7129,3.7008,3.6223,3.5773,3.5684,3.5471,3.5056,3.4453,3.3766,3.367,3.4309,3.4222,3.4466,3.4897,3.4895,3.477,3.4714,3.4563,3.4249,3.3844,3.3505,3.3238,3.3043,3.2932,3.2674,3.2569,3.2526,3.2133,3.1672,3.1573,3.1525,3.1382,3.1196,3.1436,3.168,3.1816,3.1992,3.24,3.2826,3.3049,3.3348,3.3577,3.3708,3.3706,3.3586,3.3303,3.3028,3.2962,3.2791,3.2744,3.3011,3.3207,3.3197,3.3034,3.2271,4.4938,4.4132,4.376,4.3615,4.3615,4.3615,4.3615,4.352,4.3176,4.2947,4.2793,4.2294,4.2313,4.2697,4.2811,4.3022,4.3615,4.3615,4.3615,4.3615,4.3615,4.3615,4.3615,4.3615,4.3615,4.3615,4.3615,4.3615,4.3615,4.3615,4.3615,4.3615,4.3615,4.3615,4.3615,4.3615,4.3615,4.3615,4.3615,4.3558,4.3233,4.2659,4.2005,4.1405,4.1282,4.1315,4.1599,4.167,4.1698,4.1574,4.1464,4.1252,4.0634,4.0389,3.9954,3.9233,3.8927,3.8555,3.8027,3.7519,3.7045,3.691,3.6355,3.6084,3.5971,3.581,3.5642,3.4942,3.4307,3.4069,3.462,3.4541,3.4777,3.516,3.5361,3.5361,3.5216,3.5102,3.5033,3.4624,3.412,3.3696,3.3404,3.2961,3.2661,3.2555,3.2512,3.2162,3.177,3.1674,3.1612,3.1584,3.1578,3.1813,3.2018,3.2207,3.2461,3.2828,3.3271,3.3621,3.3951,3.4298,3.4311,3.4209,3.4081,3.375,3.3422,3.3227,3.327,3.3442,3.3794,3.3711,3.3203,3.2635,3.1928,4.4153,4.3678,4.3635,4.3615,4.3615,4.3615,4.3615,4.3539,4.3138,4.2793,4.2582,4.239,4.2331,4.264,4.3235,4.3483,4.3577,4.3615,4.3615,4.3615,4.3615,4.3615,4.3615,4.3615,4.3615,4.3615,4.3615,4.3615,4.3615,4.3615,4.3615,4.3615,4.3615,4.3615,4.3615,4.3615,4.3615,4.3615,4.3596,4.3272,4.2658,4.2177,4.1908,4.1753,4.179,4.2,4.2437,4.2436,4.2317,4.2511,4.1922,4.1602,4.1395,4.1024,4.0593,3.9975,3.9299,3.8499,3.7921,3.7432,3.7075,3.6821,3.6307,3.6086,3.609,3.6037,3.5894,3.5812,3.5174,3.5003,3.5215,3.5077,3.5148,3.5319,3.5593,3.55,3.5382,3.5506,3.5459,3.5158,3.458,3.4066,3.3652,3.3126,3.2669,3.2584,3.2426,3.2157,3.1925,3.1849,3.1806,3.181,3.1989,3.2224,3.237,3.2554,3.2812,3.3207,3.3654,3.4073,3.4331,3.4525,3.4501,3.4391,3.4306,3.4227,3.3922,3.3823,3.3875,3.4027,3.4267,3.3612,3.272,3.2134,3.1589,4.3782,4.3615,4.3615,4.3615,4.3615,4.3615,4.3615,4.3462,4.2927,4.2697,4.2621,4.2217,4.2294,4.2853,4.3614,4.3823,4.3677,4.3615,4.3615,4.3615,4.3615,4.3615,4.3615,4.3615,4.3615,4.3615,4.3615,4.3615,4.3615,4.3615,4.3615,4.3615,4.3615,4.3615,4.3615,4.3615,4.3615,4.3539,4.3367,4.2966,4.2504,4.2216,4.2024,4.185,4.2236,4.264,4.2887,4.3109,4.2933,4.2934,4.2435,4.2226,4.1954,4.1542,4.1087,4.061,3.9995,3.9264,3.8507,3.7861,3.7427,3.7086,3.6697,3.6403,3.6476,3.6366,3.62,3.6163,3.577,3.5703,3.5919,3.5799,3.5945,3.6041,3.6028,3.573,3.5652,3.5753,3.5718,3.5387,3.5067,3.4606,3.4196,3.3868,3.3408,3.3062,3.2883,3.2591,3.2345,3.2157,3.2129,3.2107,3.2366,3.2655,3.2781,3.291,3.3086,3.3458,3.3933,3.4284,3.4496,3.4624,3.4676,3.4756,3.4823,3.4678,3.4411,3.4318,3.426,3.4427,3.4665,3.3614,3.2541,3.1805,3.0923,4.3615,4.3615,4.3615,4.3615,4.3596,4.35,4.3443,4.3348,4.2581,4.2486,4.2659,4.2391,4.2604,4.3244,4.3813,4.3863,4.3615,4.3615,4.3615,4.3615,4.3615,4.3615,4.3615,4.3615,4.3615,4.3615,4.3615,4.3615,4.3615,4.3615,4.3615,4.3615,4.3615,4.3615,4.3615,4.3615,4.3615,4.3577,4.3214,4.2889,4.2621,4.2582,4.239,4.239,4.264,4.3042,4.3176,4.3385,4.3328,4.3182,4.2913,4.2663,4.2412,4.1853,4.1457,4.1024,4.0572,4.0044,3.9298,3.8653,3.8081,3.7608,3.7191,3.6758,3.6937,3.6787,3.6692,3.6752,3.6509,3.6449,3.6497,3.6512,3.6456,3.658,3.6664,3.627,3.5955,3.6049,3.6007,3.5707,3.5444,3.5263,3.4926,3.467,3.4245,3.3686,3.3331,3.3035,3.2772,3.2546,3.2568,3.2574,3.2785,3.3035,3.3117,3.3262,3.3441,3.374,3.4203,3.4473,3.4668,3.4887,3.5019,3.5129,3.5211,3.512,3.4858,3.4743,3.4598,3.4219,3.3822,3.3219,3.2395,3.1493,3.0251,4.3615,4.3615,4.3615,4.3615,4.3577,4.3195,4.3042,4.3023,4.2217,4.21,4.2504,4.2796,4.3385,4.3896,4.3807,4.3741,4.3615,4.3615,4.3615,4.3615,4.3615,4.3615,4.3615,4.3615,4.3615,4.3615,4.3615,4.3615,4.3615,4.3615,4.3615,4.3615,4.3615,4.3615,4.3615,4.3615,4.3615,4.352,4.3195,4.3004,4.2908,4.2908,4.2851,4.287,4.2947,4.3157,4.352,4.3596,4.3594,4.343,4.3182,4.3016,4.2787,4.2122,4.1685,4.1498,4.1004,4.0536,4.0003,3.9333,3.8569,3.7937,3.7472,3.7264,3.7382,3.7485,3.7488,3.748,3.7299,3.7291,3.7224,3.7103,3.7009,3.7046,3.7177,3.7018,3.667,3.6364,3.6276,3.6012,3.5862,3.5738,3.5608,3.5391,3.4958,3.4395,3.3787,3.3497,3.3216,3.3007,3.3074,3.3144,3.3262,3.3398,3.3437,3.3633,3.3926,3.4178,3.4559,3.4692,3.4789,3.5031,3.5364,3.5304,3.5342,3.534,3.5329,3.5198,3.476,3.3675,3.3008,3.2708,3.1317,2.9787,2.8806,4.3615,4.3615,4.3615,4.3615,4.3577,4.3176,4.2985,4.2851,4.2159,4.2043,4.2467,4.3346,4.3813,4.3887,4.4051,4.3844,4.3616,4.3615,4.3615,4.3615,4.3615,4.3615,4.3615,4.3615,4.3615,4.3615,4.3615,4.3615,4.3615,4.3615,4.3615,4.3615,4.3615,4.3615,4.3615,4.3596,4.3596,4.35,4.3214,4.3004,4.2985,4.2985,4.2985,4.2985,4.3291,4.3405,4.3577,4.3615,4.3615,4.3573,4.3408,4.3346,4.3141,4.2433,4.2058,4.1892,4.1332,4.0873,4.0568,3.9895,3.9053,3.8364,3.8129,3.8146,3.8058,3.8093,3.8163,3.8148,3.8075,3.7943,3.786,3.7757,3.7715,3.7674,3.7612,3.757,3.7363,3.6991,3.6752,3.6591,3.6456,3.6316,3.6214,3.6074,3.5602,3.5116,3.4505,3.3954,3.3681,3.3492,3.359,3.3613,3.373,3.3809,3.3848,3.4137,3.4469,3.4681,3.491,3.5028,3.5144,3.5432,3.5676,3.5577,3.553,3.5644,3.5664,3.5605,3.5097,3.4303,3.3369,3.256,3.0699,2.838,2.7833,4.3615,4.3615,4.3615,4.3539,4.3367,4.3004,4.2736,4.2544,4.2043,4.22,4.2822,4.3721,4.4029,4.3925,4.3925,4.3925,4.3656,4.3615,4.3615,4.3615,4.3615,4.3615,4.3615,4.3615,4.3615,4.3615,4.3615,4.3615,4.3615,4.3615,4.3615,4.3615,4.3615,4.3615,4.3577,4.3481,4.3481,4.3481,4.3233,4.31,4.3138,4.3195,4.3195,4.3214,4.3443,4.3558,4.3596,4.3615,4.3615,4.3615,4.3573,4.3594,4.3284,4.2888,4.2389,4.1995,4.1519,4.0942,4.0725,4.0233,3.9567,3.9109,3.8904,3.8962,3.8923,3.8754,3.879,3.8872,3.8634,3.8378,3.8357,3.8212,3.8084,3.796,3.798,3.7939,3.7815,3.7529,3.7372,3.7232,3.6944,3.651,3.6575,3.6383,3.5908,3.5396,3.4778,3.4373,3.4257,3.4118,3.4118,3.4137,3.4141,3.4215,3.4293,3.4645,3.4938,3.5053,3.5269,3.5449,3.5622,3.5865,3.5941,3.5824,3.5842,3.5979,3.5999,3.5976,3.5636,3.5139,3.3734,3.1958,2.9976,2.7952,2.7973,4.3596,4.3615,4.3577,4.3348,4.2947,4.2581,4.2236,4.1985,4.1908,4.2456,4.3395,4.3672,4.3884,4.4029,4.3823,4.3698,4.3656,4.3615,4.3615,4.3615,4.3615,4.3615,4.3635,4.3656,4.376,4.3616,4.3823,4.3967,4.3677,4.3842,4.378,4.3615,4.3615,4.3615,4.3558,4.3214,4.3233,4.3481,4.3195,4.3291,4.3443,4.35,4.35,4.352,4.3558,4.3615,4.3615,4.3615,4.3615,4.3615,4.3615,4.3615,4.3511,4.2826,4.241,4.2223,4.1436,4.0983,4.0841,4.0433,4.0129,3.9887,3.9588,3.9485,3.9482,3.942,3.9378,3.9402,3.9089,3.882,3.8654,3.8526,3.8419,3.8332,3.8353,3.8336,3.8233,3.8092,3.7931,3.7769,3.7041,3.6477,3.6662,3.664,3.615,3.5607,3.5021,3.4773,3.4743,3.4668,3.4626,3.4512,3.4512,3.4665,3.4802,3.5153,3.5407,3.5485,3.5622,3.5815,3.5971,3.6157,3.6179,3.6096,3.6233,3.6445,3.6426,3.6367,3.5872,3.5129,3.2771,3.0853,2.8934,2.8189,2.8754,4.3443,4.3195,4.3195,4.2812,4.2274,4.2351,4.2158,4.1908,4.2101,4.2606,4.3188,4.3465,4.3677,4.376,4.3739,4.3615,4.3615,4.3615,4.3615,4.3615,4.3635,4.3615,4.3677,4.3905,4.4049,4.4256,4.4484,4.4463,4.4091,4.4215,4.4008,4.3801,4.3615,4.3615,4.3577,4.3443,4.352,4.3558,4.3481,4.3481,4.3596,4.3615,4.3615,4.3615,4.3615,4.3615,4.3615,4.3615,4.3615,4.3615,4.3615,4.3615,4.3532,4.2911,4.2578,4.2285,4.1622,4.1211,4.1004,4.0696,4.051,4.0306,4.0099,3.9978,3.9957,3.9647,3.9709,3.9792,3.9523,3.9213,3.8803,3.9047,3.9006,3.8795,3.8758,3.8799,3.8737,3.8592,3.8418,3.8304,3.7811,3.757,3.7603,3.7137,3.6604,3.6349,3.5885,3.5421,3.531,3.5156,3.5059,3.4883,3.4863,3.5039,3.529,3.5642,3.5993,3.6189,3.6189,3.6228,3.6348,3.6504,3.6621,3.668,3.6777,3.6875,3.6894,3.6757,3.604,3.484,3.3604,3.1958,3.0378,3.0275,3.0963,4.3233,4.2985,4.2832,4.2428,4.1889,4.2082,4.2081,4.2042,4.2293,4.2677,4.3195,4.35,4.3615,4.3615,4.3615,4.3615,4.3615,4.3615,4.3615,4.3635,4.3822,4.376,4.3842,4.4194,4.436,4.4628,4.4898,4.4981,4.4298,4.4588,4.4277,4.376,4.3615,4.3615,4.3596,4.3596,4.3596,4.3596,4.3558,4.3577,4.3615,4.3615,4.3615,4.3615,4.3615,4.3615,4.3615,4.3615,4.3615,4.3615,4.3615,4.3615,4.347,4.318,4.2725,4.2288,4.1685,4.1397,4.1376,4.119,4.1087,4.1087,4.0696,4.0468,4.0409,4.0223,4.0244,4.0223,3.9975,3.9668,3.9382,3.9647,3.942,3.9192,3.9089,3.9131,3.9124,3.8958,3.8767,3.8651,3.8458,3.8402,3.8209,3.7713,3.7099,3.6949,3.6797,3.6348,3.5879,3.5686,3.5589,3.5452,3.5393,3.5608,3.584,3.6111,3.6462,3.6834,3.6777,3.666,3.6797,3.6953,3.7109,3.7226,3.7187,3.7226,3.7422,3.7216,3.6902,3.6785,3.6468,3.4551,3.2232,3.2262,3.2961,4.3004,4.2927,4.2543,4.2139,4.1811,4.1831,4.2043,4.2389,4.2389,4.283,4.3577,4.3577,4.3615,4.3615,4.3615,4.3615,4.3615,4.3615,4.3615,4.3739,4.3987,4.3884,4.4049,4.4505,4.4691,4.467,4.4877,4.5188,4.4422,4.4256,4.4008,4.3718,4.3615,4.3615,4.3615,4.3615,4.3615,4.3615,4.3615,4.3615,4.3615,4.3615,4.3615,4.3615,4.3615,4.3615,4.3615,4.3615,4.3615,4.3615,4.3615,4.3615,4.347,4.3161,4.2745,4.2226,4.1501,4.1666,4.1912,4.1726,4.1788,4.1749,4.1376,4.1087,4.0942,4.0921,4.0859,4.0735,4.0507,4.0303,4.014,3.9913,3.9688,3.9522,3.9384,3.9381,3.9391,3.9264,3.9018,3.8833,3.8562,3.8384,3.8109,3.7683,3.7653,3.7559,3.7402,3.7129,3.6662,3.624,3.6142,3.6174,3.6138,3.6235,3.6448,3.6621,3.6894,3.7246,3.7187,3.7109,3.7266,3.7439,3.7519,3.7578,3.748,3.7656,3.8184,3.834,3.821,3.8148,3.8104,3.6589,3.4127,3.4238,3.4654,4.2832,4.2544,4.2139,4.1753,4.1463,4.1676,4.2024,4.237,4.2408,4.285,4.3615,4.3615,4.3615,4.3615,4.3615,4.3615,4.3615,4.3615,4.3615,4.3801,4.4112,4.3946,4.4194,4.4733,4.5002,4.5147,4.5272,4.5354,4.4733,4.4237,4.3822,4.3635,4.3615,4.3615,4.3615,4.3615,4.3615,4.3615,4.3615,4.3615,4.3615,4.3615,4.3615,4.3615,4.3615,4.3615,4.3615,4.3615,4.3615,4.3615,4.3615,4.3615,4.3573,4.3451,4.3203,4.2766,4.2267,4.2058,4.2223,4.2182,4.2203,4.2348,4.2037,4.1975,4.183,4.1622,4.1436,4.1187,4.0942,4.0714,4.053,4.0344,4.014,3.9991,3.993,3.9959,3.9915,3.954,3.9294,3.8859,3.8618,3.8541,3.8223,3.8246,3.8233,3.8122,3.7987,3.7789,3.7385,3.6885,3.658,3.6593,3.6738,3.6797,3.6936,3.709,3.7363,3.7598,3.7578,3.7676,3.7949,3.8066,3.8008,3.8066,3.8223,3.8691,3.9297,3.9258,3.9004,3.9277,3.9173,3.7707,3.6515,3.6515,3.6161,4.264,4.2331,4.1792,4.1502,4.1521,4.1869,4.2274,4.2601,4.264,4.3023,4.3577,4.3615,4.3615,4.3615,4.3615,4.3615,4.3615,4.3615,4.3615,4.376,4.4236,4.401,4.4278,4.4857,4.5084,4.525,4.523,4.523,4.4672,4.4091,4.3615,4.3615,4.3615,4.3615,4.3615,4.3615,4.3615,4.3615,4.3615,4.3615,4.3615,4.3615,4.3615,4.3615,4.3615,4.3615,4.3615,4.3615,4.3615,4.3615,4.3615,4.3615,4.3553,4.343,4.343,4.2994,4.2557,4.2575,4.2743,4.264,4.266,4.2743,4.2803,4.2805,4.2557,4.2288,4.1912,4.154,4.1291,4.1084,4.0942,4.0797,4.0655,4.0513,4.0574,4.0635,4.0292,3.9854,3.9406,3.8925,3.8754,3.8747,3.8717,3.8774,3.8849,3.8767,3.8765,3.8726,3.8092,3.7332,3.6971,3.6819,3.7076,3.7281,3.7441,3.766,3.7969,3.8164,3.8143,3.8299,3.8631,3.8631,3.8457,3.875,3.9139,3.955,3.9862,3.9824,3.9707,3.9941,4.0,3.9009,3.829,3.8383,3.784,4.2389,4.2331,4.156,4.1502,4.1831,4.2255,4.2659,4.3005,4.3004,4.3253,4.3577,4.3615,4.3615,4.3615,4.3615,4.3615,4.3615,4.3615,4.3615,4.3637,4.436,4.4298,4.4194,4.4856,4.5001,4.4733,4.4608,4.4795,4.4278,4.3842,4.3615,4.3615,4.3615,4.3615,4.3615,4.3615,4.3615,4.3615,4.3615,4.3615,4.3615,4.3615,4.3615,4.3615,4.3615,4.3615,4.3615,4.3615,4.3615,4.3615,4.3615,4.3615,4.3491,4.3346,4.3366,4.3284,4.2909,4.2973,4.3159,4.3118,4.3201,4.3366,4.3594,4.3449,4.3118,4.2723,4.2267,4.2037,4.1791,4.1602,4.1436,4.1457,4.1376,4.1278,4.1271,4.1206,4.0902,4.0331,3.9588,3.9188,3.9019,3.8992,3.892,3.8976,3.9349,3.9349,3.9448,3.9488,3.9073,3.8155,3.7668,3.7421,3.7868,3.8192,3.8152,3.8367,3.8634,3.875,3.8749,3.8866,3.9179,3.91,3.8905,3.9315,3.9766,3.9922,4.0136,4.0195,4.0273,4.0254,4.0254,4.0098,3.9961,3.9885,3.9388,4.2389,4.2351,4.1869,4.1715,4.1889,4.2563,4.2908,4.3023,4.3329,4.35,4.3596,4.3615,4.3615,4.3615,4.3615,4.3615,4.3615,4.3615,4.3615,4.376,4.4277,4.4256,4.3884,4.4608,4.4752,4.4545,4.436,4.4256,4.3905,4.3677,4.3615,4.3615,4.3615,4.3615,4.3615,4.3615,4.3615,4.3615,4.3615,4.3615,4.3615,4.3615,4.3615,4.3615,4.3615,4.3615,4.3615,4.3615,4.3615,4.3615,4.3615,4.3615,4.3594,4.3491,4.3492,4.3532,4.3346,4.3387,4.3428,4.347,4.3491,4.3532,4.3615,4.3615,4.3408,4.3014,4.2704,4.2536,4.2329,4.212,4.1993,4.2037,4.2058,4.1982,4.1908,4.1718,4.153,4.0711,3.9841,3.9574,3.9362,3.9288,3.9255,3.9422,3.97,3.9949,4.0089,4.0136,4.004,3.9448,3.8828,3.8636,3.9104,3.9318,3.9158,3.9012,3.924,3.9414,3.9452,3.9589,3.9687,3.9609,3.9551,3.9961,4.0351,4.0449,4.0605,4.0859,4.0879,4.0722,4.0683,4.0585,4.0664,4.0664,4.0332,4.2562,4.237,4.2158,4.2178,4.2428,4.3004,4.3253,4.331,4.352,4.3615,4.3615,4.3615,4.3615,4.3615,4.3615,4.3615,4.3615,4.3615,4.3615,4.376,4.3967,4.3967,4.4132,4.4319,4.4215,4.4091,4.4008,4.3842,4.3635,4.3615,4.3615,4.3615,4.3615,4.3615,4.3615,4.3615,4.3615,4.3615,4.3615,4.3615,4.3615,4.3615,4.3615,4.3615,4.3615,4.3615,4.3615,4.3615,4.3615,4.3615,4.3615,4.3615,4.3615,4.3573,4.3594,4.3615,4.3573,4.3615,4.3615,4.3615,4.3615,4.3615,4.3615,4.3615,4.3596,4.3223,4.3035,4.2849,4.2704,4.2495,4.2348,4.2327,4.2306,4.2228,4.2239,4.2171,4.1746,4.1091,4.0581,4.0336,4.0238,4.0295,4.0315,4.0556,4.08,4.0936,4.1037,4.1058,4.0923,4.0861,4.0214,3.9835,4.025,4.042,4.0289,3.9991,3.9786,3.9941,4.0097,3.9941,3.9883,4.0078,4.0235,4.045,4.0664,4.0898,4.1074,4.1191,4.1211,4.1015,4.1054,4.1094,4.1211,4.1211,4.0879,4.2755,4.2428,4.2447,4.2678,4.3023,4.3424,4.3596,4.3596,4.3615,4.3615,4.3615,4.3615,4.3615,4.3615,4.3615,4.3615,4.3615,4.3615,4.3615,4.3718,4.3987,4.3863,4.3863,4.3987,4.3905,4.3801,4.3698,4.3677,4.3615,4.3615,4.3615,4.3615,4.3615,4.3615,4.3615,4.3615,4.3615,4.3615,4.3615,4.3615,4.3615,4.3615,4.3615,4.3615,4.3615,4.3615,4.3615,4.3615,4.3615,4.3615,4.3615,4.3615,4.3615,4.3615,4.3615,4.3615,4.3615,4.3615,4.3615,4.3615,4.3615,4.3615,4.3615,4.3615,4.3596,4.3492,4.3306,4.3182,4.3056,4.2932,4.2745,4.2681,4.2619,4.2619,4.2652,4.2679,4.217,4.1644,4.1399,4.1155,4.1134,4.1189,4.1302,4.1527,4.1739,4.1876,4.1976,4.2056,4.2082,4.2097,4.1816,4.1356,4.1337,4.1395,4.1168,4.0788,4.0351,4.0449,4.0507,4.0234,4.0137,4.043,4.0625,4.0664,4.0879,4.1074,4.1133,4.1211,4.1211,4.1211,4.1211,4.1211,4.1211,4.1211,4.1211,4.2755,4.2428,4.2736,4.2927,4.3061,4.3404,4.3615,4.3615,4.3594,4.3615,4.3615,4.3615,4.3615,4.3615,4.3615,4.3615,4.3615,4.3615,4.3615,4.3677,4.378,4.3698,4.3677,4.378,4.3698,4.3635,4.3615,4.3615,4.3615,4.3615,4.3615,4.3615,4.3615,4.3615,4.3615,4.3615,4.3615,4.3615,4.3615,4.3615,4.3615,4.3615,4.3615,4.3615,4.3615,4.3615,4.3615,4.3615,4.3615,4.3615,4.3615,4.3615,4.3615,4.3615,4.3615,4.3615,4.3615,4.3615,4.3615,4.3615,4.3615,4.3615,4.3615,4.3615,4.3615,4.3615,4.3491,4.3491,4.3387,4.3387,4.3284,4.3284,4.3242,4.3242,4.3289,4.3282,4.3039,4.2664,4.2332,4.2114,4.1971,4.1896,4.1783,4.2049,4.2396,4.2517,4.2624,4.2725,4.2933,4.3099,4.3186,4.2781,4.2356,4.1803,4.1302,4.1167,4.0879,4.0957,4.0957,4.0742,4.0703,4.0937,4.1074,4.0957,4.0996,4.1152,4.1211,4.1211,4.1211,4.1211,4.1211,4.1211,4.1211,4.1211,4.1211]}]]